[[{"header":{"parameterUnit":"m.s-1","parameterCategory":1,"la1":31.0,"la2":29.5877,"lo1":-88.7671,"lo2":-86.6584,"dy":0.0162,"dx":0.0185,"nx":115,"ny":88,"refTime":"2026-04-23T12:00:00:Z","depth":0,"parameterNumber":2,"parameterNumberName":"U-component_of_WINDS"},"data":[0.0,0.0,0.0,0.0,0.0,0.0,0.0,0.0,0.0,0.0,0.0,0.0,0.0,0.0,0.0,0.0,0.0,0.0,0.0,0.0,0.0,0.0,0.0,0.0,0.0,0.0,0.0,0.0,0.0,0.0,0.0,0.0,0.0,0.0,0.0,0.0,0.0,0.0,0.0,0.0,0.0,0.0,0.0,0.0,0.0,0.0,0.0,0.0,0.0,0.0,0.0,0.0,0.0,0.0,0.0,0.0,0.0,0.0,0.0,0.0,0.0,0.0,0.0,0.0,0.0,0.0,0.0,0.0,0.0,0.0,0.0,0.0,0.0,0.0,0.0,0.0,0.0,0.0,0.0,0.0,0.0,0.0,0.0,0.0,0.0,0.0,0.0,0.0,0.0,0.0,0.0,0.0,0.0,0.0,0.0,0.0,0.0,0.0,0.0,0.0,0.0,0.0,0.0,0.0,0.0,0.0,0.0,0.0,0.0,0.0,0.0,0.0,0.0,0.0,0.0,0.0,0.0,0.0,0.0,0.0,0.0,0.0,0.0,0.0,0.0,0.0,0.0,0.0,0.0,0.0,0.0,0.0,0.0,0.0,0.0,0.0,0.0,0.0,0.0,0.0,0.0,0.0,0.0,0.0,0.0,0.0,0.0,0.0,0.0,0.0,0.0,0.0,0.0,0.0,0.0,0.0,0.0,0.0,0.0,0.0,0.0,0.0,0.0,0.0,0.0,0.0,0.0,0.0,0.0,0.0,0.0,0.0,0.0,0.0,0.0,0.0,0.0,0.0,0.0,0.0,0.0,0.0,0.0,0.0,0.0,0.0,0.0,0.0,0.0,0.0,0.0,0.0,0.0,0.0,0.0,0.0,0.0,0.0,0.0,0.0,0.0,0.0,0.0,0.0,0.0,0.0,0.0,0.0,0.0,0.0,0.0,0.0,0.0,0.0,0.0,0.0,0.0,0.0,0.0,0.0,0.0,0.0,0.0,0.0,0.0,0.0,0.0,0.0,0.0,0.0,0.0,0.0,0.0,0.0,0.0,0.0,0.0,0.0,0.0,0.0,0.0,0.0,0.0,0.0,0.0,0.0,0.0,0.0,0.0,0.0,0.0,0.0,0.0,0.0,0.0,0.0,0.0,0.0,0.0,0.0,0.0,0.0,0.0,0.0,0.0,0.0,0.0,0.0,0.0,0.0,0.0,0.0,0.0,0.0,0.0,0.0,0.0,0.0,0.0,0.0,0.0,0.0,0.0,0.0,0.0,0.0,0.0,0.0,0.0,0.0,0.0,0.0,0.0,0.0,0.0,0.0,0.0,0.0,0.0,0.0,0.0,0.0,0.0,0.0,0.0,0.0,0.0,0.0,0.0,0.0,0.0,0.0,0.0,0.0,0.0,0.0,0.0,0.0,0.0,0.0,0.0,0.0,0.0,0.0,0.0,0.0,0.0,0.0,0.0,0.0,0.0,0.0,0.0,0.0,0.0,0.0,0.0,0.0,0.0,0.0,0.0,0.0,0.0,0.0,0.0,0.0,0.0,0.0,0.0,0.0,0.0,0.0,0.0,0.0,0.0,0.0,0.0,0.0,0.0,0.0,0.0,0.0,0.0,0.0,0.0,0.0,0.0,0.0,0.0,0.0,0.0,0.0,0.0,0.0,0.0,0.0,0.0,0.0,0.0,0.0,0.0,0.0,0.0,0.0,0.0,0.0,0.0,0.0,0.0,0.0,0.0,0.0,0.0,0.0,0.0,0.0,0.0,0.0,0.0,0.0,0.0,0.0,0.0,0.0,0.0,0.0,0.0,0.0,0.0,0.0,0.0,0.0,0.0,0.0,0.0,0.0,0.0,0.0,0.0,0.0,0.0,0.0,0.0,0.0,0.0,0.0,0.0,0.0,0.0,0.0,0.0,0.0,0.0,0.0,0.0,0.0,0.0,0.0,0.0,0.0,0.0,0.0,0.0,0.0,0.0,0.0,0.0,0.0,0.0,0.0,0.0,0.0,0.0,0.0,0.0,0.0,0.0,0.0,0.0,0.0,0.0,0.0,0.0,0.0,0.0,0.0,0.0,0.0,0.0,0.0,0.0,0.0,0.0,0.0,0.0,0.0,0.0,0.0,0.0,0.0,0.0,0.0,0.0,0.0,0.0,0.0,0.0,0.0,0.0,0.0,0.0,0.0,0.0,0.0,0.0,0.0,0.0,0.0,0.0,0.0,0.0,0.0,0.0,0.0,0.0,0.0,0.0,0.0,0.0,0.0,0.0,0.0,0.0,0.0,0.0,0.0,0.0,0.0,0.0,0.0,0.0,0.0,0.0,0.0,0.0,0.0,0.0,0.0,0.0,0.0,0.0,0.0,0.0,0.0,0.0,0.0,0.0,0.0,0.0,0.0,0.0,0.0,0.0,0.0,0.0,0.0,0.0,0.0,0.0,0.0,0.0,0.0,0.0,0.0,0.0,0.0,0.0,0.0,0.0,0.0,0.0,0.0,0.0,0.0,0.0,0.0,0.0,0.0,0.0,0.0,0.0,0.0,0.0,0.0,0.0,0.0,0.0,0.0,0.0,0.0,0.0,0.0,0.0,0.0,0.0,0.0,0.0,0.0,0.0,0.0,0.0,0.0,0.0,0.0,0.0,0.0,0.0,0.0,0.0,0.0,0.0,0.0,0.0,0.0,0.0,0.0,0.0,0.0,0.0,0.0,0.0,0.0,0.0,0.0,0.0,0.0,0.0,0.0,0.0,0.0,0.0,0.0,0.0,0.0,0.0,0.0,0.0,0.0,0.0,0.0,0.0,0.0,0.0,0.0,0.0,0.0,0.0,0.0,0.0,0.0,0.0,0.0,0.0,0.0,0.0,0.0,0.0,0.0,0.0,0.0,0.0,0.0,0.0,0.0,0.0,0.0,0.0,0.0,0.0,0.0,0.0,0.0,0.0,0.0,0.0,0.0,0.0,0.0,0.0,0.0,0.0,0.0,0.0,0.0,0.0,0.0,0.0,0.0,0.0,0.0,0.0,0.0,0.0,0.0,0.0,0.0,0.0,0.0,0.0,0.0,0.0,0.0,0.0,0.0,0.0,0.0,0.0,0.0,0.0,0.0,0.0,0.0,0.0,0.0,0.0,0.0,0.0,0.0,0.0,0.0,0.0,0.0,0.0,0.0,0.0,0.0,0.0,0.0,0.0,0.0,0.0,0.0,0.0,0.0,0.0,0.0,0.0,0.0,0.0,0.0,0.0,0.0,0.0,0.0,0.0,0.0,0.0,0.0,0.0,0.0,0.0,0.0,0.0,0.0,0.0,0.0,0.0,0.0,0.0,0.0,0.0,0.0,0.0,0.0,0.0,0.0,0.0,0.0,0.0,0.0,0.0,0.0,0.0,0.0,0.0,0.0,0.0,0.0,0.0,0.0,0.0,0.0,0.0,0.0,0.0,0.0,0.0,0.0,0.0,0.0,0.0,0.0,0.0,0.0,0.0,0.0,0.0,0.0,0.0,0.0,0.0,0.0,0.0,0.0,0.0,0.0,0.0,0.0,0.0,0.0,0.0,0.0,0.0,0.0,0.0,0.0,0.0,0.0,0.0,0.0,0.0,0.0,0.0,0.0,0.0,0.0,0.0,0.0,0.0,0.0,0.0,0.0,0.0,0.0,0.0,0.0,0.0,0.0,0.0,0.0,0.0,0.0,0.0,0.0,0.0,0.0,0.0,0.0,0.0,0.0,0.0,0.0,0.0,0.0,0.0,0.0,0.0,0.0,0.0,0.0,0.0,0.0,0.0,0.0,0.0,0.0,0.0,0.0,0.0,0.0,0.0,0.0,0.0,0.0,0.0,0.0,0.0,0.0,0.0,0.0,0.0,0.0,0.0,0.0,0.0,0.0,0.0,0.0,0.0,0.0,0.0,0.0,0.0,0.0,0.0,0.0,0.0,0.0,0.0,0.0,0.0,0.0,0.0,0.0,0.0,0.0,0.0,0.0,0.0,0.0,0.0,0.0,0.0,0.0,0.0,0.0,0.0,0.0,0.0,0.0,0.0,0.0,0.0,0.0,0.0,0.0,0.0,0.0,0.0,0.0,0.0,0.0,0.0,0.0,0.0,0.0,0.0,0.0,0.0,0.0,0.0,0.0,0.0,0.0,0.0,0.0,0.0,0.0,0.0,0.0,0.0,0.0,0.0,0.0,0.0,0.0,0.0,0.0,0.0,0.0,0.0,0.0,0.0,0.0,0.0,0.0,0.0,0.0,0.0,0.0,0.0,0.0,0.0,0.0,0.0,0.0,-1.0887,0.0,0.0,0.0,0.0,0.0,0.0,0.0,0.0,0.0,0.0,0.0,0.0,0.0,0.0,0.0,0.0,0.0,0.0,0.0,0.0,0.0,0.0,0.0,0.0,0.0,0.0,0.0,0.0,0.0,0.0,0.0,0.0,0.0,0.0,0.0,0.0,0.0,0.0,0.0,0.0,0.0,0.0,0.0,0.0,0.0,0.0,0.0,0.0,0.0,0.0,0.0,0.0,0.0,0.0,0.0,0.0,0.0,0.0,0.0,0.0,0.0,0.0,0.0,0.0,0.0,0.0,0.0,0.0,0.0,0.0,0.0,0.0,0.0,0.0,0.0,0.0,0.0,0.0,0.0,0.0,0.0,0.0,0.0,0.0,0.0,0.0,0.0,0.0,0.0,0.0,0.0,0.0,0.0,0.0,0.0,0.0,0.0,0.0,0.0,0.0,0.0,0.0,0.0,0.0,0.0,0.0,0.0,0.0,0.0,0.0,-1.1816,-1.1801,-1.1166,-1.091,-1.1134,0.0,0.0,0.0,0.0,0.0,0.0,0.0,0.0,0.0,0.0,0.0,0.0,0.0,0.0,0.0,0.0,0.0,0.0,0.0,0.0,0.0,0.0,0.0,0.0,0.0,0.0,0.0,0.0,0.0,0.0,0.0,0.0,0.0,0.0,0.0,0.0,0.0,0.0,0.0,0.0,0.0,0.0,0.0,0.0,0.0,0.0,0.0,0.0,0.0,0.0,0.0,0.0,0.0,0.0,0.0,0.0,0.0,0.0,0.0,0.0,0.0,0.0,0.0,0.0,0.0,0.0,0.0,0.0,0.0,0.0,0.0,0.0,0.0,0.0,0.0,0.0,0.0,0.0,0.0,0.0,0.0,0.0,0.0,0.0,0.0,0.0,0.0,0.0,0.0,0.0,0.0,0.0,0.0,0.0,0.0,0.0,0.0,0.0,0.0,0.0,0.0,0.0,0.0,0.0,0.0,0.0,0.0,0.0,0.0,0.0,0.0,0.0,-1.1749,-1.1553,-1.1703,0.0,0.0,0.0,0.0,0.0,0.0,0.0,0.0,0.0,0.0,0.0,0.0,0.0,0.0,0.0,0.0,0.0,0.0,0.0,0.0,0.0,0.0,0.0,0.0,0.0,0.0,0.0,0.0,0.0,0.0,0.0,0.0,0.0,0.0,0.0,0.0,0.0,0.0,0.0,0.0,0.0,0.0,0.0,0.0,0.0,0.0,0.0,0.0,0.0,0.0,0.0,0.0,0.0,0.0,0.0,0.0,0.0,0.0,0.0,0.0,0.0,0.0,0.0,0.0,0.0,0.0,0.0,0.0,0.0,0.0,0.0,0.0,0.0,0.0,0.0,0.0,0.0,0.0,0.0,0.0,0.0,0.0,0.0,0.0,0.0,0.0,0.0,0.0,0.0,0.0,0.0,0.0,0.0,0.0,0.0,0.0,0.0,0.0,0.0,0.0,0.0,0.0,0.0,0.0,0.0,0.0,0.0,0.0,0.0,0.0,-1.2388,-1.3573,-1.3528,0.0,-1.3533,0.0,0.0,0.0,0.0,0.0,0.0,0.0,0.0,0.0,0.0,0.0,0.0,0.0,0.0,0.0,0.0,0.0,0.0,0.0,0.0,0.0,0.0,0.0,0.0,0.0,0.0,0.0,0.0,0.0,0.0,0.0,0.0,0.0,0.0,0.0,0.0,0.0,0.0,0.0,0.0,0.0,0.0,0.0,0.0,0.0,0.0,0.0,0.0,0.0,0.0,0.0,0.0,0.0,0.0,0.0,0.0,0.0,0.0,0.0,0.0,0.0,0.0,0.0,0.0,0.0,0.0,0.0,0.0,0.0,0.0,0.0,0.0,0.0,0.0,0.0,0.0,0.0,0.0,0.0,0.0,0.0,0.0,0.0,0.0,0.0,0.0,0.0,0.0,0.0,0.0,0.0,0.0,0.0,0.0,0.0,0.0,0.0,0.0,0.0,0.0,0.0,0.0,0.0,0.0,0.0,0.0,0.0,0.0,0.0,0.0,0.0,-1.3782,-1.3421,-1.3208,0.0,0.0,0.0,0.0,0.0,0.0,0.0,0.0,0.0,0.0,0.0,0.0,0.0,0.0,0.0,0.0,0.0,0.0,0.0,0.0,0.0,0.0,0.0,0.0,0.0,0.0,0.0,0.0,0.0,0.0,0.0,0.0,0.0,0.0,0.0,0.0,0.0,0.0,0.0,0.0,0.0,0.0,0.0,0.0,0.0,0.0,0.0,0.0,0.0,0.0,0.0,0.0,0.0,0.0,0.0,0.0,0.0,0.0,0.0,0.0,0.0,0.0,0.0,0.0,0.0,0.0,0.0,0.0,0.0,0.0,0.0,0.0,0.0,0.0,0.0,0.0,0.0,0.0,0.0,0.0,0.0,0.0,0.0,0.0,0.0,0.0,0.0,0.0,0.0,0.0,0.0,0.0,0.0,0.0,0.0,0.0,0.0,0.0,0.0,0.0,0.0,0.0,0.0,0.0,0.0,0.0,0.0,0.0,0.0,0.0,-1.3582,0.0,-1.4303,-1.387,-1.337,-1.2816,0.0,0.0,0.0,0.0,0.0,0.0,0.0,0.0,0.0,0.0,0.0,0.0,0.0,0.0,0.0,0.0,0.0,0.0,0.0,0.0,0.0,0.0,0.0,0.0,0.0,0.0,0.0,0.0,0.0,0.0,0.0,0.0,0.0,0.0,0.0,0.0,0.0,0.0,0.0,0.0,0.0,0.0,0.0,0.0,0.0,0.0,0.0,0.0,0.0,0.0,0.0,0.0,0.0,0.0,0.0,0.0,0.0,0.0,0.0,0.0,0.0,0.0,0.0,0.0,0.0,0.0,0.0,0.0,0.0,0.0,0.0,0.0,0.0,0.0,0.0,0.0,0.0,0.0,0.0,0.0,0.0,0.0,0.0,0.0,0.0,0.0,0.0,0.0,0.0,0.0,0.0,0.0,0.0,0.0,0.0,0.0,0.0,0.0,0.0,0.0,0.0,0.0,0.0,0.0,0.0,0.0,0.0,0.0,0.0,-1.4633,-1.4676,-1.5692,-1.5664,-1.4764,0.0,0.0,0.0,0.0,0.0,0.0,0.0,0.0,0.0,0.0,0.0,0.0,0.0,0.0,0.0,0.0,0.0,0.0,0.0,0.0,0.0,0.0,0.0,0.0,0.0,0.0,0.0,0.0,0.0,0.0,0.0,0.0,0.0,0.0,0.0,0.0,0.0,0.0,0.0,0.0,0.0,0.0,0.0,0.0,0.0,0.0,0.0,0.0,0.0,0.0,0.0,0.0,0.0,0.0,0.0,0.0,0.0,0.0,0.0,0.0,0.0,0.0,0.0,0.0,0.0,0.0,0.0,0.0,0.0,0.0,0.0,0.0,0.0,0.0,0.0,0.0,0.0,0.0,0.0,0.0,0.0,0.0,0.0,0.0,0.0,0.0,0.0,0.0,0.0,0.0,0.0,0.0,0.0,0.0,0.0,0.0,0.0,0.0,0.0,0.0,0.0,0.0,0.0,0.0,0.0,0.0,0.0,0.0,0.0,-1.3691,-1.419,-1.5363,-1.709,-1.4834,-1.3467,0.0,0.0,0.0,0.0,0.0,0.0,0.0,0.0,0.0,0.0,0.0,0.0,0.0,0.0,0.0,0.0,0.0,0.0,0.0,0.0,0.0,0.0,0.0,0.0,0.0,0.0,0.0,0.0,0.0,0.0,0.0,0.0,0.0,0.0,0.0,0.0,0.0,0.0,0.0,0.0,0.0,0.0,0.0,0.0,0.0,0.0,0.0,0.0,0.0,0.0,0.0,0.0,0.0,0.0,0.0,0.0,0.0,0.0,0.0,0.0,0.0,0.0,0.0,0.0,0.0,0.0,0.0,0.0,0.0,0.0,0.0,0.0,0.0,0.0,0.0,0.0,0.0,0.0,0.0,0.0,0.0,0.0,0.0,0.0,0.0,0.0,0.0,0.0,0.0,0.0,0.0,0.0,0.0,0.0,0.0,0.0,0.0,0.0,0.0,0.0,0.0,0.0,0.0,0.0,0.0,0.0,0.0,0.0,0.0,-1.418,0.0,-1.6557,0.0,-1.4865,-1.3142,0.0,0.0,0.0,0.0,0.0,0.0,0.0,0.0,0.0,0.0,0.0,0.0,0.0,0.0,0.0,0.0,0.0,0.0,0.0,0.0,0.0,0.0,0.0,0.0,0.0,0.0,0.0,0.0,0.0,0.0,0.0,0.0,0.0,0.0,0.0,0.0,0.0,0.0,0.0,0.0,0.0,0.0,0.0,0.0,0.0,0.0,0.0,0.0,0.0,0.0,0.0,0.0,0.0,0.0,0.0,0.0,0.0,0.0,0.0,0.0,0.0,0.0,0.0,0.0,0.0,0.0,0.0,0.0,0.0,0.0,0.0,0.0,0.0,0.0,0.0,0.0,0.0,0.0,0.0,0.0,0.0,0.0,0.0,0.0,0.0,0.0,0.0,0.0,0.0,0.0,0.0,0.0,0.0,0.0,0.0,0.0,0.0,0.0,0.0,0.0,0.0,0.0,0.0,0.0,0.0,0.0,0.0,0.0,-1.509,-1.735,-1.8372,-1.8229,-1.6895,-1.6035,-1.4047,0.0,0.0,0.0,0.0,0.0,0.0,0.0,0.0,0.0,0.0,0.0,0.0,0.0,0.0,0.0,0.0,0.0,0.0,0.0,0.0,0.0,0.0,0.0,0.0,0.0,0.0,0.0,0.0,0.0,0.0,0.0,0.0,0.0,0.0,0.0,0.0,0.0,0.0,0.0,0.0,0.0,0.0,0.0,0.0,0.0,0.0,0.0,0.0,0.0,0.0,0.0,0.0,0.0,0.0,0.0,0.0,0.0,0.0,0.0,0.0,0.0,0.0,0.0,0.0,0.0,0.0,0.0,0.0,0.0,0.0,0.0,0.0,0.0,0.0,0.0,0.0,0.0,0.0,0.0,0.0,0.0,0.0,0.0,0.0,0.0,0.0,0.0,0.0,0.0,0.0,0.0,0.0,0.0,0.0,0.0,0.0,0.0,0.0,0.0,0.0,0.0,0.0,0.0,0.0,0.0,0.0,0.0,0.0,0.0,-1.6771,-1.7909,-1.865,-1.8831,-1.6155,-1.4527,0.0,0.0,0.0,0.0,0.0,0.0,0.0,0.0,0.0,0.0,0.0,0.0,0.0,0.0,0.0,0.0,0.0,0.0,0.0,0.0,0.0,0.0,0.0,0.0,0.0,0.0,0.0,0.0,0.0,0.0,0.0,0.0,0.0,0.0,0.0,0.0,0.0,0.0,0.0,0.0,0.0,0.0,0.0,0.0,0.0,0.0,0.0,0.0,0.0,0.0,0.0,0.0,0.0,0.0,0.0,0.0,0.0,0.0,0.0,0.0,0.0,0.0,0.0,0.0,0.0,0.0,0.0,0.0,0.0,0.0,0.0,0.0,0.0,0.0,0.0,0.0,0.0,0.0,0.0,0.0,0.0,0.0,0.0,0.0,0.0,0.0,0.0,0.0,0.0,0.0,0.0,0.0,0.0,0.0,0.0,0.0,0.0,0.0,0.0,0.0,0.0,0.0,0.0,0.0,0.0,0.0,0.0,0.0,0.0,-1.9334,-1.9751,-2.0166,-2.0553,-1.7304,-1.546,-1.5266,0.0,0.0,0.0,0.0,0.0,0.0,0.0,0.0,0.0,0.0,0.0,0.0,0.0,0.0,0.0,0.0,0.0,0.0,0.0,0.0,0.0,0.0,0.0,0.0,0.0,0.0,0.0,0.0,0.0,0.0,0.0,0.0,0.0,0.0,0.0,0.0,0.0,0.0,0.0,0.0,0.0,0.0,0.0,0.0,0.0,0.0,0.0,0.0,0.0,0.0,0.0,0.0,0.0,0.0,0.0,0.0,0.0,0.0,0.0,0.0,0.0,0.0,0.0,0.0,0.0,0.0,0.0,0.0,0.0,0.0,0.0,0.0,0.0,0.0,0.0,0.0,0.0,0.0,0.0,0.0,0.0,0.0,0.0,0.0,0.0,0.0,0.0,0.0,0.0,0.0,0.0,0.0,0.0,0.0,0.0,0.0,0.0,0.0,0.0,0.0,0.0,0.0,0.0,0.0,0.0,0.0,0.0,0.0,-2.43,-2.349,-2.2688,-2.1923,-1.9315,-1.6887,0.0,0.0,0.0,0.0,0.0,0.0,0.0,0.0,0.0,0.0,0.0,0.0,0.0,0.0,0.0,0.0,0.0,0.0,0.0,0.0,0.0,0.0,0.0,0.0,0.0,0.0,0.0,0.0,0.0,0.0,0.0,0.0,0.0,0.0,0.0,0.0,0.0,0.0,0.0,0.0,0.0,0.0,0.0,0.0,0.0,0.0,0.0,0.0,0.0,0.0,0.0,0.0,0.0,0.0,0.0,0.0,0.0,0.0,0.0,0.0,0.0,0.0,0.0,0.0,0.0,0.0,0.0,0.0,0.0,0.0,0.0,0.0,0.0,0.0,0.0,0.0,0.0,0.0,0.0,0.0,0.0,0.0,0.0,0.0,0.0,0.0,0.0,0.0,0.0,0.0,0.0,0.0,0.0,0.0,0.0,0.0,0.0,0.0,0.0,0.0,0.0,0.0,0.0,0.0,0.0,0.0,0.0,0.0,0.0,-2.5858,-2.6067,-2.5629,-2.4562,-2.1221,-1.8545,0.0,0.0,0.0,0.0,0.0,0.0,0.0,0.0,0.0,0.0,0.0,0.0,0.0,0.0,0.0,0.0,0.0,0.0,0.0,0.0,0.0,0.0,0.0,0.0,0.0,0.0,0.0,0.0,0.0,0.0,0.0,0.0,0.0,0.0,0.0,0.0,0.0,0.0,0.0,0.0,0.0,0.0,0.0,0.0,0.0,0.0,0.0,0.0,0.0,0.0,0.0,0.0,0.0,0.0,0.0,0.0,0.0,0.0,0.0,0.0,0.0,0.0,0.0,0.0,0.0,0.0,0.0,0.0,0.0,0.0,0.0,0.0,0.0,0.0,0.0,0.0,0.0,0.0,0.0,0.0,0.0,0.0,0.0,0.0,0.0,0.0,0.0,0.0,0.0,0.0,0.0,0.0,0.0,0.0,0.0,0.0,0.0,0.0,0.0,0.0,0.0,0.0,0.0,0.0,0.0,0.0,0.0,0.0,-2.5519,-2.7574,-2.8403,-2.8257,-2.7152,-2.3602,-2.0463,0.0,0.0,0.0,0.0,0.0,0.0,0.0,0.0,0.0,0.0,0.0,0.0,0.0,0.0,0.0,0.0,0.0,0.0,0.0,0.0,0.0,0.0,0.0,0.0,0.0,0.0,0.0,0.0,0.0,0.0,0.0,0.0,0.0,0.0,0.0,0.0,0.0,0.0,0.0,0.0,0.0,0.0,0.0,0.0,0.0,0.0,0.0,0.0,0.0,0.0,0.0,0.0,0.0,0.0,0.0,0.0,0.0,0.0,0.0,0.0,0.0,0.0,0.0,0.0,0.0,0.0,0.0,0.0,0.0,0.0,0.0,0.0,0.0,0.0,0.0,0.0,0.0,0.0,0.0,0.0,0.0,0.0,0.0,0.0,0.0,0.0,0.0,0.0,0.0,0.0,0.0,0.0,0.0,0.0,0.0,0.0,0.0,0.0,0.0,0.0,0.0,0.0,0.0,0.0,0.0,0.0,0.0,0.0,-2.7512,-2.9097,-3.0397,-3.048,-2.9173,-2.5893,-2.2352,0.0,0.0,0.0,0.0,0.0,0.0,0.0,0.0,0.0,0.0,0.0,0.0,0.0,0.0,0.0,0.0,0.0,0.0,0.0,0.0,0.0,0.0,0.0,0.0,0.0,0.0,0.0,0.0,0.0,0.0,0.0,0.0,0.0,0.0,0.0,0.0,0.0,0.0,0.0,0.0,0.0,0.0,0.0,0.0,0.0,0.0,0.0,0.0,0.0,0.0,0.0,0.0,0.0,0.0,0.0,0.0,0.0,0.0,0.0,0.0,0.0,0.0,0.0,0.0,0.0,0.0,0.0,0.0,0.0,0.0,0.0,0.0,0.0,0.0,0.0,0.0,0.0,0.0,0.0,0.0,0.0,0.0,0.0,0.0,0.0,0.0,0.0,0.0,0.0,0.0,0.0,0.0,0.0,0.0,0.0,0.0,0.0,0.0,0.0,0.0,0.0,0.0,0.0,0.0,0.0,0.0,0.0,0.0,-2.8319,-2.9922,-3.1437,-3.127,-2.924,-2.6448,-2.3062,0.0,0.0,0.0,0.0,0.0,0.0,0.0,0.0,0.0,0.0,0.0,0.0,0.0,0.0,0.0,0.0,0.0,0.0,0.0,0.0,0.0,0.0,0.0,0.0,0.0,0.0,0.0,0.0,0.0,0.0,0.0,0.0,0.0,0.0,0.0,0.0,0.0,0.0,0.0,0.0,0.0,0.0,0.0,0.0,0.0,0.0,0.0,0.0,-0.9193,0.0,0.0,0.0,0.0,0.0,0.0,0.0,0.0,0.0,0.0,0.0,0.0,0.0,0.0,0.0,0.0,0.0,0.0,0.0,0.0,0.0,0.0,0.0,0.0,0.0,0.0,0.0,0.0,0.0,0.0,0.0,0.0,0.0,0.0,0.0,0.0,0.0,0.0,0.0,0.0,0.0,0.0,0.0,0.0,0.0,0.0,0.0,0.0,0.0,0.0,0.0,0.0,0.0,0.0,0.0,0.0,0.0,0.0,0.0,-2.9145,-3.0723,-3.232,-3.2151,-3.004,-2.7773,-2.4431,0.0,0.0,0.0,0.0,0.0,0.0,0.0,0.0,0.0,0.0,0.0,0.0,0.0,0.0,0.0,0.0,0.0,0.0,0.0,0.0,0.0,0.0,0.0,0.0,0.0,0.0,0.0,0.0,0.0,0.0,0.0,0.0,0.0,0.0,0.0,0.0,0.0,0.0,0.0,0.0,0.0,0.0,0.0,0.0,0.0,0.0,0.0,0.0,0.0,0.0,0.0,0.0,0.0,0.0,0.0,0.0,0.0,0.0,0.0,0.0,0.0,0.0,0.0,0.0,0.0,0.0,0.0,0.0,0.0,0.0,0.0,0.0,0.0,0.0,0.0,0.0,0.0,0.0,0.0,0.0,0.0,0.0,0.0,0.0,0.0,0.0,0.0,0.0,0.0,0.0,0.0,0.0,0.0,0.0,0.0,0.0,0.0,0.0,0.0,0.0,0.0,0.0,0.0,0.0,0.0,0.0,0.0,-2.7024,-2.9732,-3.1531,-3.3036,-3.2889,-3.0952,-2.9195,-2.5939,-2.105,0.0,0.0,0.0,0.0,0.0,0.0,0.0,0.0,0.0,0.0,0.0,0.0,0.0,0.0,0.0,0.0,0.0,0.0,0.0,0.0,0.0,0.0,0.0,0.0,0.0,0.0,0.0,0.0,0.0,0.0,0.0,0.0,0.0,0.0,0.0,0.0,0.0,0.0,-1.1332,-1.2647,0.0,0.0,0.0,0.0,0.0,0.0,0.0,0.0,-1.0441,0.0,0.0,0.0,0.0,0.0,0.0,0.0,0.0,0.0,0.0,0.0,0.0,0.0,0.0,0.0,0.0,0.0,0.0,0.0,0.0,0.0,0.0,0.0,0.0,0.0,0.0,0.0,0.0,0.0,0.0,0.0,0.0,0.0,0.0,0.0,0.0,0.0,0.0,0.0,0.0,0.0,0.0,0.0,0.0,0.0,0.0,0.0,0.0,0.0,0.0,0.0,0.0,0.0,0.0,0.0,0.0,-2.5923,-2.7328,-2.9439,-3.2326,-3.3311,-3.2876,-3.0966,-2.9669,-2.6824,-2.2225,0.0,0.0,0.0,0.0,0.0,0.0,0.0,0.0,0.0,0.0,0.0,0.0,0.0,0.0,0.0,0.0,0.0,0.0,0.0,0.0,0.0,0.0,0.0,0.0,0.0,0.0,0.0,0.0,0.0,0.0,0.0,0.0,0.0,0.0,0.0,0.0,0.0,0.0,0.0,-1.501,-1.5597,0.0,0.0,0.0,0.0,0.0,0.0,0.0,0.0,-1.0944,0.0,0.0,0.0,0.0,0.0,0.0,0.0,0.0,0.0,0.0,0.0,0.0,0.0,0.0,0.0,0.0,0.0,0.0,0.0,0.0,0.0,0.0,0.0,0.0,0.0,0.0,0.0,0.0,0.0,0.0,0.0,0.0,0.0,0.0,0.0,0.0,0.0,0.0,0.0,0.0,0.0,0.0,0.0,0.0,0.0,0.0,0.0,0.0,0.0,0.0,0.0,0.0,0.0,0.0,0.0,-2.641,-2.8227,-3.0393,-3.3115,-3.3605,-3.297,-3.119,-2.9107,-2.6322,0.0,0.0,0.0,0.0,0.0,0.0,0.0,0.0,0.0,0.0,0.0,0.0,0.0,0.0,0.0,0.0,0.0,0.0,0.0,0.0,0.0,0.0,0.0,0.0,0.0,0.0,0.0,0.0,0.0,0.0,0.0,0.0,0.0,0.0,0.0,0.0,0.0,0.0,0.0,0.0,-1.6234,-1.6933,-1.7213,0.0,0.0,0.0,0.0,0.0,0.0,-1.3514,-1.2493,0.0,0.0,0.0,0.0,0.0,0.0,0.0,0.0,0.0,0.0,0.0,0.0,0.0,0.0,0.0,0.0,0.0,0.0,0.0,0.0,0.0,0.0,0.0,0.0,0.0,0.0,0.0,0.0,0.0,0.0,0.0,0.0,0.0,0.0,0.0,0.0,0.0,0.0,0.0,0.0,0.0,0.0,0.0,0.0,0.0,0.0,0.0,0.0,0.0,0.0,0.0,0.0,0.0,0.0,0.0,-2.6502,-2.8822,-3.1207,-3.366,-3.3807,-3.3036,-3.1421,-2.8776,-2.594,0.0,0.0,0.0,0.0,0.0,0.0,0.0,0.0,0.0,0.0,0.0,0.0,0.0,0.0,0.0,0.0,0.0,0.0,0.0,0.0,0.0,0.0,0.0,0.0,0.0,0.0,0.0,0.0,0.0,0.0,0.0,0.0,0.0,0.0,0.0,0.0,0.0,0.0,0.0,0.0,0.0,-1.8598,-1.8846,-1.7809,0.0,0.0,0.0,0.0,-1.6959,-1.5705,0.0,0.0,0.0,0.0,0.0,0.0,0.0,0.0,0.0,0.0,0.0,0.0,0.0,0.0,0.0,0.0,0.0,0.0,0.0,0.0,0.0,0.0,0.0,0.0,0.0,0.0,0.0,0.0,0.0,0.0,0.0,0.0,0.0,0.0,0.0,0.0,0.0,0.0,0.0,0.0,0.0,0.0,0.0,0.0,0.0,0.0,0.0,0.0,0.0,0.0,0.0,0.0,0.0,0.0,0.0,0.0,-2.6447,-2.8271,-3.0656,-3.3623,-3.3807,-3.3018,-3.1439,-2.9805,-2.69,0.0,0.0,0.0,0.0,0.0,0.0,0.0,0.0,0.0,0.0,0.0,0.0,0.0,0.0,0.0,0.0,0.0,0.0,0.0,0.0,0.0,0.0,0.0,0.0,0.0,0.0,0.0,0.0,0.0,0.0,0.0,0.0,0.0,0.0,0.0,0.0,0.0,0.0,0.0,0.0,0.0,-2.1597,-2.0065,-1.9731,-1.9912,0.0,0.0,-1.88,-2.046,-1.9194,0.0,0.0,0.0,0.0,0.0,0.0,0.0,0.0,0.0,0.0,0.0,0.0,0.0,0.0,0.0,0.0,0.0,0.0,0.0,0.0,0.0,0.0,0.0,0.0,0.0,0.0,0.0,0.0,0.0,0.0,0.0,0.0,0.0,0.0,0.0,0.0,0.0,0.0,0.0,0.0,0.0,0.0,0.0,0.0,0.0,0.0,0.0,0.0,0.0,0.0,0.0,0.0,0.0,0.0,0.0,-2.2657,-2.651,-2.9072,-3.1476,-3.3697,-3.3807,-3.3036,-3.1433,-2.9111,-2.6357,0.0,0.0,0.0,0.0,0.0,0.0,0.0,0.0,0.0,0.0,0.0,0.0,0.0,0.0,0.0,0.0,0.0,0.0,0.0,0.0,0.0,0.0,0.0,0.0,0.0,0.0,0.0,0.0,0.0,0.0,0.0,0.0,0.0,0.0,0.0,0.0,0.0,0.0,0.0,0.0,0.0,0.0,-2.1152,-2.1156,0.0,0.0,0.0,-2.0964,-2.1991,0.0,0.0,0.0,0.0,0.0,0.0,0.0,0.0,0.0,0.0,0.0,0.0,0.0,0.0,0.0,0.0,0.0,0.0,0.0,0.0,0.0,0.0,0.0,0.0,0.0,0.0,0.0,0.0,0.0,0.0,0.0,0.0,0.0,0.0,0.0,0.0,0.0,0.0,0.0,0.0,0.0,0.0,0.0,0.0,0.0,0.0,0.0,0.0,0.0,0.0,0.0,0.0,0.0,0.0,0.0,0.0,0.0,-2.6576,-2.9769,-3.2192,-3.3733,-3.3807,-3.3018,-3.1421,-2.8732,0.0,0.0,0.0,0.0,0.0,0.0,0.0,0.0,0.0,0.0,0.0,0.0,0.0,0.0,0.0,0.0,0.0,0.0,0.0,0.0,0.0,0.0,0.0,0.0,0.0,0.0,0.0,-0.7598,0.0,0.0,0.0,0.0,0.0,0.0,0.0,0.0,0.0,0.0,0.0,0.0,0.0,0.0,-2.1446,-2.1923,-2.2231,-2.25,0.0,0.0,-2.2635,-2.3331,-2.2175,-2.0684,0.0,0.0,0.0,0.0,0.0,0.0,0.0,0.0,0.0,0.0,0.0,0.0,0.0,0.0,0.0,0.0,0.0,0.0,0.0,0.0,0.0,0.0,0.0,0.0,0.0,0.0,0.0,0.0,0.0,0.0,0.0,0.0,0.0,0.0,0.0,0.0,0.0,0.0,0.0,0.0,0.0,0.0,0.0,0.0,0.0,0.0,0.0,0.0,0.0,0.0,0.0,0.0,0.0,0.0,0.0,-2.6594,-2.9769,-3.2173,-3.3733,-3.3807,-3.3036,-3.1421,-2.9446,-2.6796,0.0,0.0,0.0,0.0,0.0,0.0,0.0,0.0,0.0,0.0,0.0,0.0,0.0,0.0,0.0,0.0,0.0,0.0,0.0,0.0,0.0,0.0,0.0,0.0,0.0,0.0,0.0,0.0,0.0,0.0,0.0,0.0,0.0,0.0,0.0,0.0,0.0,0.0,0.0,0.0,0.0,-2.3394,-2.2177,-2.2846,-2.3861,0.0,0.0,-2.3885,-2.4942,-2.4848,-2.3593,-2.0499,0.0,0.0,0.0,0.0,0.0,0.0,0.0,0.0,0.0,0.0,0.0,0.0,0.0,0.0,0.0,0.0,0.0,0.0,0.0,0.0,0.0,0.0,0.0,0.0,0.0,0.0,0.0,0.0,0.0,0.0,0.0,0.0,0.0,0.0,0.0,0.0,0.0,0.0,0.0,0.0,0.0,0.0,0.0,0.0,0.0,0.0,0.0,0.0,0.0,0.0,0.0,0.0,0.0,-2.3391,-2.6594,-2.9769,-3.2155,-3.3733,-3.3807,-3.3031,-3.1452,-2.9501,-2.7194,0.0,0.0,0.0,0.0,0.0,0.0,0.0,0.0,0.0,0.0,0.0,0.0,0.0,0.0,0.0,0.0,0.0,0.0,0.0,0.0,0.0,0.0,0.0,0.0,0.0,0.0,0.0,0.0,-1.0395,-1.061,-1.0476,0.0,0.0,0.0,0.0,0.0,0.0,0.0,0.0,0.0,0.0,-2.3471,-2.3962,-2.438,0.0,0.0,-2.4923,-2.4788,-2.5231,-2.4304,-2.2909,-2.1187,-1.9615,0.0,0.0,0.0,0.0,0.0,0.0,0.0,0.0,0.0,0.0,0.0,0.0,0.0,0.0,0.0,0.0,0.0,0.0,0.0,0.0,0.0,0.0,0.0,0.0,0.0,0.0,0.0,0.0,0.0,0.0,0.0,0.0,0.0,0.0,0.0,0.0,0.0,0.0,0.0,0.0,0.0,0.0,0.0,0.0,0.0,0.0,0.0,0.0,0.0,0.0,0.0,0.0,-2.3502,-2.6924,-2.9879,-3.2173,-3.3752,-3.3807,-3.3146,-3.1788,-2.9971,-2.7894,0.0,0.0,0.0,0.0,0.0,0.0,0.0,0.0,0.0,0.0,0.0,0.0,0.0,0.0,0.0,0.0,0.0,0.0,0.0,0.0,0.0,0.0,0.0,0.0,0.0,0.0,0.0,0.0,-1.154,-1.143,-1.0641,0.0,0.0,0.0,0.0,0.0,0.0,0.0,0.0,0.0,0.0,-2.3701,-2.5096,-2.5308,-2.5308,-2.5308,-2.5308,-2.5308,-2.5308,-2.4244,-2.3049,-2.1981,0.0,0.0,0.0,0.0,0.0,0.0,0.0,0.0,0.0,0.0,0.0,0.0,0.0,0.0,0.0,0.0,0.0,0.0,0.0,0.0,0.0,0.0,0.0,0.0,0.0,0.0,0.0,0.0,0.0,0.0,-1.5547,0.0,0.0,0.0,0.0,0.0,0.0,0.0,0.0,0.0,0.0,0.0,0.0,0.0,0.0,0.0,0.0,0.0,0.0,0.0,0.0,0.0,0.0,-2.3777,-2.7725,-3.0148,-3.2173,-3.3733,-3.3807,-3.3403,-3.2546,-3.1005,-2.9023,-2.6536,0.0,0.0,0.0,0.0,0.0,0.0,0.0,0.0,0.0,0.0,0.0,0.0,0.0,0.0,0.0,0.0,0.0,0.0,0.0,0.0,0.0,0.0,0.0,0.0,0.0,0.0,-1.2008,-1.1393,-1.0663,0.0,0.0,0.0,0.0,0.0,0.0,0.0,0.0,0.0,0.0,-2.3528,-2.4356,-2.5192,-2.5308,-2.5365,-2.5346,-2.5365,-2.5327,-2.5327,-2.5264,-2.4673,0.0,0.0,0.0,0.0,0.0,0.0,0.0,0.0,0.0,0.0,0.0,0.0,0.0,0.0,0.0,0.0,0.0,0.0,0.0,0.0,0.0,0.0,0.0,0.0,0.0,0.0,0.0,-2.2058,-2.1138,0.0,0.0,0.0,0.0,0.0,0.0,0.0,0.0,0.0,0.0,0.0,-2.7997,-2.751,0.0,0.0,0.0,0.0,0.0,0.0,0.0,0.0,0.0,0.0,0.0,0.0,-2.4318,-2.7714,-3.0185,-3.2173,-3.3752,-3.3807,-3.3403,-3.2619,-3.1023,-2.8319,-2.4327,0.0,0.0,0.0,0.0,0.0,0.0,0.0,0.0,0.0,0.0,0.0,0.0,0.0,0.0,0.0,0.0,0.0,0.0,0.0,0.0,0.0,0.0,0.0,0.0,0.0,-1.2017,0.0,0.0,0.0,0.0,0.0,0.0,0.0,0.0,0.0,0.0,0.0,-2.2051,-2.3475,-2.4375,-2.5216,-2.6043,-2.6327,-2.6558,0.0,0.0,0.0,0.0,0.0,0.0,0.0,0.0,0.0,0.0,0.0,0.0,0.0,0.0,-2.1598,-1.8134,-1.707,-1.6827,-1.7075,0.0,0.0,0.0,0.0,0.0,0.0,0.0,0.0,0.0,0.0,0.0,0.0,0.0,0.0,-2.6021,0.0,-2.4024,0.0,0.0,0.0,0.0,0.0,0.0,0.0,0.0,-2.7414,-2.9259,-3.1403,-3.0913,-3.0528,0.0,-2.8925,-2.6028,0.0,0.0,0.0,0.0,0.0,0.0,0.0,0.0,-2.5419,-2.8558,-3.0723,-3.2449,-3.3733,-3.3807,-3.355,-3.3018,-3.1182,-2.8319,-2.4382,-2.3115,-2.1343,0.0,0.0,0.0,0.0,0.0,0.0,0.0,0.0,0.0,0.0,0.0,0.0,0.0,0.0,0.0,0.0,0.0,0.0,0.0,0.0,0.0,0.0,0.0,-1.3458,0.0,0.0,0.0,0.0,0.0,0.0,0.0,0.0,0.0,-1.8965,-2.169,-2.3985,-2.4856,-2.5697,-2.6404,-2.6986,0.0,0.0,0.0,0.0,0.0,0.0,0.0,-2.6192,-2.6197,-2.5774,-2.5491,-2.5712,-2.6,-2.5923,-2.5106,0.0,0.0,-2.0943,-1.9769,-1.9487,-1.9794,-1.9423,-1.9104,-1.9411,-1.9488,-1.9469,0.0,0.0,0.0,0.0,0.0,0.0,0.0,0.0,-2.9538,-2.9669,0.0,-2.8299,0.0,0.0,0.0,0.0,0.0,0.0,0.0,0.0,-3.2486,-3.3825,-3.3917,-3.3862,-3.3476,-3.2834,-3.3403,-3.2137,-2.8938,-2.3611,0.0,0.0,0.0,0.0,0.0,0.0,-2.7045,-3.0136,-3.1775,-3.2981,-3.377,-3.3807,-3.377,-3.3678,-3.1476,-2.9108,-2.6767,-2.5126,-2.3116,-2.0632,-1.8732,0.0,0.0,0.0,0.0,0.0,0.0,0.0,0.0,0.0,0.0,0.0,0.0,0.0,0.0,0.0,0.0,0.0,0.0,0.0,0.0,-1.4786,0.0,0.0,0.0,0.0,0.0,0.0,0.0,0.0,0.0,0.0,-2.1692,-2.3808,-2.5654,-2.6524,0.0,0.0,0.0,0.0,-2.7967,-2.8063,-2.8025,-2.8068,-2.8044,-2.803,-2.8011,-2.7967,0.0,0.0,-2.6832,-2.7371,-2.7621,-2.6794,-2.7255,-2.7351,-2.561,-2.3899,-2.312,-2.3798,-2.2658,-2.1985,-2.2624,-2.2701,-2.274,-3.7753,0.0,0.0,0.0,0.0,-3.384,-3.4989,-3.7137,-3.6226,-3.5352,-3.4582,-3.3286,0.0,0.0,0.0,0.0,0.0,0.0,-3.1414,-3.265,-3.3468,-3.4724,-3.6409,-3.5844,-3.5752,-3.6046,-3.5114,-3.4179,-3.3151,-2.9916,-2.6245,-2.2364,0.0,0.0,0.0,0.0,-2.8411,-3.0956,-3.2069,-3.2999,-3.377,-3.3807,-3.3532,-3.2963,-3.1715,-3.0191,-2.8363,-2.6778,-2.5061,-2.3189,-2.1361,0.0,0.0,0.0,0.0,0.0,0.0,0.0,0.0,0.0,0.0,0.0,0.0,0.0,0.0,0.0,0.0,0.0,0.0,0.0,-1.4823,-1.5523,-1.5947,0.0,0.0,0.0,0.0,0.0,0.0,0.0,0.0,0.0,-2.4986,-2.5755,-2.6544,0.0,0.0,-2.8126,-2.8684,-2.8761,-2.9204,-3.0429,0.0,0.0,0.0,-3.0602,-3.039,-2.9788,-2.9692,-2.939,-2.853,-2.8588,-2.8492,-2.7678,-2.7717,-2.7717,-2.7236,-2.6274,-2.5428,-2.5024,-2.4519,-2.4269,-2.4524,-2.4577,-2.4558,-4.2526,-3.8728,-3.7279,-3.7459,-3.8579,-3.7774,-3.8728,-4.0763,-3.9643,-3.8982,-3.8597,-3.7459,-3.5408,-3.2766,-3.1311,0.0,0.0,0.0,-3.4683,-3.6229,-3.6229,-3.7184,-3.8799,-3.8117,-3.7973,-3.8374,-3.678,-3.6009,-3.5973,-3.4211,-3.1311,-2.7383,0.0,0.0,-2.6631,-2.8349,-3.0099,-3.1825,-3.2669,-3.333,-3.3788,-3.3807,-3.3256,-3.2155,-3.1672,-3.065,-2.906,-2.7769,-2.6484,-2.5199,-2.3403,-2.0953,0.0,0.0,0.0,0.0,0.0,0.0,0.0,0.0,0.0,0.0,0.0,-1.2073,-1.1218,0.0,0.0,0.0,-1.382,-1.5203,-1.6965,-1.7482,0.0,0.0,0.0,0.0,0.0,0.0,0.0,-2.7365,-2.6549,-2.6241,-2.7871,-2.8121,-2.8308,-2.8813,-2.9448,-3.0063,-3.0525,0.0,-3.0987,-3.2025,-3.2179,-3.2179,-3.2179,-3.2179,-3.1981,-3.1487,-3.1096,-3.0769,-3.0237,-2.9871,-2.9448,-2.9025,-2.889,-2.8775,-2.8429,-2.7934,-2.7332,-2.6505,-2.6327,-2.6231,-2.5904,-2.5827,-2.5712,-4.6324,-4.4819,-4.2581,-4.1956,-4.2323,-4.159,-4.1701,-4.2268,-4.0818,-4.0965,-4.2158,-4.0744,-3.9606,-3.8652,-3.6399,0.0,-3.6615,-3.7437,-3.8557,-3.9974,-3.9992,-4.0396,-4.104,-4.0322,-3.9955,-3.9863,-3.8392,-3.7658,-3.7547,-3.6776,-3.5605,-3.4045,-3.1078,-2.9849,-3.0411,-3.1182,-3.1953,-3.2674,-3.3421,-3.3807,-3.3807,-3.3807,-3.3067,-3.1562,-3.1433,-3.065,-2.9078,-2.8172,-2.7339,-2.651,-2.4796,-2.246,-1.9486,0.0,0.0,0.0,0.0,0.0,0.0,0.0,0.0,0.0,0.0,0.0,0.0,0.0,0.0,0.0,-1.7289,0.0,-1.9407,-2.0105,0.0,0.0,0.0,-2.0076,-1.9763,-2.2525,-2.5417,-2.7928,0.0,0.0,-3.0361,0.0,-3.0712,-3.0712,-3.1987,-3.2891,-3.2891,-3.2814,-3.291,-3.2987,-3.2987,-3.3026,-3.316,-3.3103,-3.3006,-3.291,-3.2333,-3.1775,-3.1602,-3.1019,-3.0558,-3.0288,-3.0385,-3.0135,-2.9338,-2.9165,-2.8986,-2.8222,-2.7953,-2.7621,-2.689,-2.6697,-2.6467,-4.781,-4.7407,-4.6838,-4.5296,-4.3222,-4.3002,-4.3039,-4.3185,-4.2817,-4.2525,-4.2268,-4.1901,-4.0946,-3.957,-3.9001,-3.8854,-3.9093,-3.9882,-4.0469,-4.0818,-4.0836,-4.0912,-4.1077,-4.0893,-4.0487,-3.99,-3.9512,-3.9019,-3.8395,-3.7603,-3.7015,-3.6574,-3.5238,-3.3715,-3.2124,-3.2834,-3.3311,-3.3495,-3.3697,-3.3807,-3.3807,-3.3807,-3.333,-3.2339,-3.1715,-3.065,-2.906,-2.7629,-2.6521,-2.5723,-2.4682,-2.3216,-2.1256,-1.8736,0.0,0.0,0.0,0.0,0.0,0.0,0.0,0.0,0.0,-1.6568,-1.3537,0.0,-1.7326,0.0,-1.8445,-1.9609,-2.105,-2.092,0.0,0.0,-2.3504,-2.358,-2.3528,-2.58,-2.8335,-3.0808,-3.0753,-3.0858,-3.1878,-3.2748,-3.3301,-3.3282,-3.3045,-3.2891,-3.2891,-3.2891,-3.3141,-3.3763,-3.3891,-3.4122,-3.4641,-3.4314,-3.3891,-3.3891,-3.3179,-3.241,-3.1814,-3.1558,-3.1198,-3.0558,-3.0404,-3.0308,-3.0096,-3.0083,-3.0019,-2.9769,-2.8813,-2.7838,-2.7626,-2.7582,-2.7332,-4.8085,-4.7755,-4.7792,-4.6544,-4.4544,-4.458,-4.458,-4.4507,-4.3809,-4.3258,-4.2837,-4.2837,-4.2323,-4.1515,-4.1513,-4.1513,-4.1534,-4.1717,-4.1935,-4.2159,-4.1918,-4.1953,-4.2158,-4.1809,-4.1252,-4.0555,-4.0115,-3.953,-3.8824,-3.8303,-3.8043,-3.8043,-3.7569,-3.6505,-3.4871,-3.4871,-3.4724,-3.4325,-3.399,-3.3807,-3.3807,-3.3807,-3.3256,-3.2118,-3.1623,-3.0479,-2.8539,-2.7603,-2.6612,-2.5448,-2.497,-2.4016,-2.2391,-2.055,-1.8992,0.0,0.0,0.0,0.0,0.0,0.0,0.0,0.0,0.0,0.0,0.0,-1.9318,0.0,-2.0803,-2.2014,-2.3272,-2.3381,-2.3906,-2.5154,-2.5875,-2.6437,-2.6862,-2.8566,-3.037,-3.2152,-3.2067,-3.2105,-3.2838,-3.3562,-3.417,-3.456,-3.4299,-3.4064,-3.4045,-3.4058,-3.4237,-3.4699,-3.4776,-3.493,-3.5442,-3.5096,-3.4776,-3.4699,-3.4045,-3.3314,-3.2891,-3.2487,-3.1948,-3.1173,-3.0981,-3.0846,-3.0481,-3.0404,-3.0404,-3.0288,-2.9679,-2.8948,-2.8511,-2.8434,-2.8184,-4.7902,-4.7259,-4.7241,-4.6856,-4.6195,-4.6085,-4.5957,-4.5645,-4.414,-4.3479,-4.3479,-4.3479,-4.3479,-4.3479,-4.3479,-4.348,-4.3375,-4.292,-4.292,-4.3232,-4.2865,-4.2958,-4.3355,-4.2746,-4.2101,-4.1359,-4.0493,-3.9694,-3.9013,-3.8782,-3.8707,-3.8707,-3.8707,-3.8358,-3.7658,-3.696,-3.6083,-3.5023,-3.4321,-3.3899,-3.3807,-3.3807,-3.3036,-3.1507,-3.1305,-3.0111,-2.7787,-2.7622,-2.6943,-2.5495,-2.5384,-2.4768,-2.3373,-2.2318,-2.1047,0.0,-1.8663,0.0,0.0,0.0,0.0,0.0,0.0,0.0,0.0,-2.1043,-2.1565,-2.2198,-2.363,-2.4832,-2.5642,-2.6337,-2.6851,-2.7053,-2.7892,-2.8769,-2.966,-3.0779,-3.1889,-3.2847,-3.2808,-3.2927,-3.3428,-3.3742,-3.4243,-3.4931,-3.5201,-3.5285,-3.5455,-3.5385,-3.5385,-3.55,-3.55,-3.5423,-3.5481,-3.5481,-3.5442,-3.5385,-3.4872,-3.4334,-3.4129,-3.3506,-3.2756,-3.2058,-3.1775,-3.1462,-3.0692,-3.0577,-3.0538,-3.0442,-3.0308,-3.0038,-2.9467,-2.928,-2.8986,-4.8214,-4.8067,-4.8086,-4.7994,-4.7792,-4.7149,-4.6122,-4.4874,-4.392,-4.3479,-4.3479,-4.3479,-4.3479,-4.3479,-4.3479,-4.3249,-4.2864,-4.275,-4.25,-4.2144,-4.2519,-4.275,-4.2865,-4.3139,-4.2612,-4.1431,-4.1024,-4.0223,-3.9013,-3.8782,-3.8707,-3.8707,-3.8707,-3.8615,-3.8469,0.0,0.0,0.0,-3.4857,-3.4454,-3.3844,-3.3807,-3.3036,-3.147,-3.0779,0.0,-2.6998,-2.6833,-2.6392,-2.5448,-2.5384,0.0,0.0,0.0,0.0,0.0,0.0,0.0,0.0,0.0,0.0,0.0,-2.3942,-2.3336,-2.1794,-2.3951,-2.5236,-2.4805,-2.5585,-2.6465,-2.7255,-2.7475,-2.8099,-2.9359,-2.9865,-3.0378,-3.1001,-3.2002,-3.3098,-3.417,-3.4065,-3.3908,-3.4005,-3.4327,-3.4652,-3.4987,-3.5138,-3.5273,-3.5479,-3.5512,-3.55,-3.55,-3.55,-3.55,-3.55,-3.55,-3.55,-3.5462,-3.5404,-3.4988,-3.4372,-3.3968,-3.3442,-3.2776,-3.2333,-3.1962,-3.1519,-3.1468,-3.1192,-3.0538,-3.0404,-3.0365,-3.0192,-3.0135,-2.9904,-4.8691,0.0,-4.8324,-4.8324,0.0,-4.7424,-4.6636,-4.5792,-4.4617,-4.3864,-4.3479,-4.3479,-4.3479,-4.3479,-4.3479,-4.3339,-4.3087,-4.2519,-4.2262,-4.2223,-4.1937,-4.2121,-4.2693,-4.2657,-4.2441,-4.2026,-4.1488,-4.069,-3.9626,-3.94,-3.9093,-3.8707,-3.8707,-3.8707,-3.8707,-3.8707,-3.79,-3.6248,-3.5426,-3.4802,-3.4399,-3.4009,-3.3238,-3.2045,0.0,0.0,0.0,0.0,0.0,0.0,0.0,0.0,0.0,0.0,0.0,-2.4009,-2.325,-2.3169,-2.3926,-2.4114,-2.4713,-2.5897,-2.6741,-2.6337,-2.4337,-2.6043,-2.7181,-2.72,-2.7915,-2.8705,-2.9487,-2.9579,-2.9898,-3.0699,-3.1279,-3.1654,-3.1869,-3.2864,-3.3766,-3.4144,-3.4218,-3.4159,-3.4018,-3.4253,-3.4489,-3.4694,-3.5267,-3.573,-3.5825,-3.5674,-3.55,-3.55,-3.55,-3.55,-3.55,-3.55,-3.55,-3.55,-3.55,-3.5308,-3.493,-3.475,-3.4385,-3.3603,-3.3558,-3.3596,-3.2827,-3.2218,-3.1564,-3.1115,-3.0692,-3.0423,-3.0404,-3.0404,-3.0288,-4.9169,-4.8526,-4.8379,-4.8324,-4.8269,-4.759,-4.7149,-4.6782,0.0,0.0,0.0,-4.3479,-4.3479,-4.3479,-4.3479,-4.3463,-4.3286,-4.2266,-4.2018,-4.2342,-4.1358,-4.149,-4.25,-4.2021,-4.2121,-4.2638,-4.1808,-4.105,-4.0401,-4.0075,-3.9551,-3.8964,-3.8762,-3.8707,-3.8707,-3.8707,-3.8377,-3.7694,-3.6229,-3.5298,-3.5004,-3.4344,-3.3568,-3.2619,-3.1825,-3.0723,-2.9262,-2.8576,-2.7915,-2.7262,-2.7108,-2.7079,-2.7207,-2.6979,-2.6859,-2.7034,-2.7005,-2.7079,-2.7236,-2.7236,-2.7299,-2.7438,-2.8675,-2.8803,-2.7336,-2.797,-2.8705,-2.9354,-3.0026,-3.0723,-3.1544,-3.1604,-3.1659,-3.1801,-3.2412,-3.2724,-3.2585,-3.3426,-3.4025,-3.3881,-3.3999,-3.4056,-3.3855,-3.4147,-3.4363,-3.4582,-3.5568,-3.6425,-3.6457,-3.6286,-3.6019,-3.5827,-3.5827,-3.5712,-3.5519,-3.55,-3.55,-3.55,-3.55,-3.55,-3.55,-3.55,-3.5115,-3.4327,-3.4923,-3.4942,-3.4231,-3.3103,-3.2083,-3.1756,-3.1135,-3.0577,-3.0423,-3.0404,-3.0385,-4.9537,-4.9353,-4.8618,-4.8324,-4.8287,-4.8177,-4.7352,-4.6012,-4.5094,-4.425,-4.3479,-4.3479,-4.3479,-4.3479,-4.3479,-4.3268,-4.277,-4.2101,-4.1595,0.0,-4.0972,-4.1251,-4.1916,-4.1835,-4.2121,-4.26,-4.1826,-4.1357,-4.1142,-4.0347,-3.9827,-3.9643,-3.9038,-3.8692,-3.8707,-3.8707,-3.8652,-3.8524,-3.7606,-3.645,-3.5059,-3.4894,-3.4105,-3.2656,-3.1843,-3.098,-3.0081,-2.9916,-2.9806,-2.9696,-2.9042,-2.8987,-2.9604,-2.8393,-2.7934,-2.8601,-2.8675,-2.8968,-2.9641,-2.9696,-2.9989,-3.0662,-3.0956,-3.0668,-2.9824,-3.043,-3.0956,-3.1085,-3.1182,-3.1549,-3.2307,-3.2436,-3.2687,-3.3311,-3.3532,-3.3623,-3.3568,-3.375,-3.3947,-3.3967,-3.3847,-3.3923,-3.4017,-3.4504,-3.5019,-3.5355,-3.6128,-3.684,-3.731,-3.7523,-3.73,-3.6731,-3.6538,-3.625,-3.5846,-3.5538,-3.5615,-3.55,-3.5558,-3.5558,-3.55,-3.55,-3.5404,-3.525,-3.5346,-3.5365,-3.5154,-3.4526,-3.334,-3.2199,-3.1679,-3.1327,-3.0731,-3.0538,-3.0462,-5.0014,-4.9519,-4.8673,-4.8324,-4.8324,-4.8324,-4.7645,-4.6507,-4.57,-4.4635,-4.3534,-4.3479,-4.3479,-4.3479,-4.3479,-4.3375,-4.3124,-4.2541,-4.1958,-4.1424,-4.138,-4.1358,-4.1296,-4.1313,-4.181,-4.2599,-4.1966,-4.171,-4.1813,-4.1397,-4.063,-3.9483,-3.8665,-3.8417,-3.8673,-3.8707,-3.8707,-3.8689,-3.79,-3.7125,-3.6376,-3.5481,-3.4637,-3.3922,-3.2724,-3.188,-3.1513,-3.1072,-3.0852,-3.0834,-3.0503,-3.0467,-3.0797,-3.0148,-2.9916,-3.0283,-3.032,-3.0467,-3.0815,-3.0852,-3.1182,-3.1971,-3.2045,-3.21,-3.2155,-3.2082,-3.2045,-3.2063,-3.243,-3.2852,-3.322,-3.3243,-3.3403,-3.3752,-3.3807,-3.4064,-3.4578,-3.4559,-3.4761,-3.5404,-3.533,-3.5165,-3.5147,-3.5477,-3.574,-3.5987,-3.674,-3.7617,-3.8475,-3.8735,-3.8525,-3.7621,-3.7411,-3.7276,-3.6904,-3.6853,-3.6654,-3.625,-3.6154,-3.5962,-3.5635,-3.55,-3.55,-3.55,-3.55,-3.55,-3.5481,-3.4795,-3.391,-3.3397,-3.2622,-3.2199,-3.1808,-3.1442,-3.0962,-5.0435,-4.9794,-4.8746,-4.8324,-4.8324,-4.8324,-4.7846,-4.7058,-4.6434,-4.5259,-4.3864,-4.3589,-4.3479,-4.3479,-4.3479,-4.3479,-4.3427,-4.2939,-4.2442,-4.2021,-4.1856,-4.1556,-4.111,-4.0972,-4.1468,-4.2342,-4.2,-4.202,-4.2338,-4.2345,-4.1206,-3.9244,-3.841,-3.8216,-3.8496,-3.8643,-3.8707,-3.867,-3.8083,-3.7676,-3.7456,-3.6211,-3.5389,-3.4931,-3.3793,-3.306,-3.2871,-3.2265,-3.1947,-3.1947,-3.177,-3.1764,-3.1898,-3.1751,-3.1751,-3.1916,-3.1929,-3.1947,-3.1947,-3.1947,-3.2192,-3.2803,-3.2858,-3.3146,-3.366,-3.3238,-3.2858,-3.2931,-3.3403,-3.3825,-3.4027,-3.4069,-3.4137,-3.4321,-3.4357,-3.4761,-3.5477,-3.544,-3.5665,-3.6688,-3.6541,-3.6248,-3.6321,-3.645,-3.6666,-3.6967,-3.7567,-3.8441,-3.9289,-3.9493,-3.9118,-3.8621,-3.8265,-3.807,-3.8043,-3.793,-3.7642,-3.7058,-3.7,-3.6654,-3.6077,-3.5692,-3.55,-3.55,-3.55,-3.55,-3.5442,-3.5007,-3.4468,-3.409,-3.3564,-3.3122,-3.2776,-3.2352,-3.1583,-5.0765,-5.0453,-4.8985,-4.8324,-4.8324,-4.8324,-4.7865,-4.7168,-4.7021,-4.6085,-4.4599,-4.3828,-4.3497,-4.3479,-4.3479,-4.3479,-4.3444,-4.2939,-4.2655,-4.2537,-4.2059,-4.175,-4.1599,-4.1138,-4.1246,-4.1832,-4.1814,-4.2088,-4.2608,-4.2374,-4.1187,-3.9279,-3.8765,-3.8385,-3.8099,-3.8465,-3.8707,-3.8707,-3.8634,-3.823,-3.7547,-3.7364,-3.6541,-3.5041,-3.4876,-3.4417,-3.3715,-3.3623,-3.3568,-3.3513,-3.2852,-3.2803,-3.3385,-3.2889,-3.2816,-3.3476,-3.355,-3.3568,-3.355,-3.3587,-3.3568,-3.3678,-3.3678,-3.3733,-3.3825,-3.377,-3.3697,-3.377,-3.3788,-3.4142,-3.4784,-3.4894,-3.5151,-3.5752,-3.5881,-3.6119,-3.6193,-3.6193,-3.6248,-3.634,-3.6541,-3.6303,-3.6541,-3.7015,-3.7658,-3.8157,-3.8345,-3.8652,-3.9048,-3.9186,-3.9277,-3.9271,-3.9067,-3.8579,-3.8258,-3.8019,-3.8062,-3.7916,-3.7873,-3.7507,-3.6815,-3.6,-3.5519,-3.5712,-3.55,-3.55,-3.55,-3.5365,-3.5084,-3.4564,-3.416,-3.3853,-3.3179,-3.2852,-3.2237,-5.1224,-5.071,-4.9554,-4.8765,-4.8343,-4.8324,-4.8122,-4.7773,-4.7296,-4.6452,-4.5388,-4.4562,-4.3956,-4.3497,-4.3479,-4.3479,-4.3479,-4.3268,-4.2995,-4.2693,-4.244,-4.1976,-4.1291,-4.1041,-4.1041,-4.1291,-4.1621,-4.2121,-4.2452,-4.1788,-4.0815,-3.9806,-3.8941,-3.8276,-3.7983,-3.8433,-3.8707,-3.8707,-3.8707,-3.8524,-3.8193,-3.7749,-3.7199,-3.6468,-3.5536,-3.4876,-3.4491,-3.4064,-3.3807,-3.3788,-3.3495,-3.3458,-3.377,-3.3495,-3.3458,-3.3788,-3.3807,-3.3807,-3.3807,-3.3807,-3.3807,-3.3807,-3.4234,-3.4509,-3.4527,-3.4981,-3.5275,-3.522,-3.4816,-3.4839,-3.5642,-3.5771,-3.5917,-3.6229,-3.6285,-3.6486,-3.6978,-3.6997,-3.7147,-3.7606,-3.7734,-3.7698,-3.7753,-3.7991,-3.8322,-3.8652,-3.8707,-3.8762,-3.8855,-3.8999,-3.9244,-3.9472,-3.938,-3.9323,-3.9182,-3.9254,-3.9076,-3.8854,-3.8765,-3.8469,-3.7577,-3.6288,-3.5635,-3.6115,-3.5885,-3.5635,-3.55,-3.55,-3.5327,-3.4949,-3.493,-3.4699,-3.3833,-3.3667,-3.3103,-5.1518,-5.071,-4.9682,-4.8893,-4.8324,-4.8324,-4.8324,-4.8251,-4.7663,-4.6856,-4.5883,-4.5296,-4.4452,-4.3571,-4.3479,-4.3479,-4.3479,-4.3479,-4.3214,-4.2732,-4.2693,-4.2041,-4.0995,-4.0903,-4.0903,-4.0995,-4.1512,-4.2183,-4.268,-4.1558,-4.0653,-4.0017,-3.8906,-3.8105,-3.781,-3.8234,-3.8546,-3.8692,-3.8707,-3.8707,-3.8615,-3.812,-3.7731,-3.7419,-3.634,-3.5573,-3.5353,-3.4578,-3.4137,-3.4137,-3.3935,-3.3807,-3.3807,-3.3807,-3.3899,-3.4119,-3.4137,-3.4137,-3.4124,-3.4357,-3.4394,-3.4215,-3.4876,-3.5353,-3.5463,-3.5936,-3.6376,-3.6541,-3.6046,-3.6028,-3.6468,-3.6629,-3.6688,-3.6909,-3.6964,-3.7221,-3.7749,-3.7841,-3.8028,-3.8597,-3.856,-3.8707,-3.8689,-3.867,-3.867,-3.8689,-3.8707,-3.8707,-3.8704,-3.8888,-3.9109,-3.9408,-3.945,-3.9626,-3.9992,-3.9879,-3.9757,-3.9612,-3.9395,-3.9186,-3.8535,-3.7256,-3.6481,-3.7315,-3.6584,-3.6096,-3.6038,-3.5904,-3.5654,-3.5538,-3.5442,-3.5269,-3.4699,-3.4584,-3.4314,-5.1536,-5.0618,-4.904,-4.836,-4.8324,-4.8324,-4.8324,-4.8287,-4.8213,-4.737,-4.6049,-4.5847,-4.4966,-4.3588,-4.3516,-4.3479,-4.3479,-4.3479,-4.3232,-4.2788,-4.2674,-4.2059,-4.0949,-4.0903,-4.088,-4.0949,-4.1512,-4.2327,-4.3248,-4.205,-4.077,-3.9647,-3.8801,-3.7985,-3.7482,-3.7826,-3.82,-3.8643,-3.8707,-3.8707,-3.8707,-3.8652,-3.8248,-3.7621,-3.7401,-3.6942,-3.6248,-3.5408,-3.4949,-3.4968,-3.4289,-3.388,-3.3844,-3.388,-3.4215,-3.4857,-3.4968,-3.4949,-3.5059,-3.5624,-3.5752,-3.5206,-3.5734,-3.6248,-3.6229,-3.6413,-3.6798,-3.7382,-3.7364,-3.7364,-3.7419,-3.7456,-3.7731,-3.8322,-3.8505,-3.8524,-3.8579,-3.8524,-3.8634,-3.8689,-3.8707,-3.8707,-3.8707,-3.8707,-3.8799,-3.8799,-3.8762,-3.8854,-3.8943,-3.8882,-3.8991,-3.9151,-3.9255,-3.9339,-3.9901,-3.9891,-3.9682,-3.9589,-3.9623,-3.9748,-3.9583,-3.9272,-3.8861,-3.8411,-3.7796,-3.7276,-3.6846,-3.6462,-3.6115,-3.5865,-3.5558,-3.5308,-3.5161,-3.5346,-3.5135,-5.1977,-5.0655,-4.9003,-4.8324,-4.8324,-4.8324,-4.8324,-4.8324,-4.8324,-4.77,-4.6709,-4.614,-4.5296,-4.4232,-4.3718,-4.3479,-4.3479,-4.3479,-4.3392,-4.3124,-4.2482,-4.1895,-4.1446,-4.0767,-4.0601,-4.0949,-4.1512,-4.2185,-4.2791,-4.2079,-4.0999,-3.988,-3.9253,-3.8636,-3.8084,-3.8252,-3.853,-3.8676,-3.8707,-3.8707,-3.8707,-3.8707,-3.856,-3.8248,-3.7749,-3.7382,-3.707,-3.6266,-3.5844,-3.5826,-3.555,-3.5404,-3.5404,-3.5404,-3.5514,-3.5789,-3.5844,-3.5826,-3.5862,-3.6119,-3.6174,-3.5954,-3.6611,-3.707,-3.7162,-3.7514,-3.7973,-3.8193,-3.8248,-3.8267,-3.8267,-3.8267,-3.8377,-3.8615,-3.8707,-3.8707,-3.8707,-3.8707,-3.8707,-3.8707,-3.8707,-3.8707,-3.8836,-3.9148,-3.946,-3.9515,-3.9882,-4.0139,-4.0152,-3.9958,-3.9721,-3.9751,-3.9447,-3.9251,-3.9698,-3.9709,-3.9611,-3.9622,-3.9678,-3.9789,-3.9737,-3.9957,-3.9665,-3.9065,-3.8623,-3.8142,-3.7603,-3.7,-3.6635,-3.6038,-3.5731,-3.5846,-3.5481,-3.5673,-3.5615,-5.2032,-5.0674,-4.9279,-4.8526,-4.8324,-4.8324,-4.8324,-4.8324,-4.8306,-4.7865,-4.7058,-4.625,-4.5461,-4.4654,-4.3864,-4.3479,-4.3479,-4.3479,-4.341,-4.3178,-4.2444,-4.1979,-4.1703,-4.1007,-4.0938,-4.1512,-4.2065,-4.2501,-4.2578,-4.2083,-4.1108,-3.9844,-3.9363,-3.886,-3.8399,-3.8396,-3.8515,-3.8643,-3.8707,-3.8707,-3.8707,-3.8707,-3.8707,-3.8634,-3.8157,-3.7896,-3.7863,-3.7125,-3.6684,-3.6652,-3.645,-3.6285,-3.6285,-3.6285,-3.6431,-3.6652,-3.6684,-3.6684,-3.674,-3.6909,-3.6964,-3.674,-3.7419,-3.7896,-3.7933,-3.8395,-3.8652,-3.8707,-3.8707,-3.8707,-3.8707,-3.8689,-3.8707,-3.8707,-3.8707,-3.8707,-3.8707,-3.8707,-3.8707,-3.8707,-3.8707,-3.8799,-3.9074,-3.957,-3.9955,-4.023,-4.0802,-4.1077,-4.1052,-4.0674,-4.0465,-4.0593,-4.0024,-3.9928,-4.0176,-4.0259,-3.9696,-3.9577,-3.9548,-3.9709,-3.9903,-4.023,-4.0257,-3.9704,-3.9258,-3.8796,-3.8257,-3.7642,-3.7019,-3.6392,-3.6488,-3.6719,-3.6353,-3.5962,-3.5923,-5.1536,-5.0729,-4.9866,-4.8985,-4.8361,-4.8324,-4.8324,-4.8324,-4.8324,-4.7902,-4.7186,-4.6342,-4.5608,-4.4745,-4.4011,-4.3534,-4.3479,-4.3479,-4.3268,-4.2864,-4.2693,-4.2342,-4.1877,-4.1725,-4.1937,-4.2519,-4.316,-4.3142,-4.2692,-4.2065,-4.1143,-3.9946,-3.9224,-3.8888,-3.8428,-3.8366,-3.8305,-3.8669,-3.8781,-3.8707,-3.8707,-3.8707,-3.8707,-3.8707,-3.8634,-3.8597,-3.8615,-3.79,-3.7492,-3.7419,-3.6817,-3.6358,-3.6505,-3.6523,-3.6743,-3.7401,-3.7511,-3.7511,-3.7584,-3.812,-3.8102,-3.7749,-3.8212,-3.8579,-3.856,-3.8652,-3.8707,-3.8707,-3.8707,-3.8707,-3.8781,-3.8836,-3.8836,-3.8726,-3.8836,-3.8854,-3.8891,-3.8799,-3.8762,-3.8891,-3.8964,-3.9129,-3.9662,-4.012,-4.0469,-4.0983,-4.1297,-4.1444,-4.1425,-4.0993,-4.0824,-4.1248,-4.0996,-4.0651,-4.0818,-4.0891,-4.0118,-3.9525,-3.947,-3.9512,-3.969,-3.9974,-4.0203,-3.9844,-4.0031,-3.9577,-3.8796,-3.8219,-3.7969,-3.7526,-3.7642,-3.7469,-3.7084,-3.6692,-3.6404,-5.1518,-5.0729,-4.9903,-4.9058,-4.8361,-4.8324,-4.8324,-4.8324,-4.8324,-4.814,-4.7791,-4.7076,-4.6287,-4.548,-4.469,-4.4011,-4.3533,-4.3479,-4.341,-4.3196,-4.2901,-4.2616,-4.2382,-4.2,-4.2121,-4.2693,-4.325,-4.3214,-4.2675,-4.2101,-4.1545,-4.1098,-4.0366,-4.0182,-4.0302,-3.9709,-3.9401,-3.9426,-3.8964,-3.8707,-3.8707,-3.8707,-3.8707,-3.8707,-3.8707,-3.8707,-3.8689,-3.8469,-3.8322,-3.8303,-3.8083,-3.7955,-3.7955,-3.7936,-3.8083,-3.8285,-3.8322,-3.8322,-3.834,-3.8524,-3.8615,-3.8414,-3.8579,-3.867,-3.8707,-3.8726,-3.8744,-3.8744,-3.8707,-3.8891,-3.9368,-3.9533,-3.9533,-3.9533,-3.9515,-3.9735,-4.0123,-4.0288,-4.0359,-4.0343,-4.0343,-4.0506,-4.0744,-4.1056,-4.1534,-4.1901,-4.2323,-4.2635,-4.258,-4.1901,-4.1844,-4.2582,-4.1985,-4.1427,-4.1554,-4.1557,-4.1047,-4.043,-4.0152,-3.979,-3.9852,-3.9938,-4.0127,-4.0157,-4.0345,-4.015,-3.9369,-3.8927,-3.8681,-3.8327,-3.8104,-3.7892,-3.768,-3.7469,-3.7276,-5.1793,-5.0784,-5.0251,-4.9352,-4.8361,-4.8324,-4.8324,-4.8324,-4.8324,-4.8324,-4.814,-4.7443,-4.6837,-4.6195,-4.5223,-4.4452,-4.392,-4.3644,-4.3479,-4.3462,-4.3196,-4.2995,-4.2958,-4.2638,-4.2599,-4.2976,-4.3321,-4.3214,-4.2711,-4.2322,-4.2021,-4.1729,-4.1197,-4.101,-4.1322,-4.0715,-4.023,-3.9863,-3.9405,-3.9019,-3.8762,-3.8707,-3.8707,-3.8707,-3.8707,-3.8707,-3.8707,-3.8707,-3.8707,-3.8707,-3.8707,-3.8707,-3.8707,-3.867,-3.8707,-3.8707,-3.8689,-3.8689,-3.8707,-3.867,-3.8707,-3.8707,-3.8707,-3.8872,-3.9038,-3.9148,-3.9221,-3.9533,-3.9627,-3.9774,-4.0249,-4.0359,-4.0451,-4.0781,-4.0506,-4.0598,-4.1022,-4.1113,-4.1077,-4.1003,-4.104,-4.1224,-4.1607,-4.1882,-4.2451,-4.2727,-4.3167,-4.3479,-4.3369,-4.2927,-4.3129,-4.3239,-4.2872,-4.2511,-4.2337,-4.2174,-4.1961,-4.1489,-4.1059,-4.0615,-4.0375,-4.0416,-4.0542,-4.0224,-4.0241,-4.0239,-3.9597,-3.9595,-3.9404,-3.901,-3.8696,-3.8777,-3.8757,-3.8527,-3.8277,-5.2289,-5.0949,-5.0802,-4.9848,-4.8526,-4.8361,-4.8324,-4.8324,-4.8324,-4.8324,-4.8122,-4.759,-4.7149,-4.6746,-4.5645,-4.4929,-4.458,-4.3975,-4.3589,-4.3516,-4.3427,-4.341,-4.3392,-4.3321,-4.3321,-4.3427,-4.348,-4.3232,-4.2845,-4.2674,-4.244,-4.2035,-4.1722,-4.152,-4.1615,-4.1314,-4.0836,-4.0341,-4.0065,-3.9609,-3.8923,-3.885,-3.8776,-3.8758,-3.8742,-3.8721,-3.8692,-3.8707,-3.8707,-3.8707,-3.8707,-3.8707,-3.8707,-3.8707,-3.8707,-3.8707,-3.8707,-3.8707,-3.8707,-3.8707,-3.8781,-3.8872,-3.8927,-3.9111,-3.9808,-3.9974,-4.0194,-4.0747,-4.0857,-4.0985,-4.1095,-4.115,-4.1497,-4.2103,-4.1754,-4.146,-4.1295,-4.137,-4.1517,-4.1444,-4.1297,-4.1515,-4.2286,-4.2433,-4.2763,-4.3185,-4.3442,-4.3461,-4.3461,-4.3314,-4.3424,-4.3387,-4.3276,-4.3181,-4.289,-4.276,-4.2569,-4.2477,-4.208,-4.1667,-4.1116,-4.1071,-4.094,-4.0605,-4.0377,-4.0263,-4.0072,-4.0013,-4.0011,-3.9804,-3.9736,-3.9927,-3.9785,-3.9477,-3.9284,-5.2619,-5.1646,-5.1059,-5.0215,-4.9225,-4.86,-4.8324,-4.8324,-4.8324,-4.8324,-4.8233,-4.8104,-4.7626,-4.7076,-4.6672,-4.5847,-4.4911,-4.447,-4.4011,-4.3552,-4.3479,-4.3479,-4.3479,-4.3479,-4.3479,-4.3479,-4.3479,-4.3427,-4.325,-4.292,-4.2845,-4.3051,-4.2536,-4.254,-4.2793,-4.2256,-4.1921,-4.1607,-4.1003,-4.042,-3.9839,-3.9731,-3.9496,-3.8952,-3.8934,-3.8866,-3.8719,-3.8707,-3.8707,-3.8707,-3.8707,-3.8707,-3.8744,-3.8726,-3.8744,-3.8836,-3.8762,-3.8744,-3.8762,-3.8781,-3.9001,-3.9515,-3.9588,-3.9937,-4.0708,-4.0783,-4.0893,-4.1113,-4.1113,-4.137,-4.1846,-4.1992,-4.2378,-4.2983,-4.2837,-4.2727,-4.2745,-4.2855,-4.2855,-4.2873,-4.2782,-4.2892,-4.2983,-4.3112,-4.3204,-4.3406,-4.3479,-4.3479,-4.3479,-4.3479,-4.3479,-4.3479,-4.3424,-4.3442,-4.3403,-4.3311,-4.3235,-4.3299,-4.3095,-4.2847,-4.231,-4.1923,-4.1648,-4.1264,-4.1198,-4.1084,-4.0577,-4.0241,-4.0306,-4.0576,-4.0539,-4.0559,-4.0442,-4.0208,-4.0189,-5.2729,-5.194,-5.1151,-5.0343,-4.9537,-4.8655,-4.8324,-4.8324,-4.8324,-4.8324,-4.8324,-4.8324,-4.803,-4.7608,-4.7241,-4.6415,-4.5296,-4.4856,-4.425,-4.3589,-4.3479,-4.3479,-4.3479,-4.3479,-4.3479,-4.3479,-4.3479,-4.3479,-4.3444,-4.3178,-4.3232,-4.3356,-4.3196,-4.3232,-4.3336,-4.2848,-4.2249,-4.1849,-4.1234,-4.0562,-3.9921,-3.9866,-3.9632,-3.9221,-3.9169,-3.9157,-3.9305,-3.9571,-3.9426,-3.8909,-3.8707,-3.8836,-3.9148,-3.8872,-3.9004,-3.957,-3.9423,-3.9331,-3.9662,-3.9717,-3.9918,-4.0304,-4.0396,-4.0818,-4.1405,-4.159,-4.1645,-4.2121,-4.2103,-4.2341,-4.2653,-4.28,-4.302,-4.3351,-4.3479,-4.3479,-4.3479,-4.3424,-4.3479,-4.3479,-4.3479,-4.3479,-4.3479,-4.3479,-4.3479,-4.3479,-4.3479,-4.3479,-4.3479,-4.3479,-4.3479,-4.3479,-4.3479,-4.3479,-4.3479,-4.3423,-4.3386,-4.3491,-4.3578,-4.3446,-4.3101,-4.2557,-4.2101,-4.1786,-4.1871,-4.1732,-4.1127,-4.084,-4.1244,-4.1397,-4.1293,-4.1351,-4.1382,-4.0979,-4.0987,-5.2784,-5.2032,-5.1169,-5.038,-4.9665,-4.871,-4.8324,-4.8324,-4.8324,-4.8324,-4.8324,-4.8324,-4.825,-4.8251,-4.759,-4.6746,-4.5828,-4.5223,-4.4342,-4.3754,-4.3479,-4.3479,-4.3479,-4.3479,-4.3479,-4.3479,-4.3479,-4.3479,-4.3479,-4.3462,-4.3462,-4.3479,-4.3462,-4.341,-4.3286,-4.2885,-4.2278,-4.1602,-4.1183,-4.058,-3.997,-3.9823,-3.9717,-3.947,-3.9368,-3.9608,-4.0059,-4.0467,-4.0299,-3.9038,-3.8964,-3.9423,-3.9863,-3.9313,-3.9627,-4.0545,-4.0377,-4.0304,-4.0857,-4.0857,-4.1077,-4.1185,-4.1224,-4.1572,-4.2213,-4.2433,-4.2635,-4.3149,-4.3461,-4.3314,-4.3332,-4.3424,-4.3424,-4.3479,-4.3479,-4.3479,-4.3479,-4.3479,-4.3479,-4.3479,-4.3479,-4.3479,-4.3479,-4.3479,-4.3479,-4.3479,-4.3479,-4.3479,-4.3479,-4.3479,-4.3479,-4.3479,-4.3479,-4.3479,-4.3479,-4.3479,-4.3461,-4.3512,-4.3642,-4.3596,-4.3407,-4.2924,-4.2417,-4.2196,-4.25,-4.2249,-4.1567,-4.1631,-4.2044,-4.2088,-4.1864,-4.2336,-4.275,-4.1996,-4.1691,-5.3115,-5.2839,-5.1408,-5.071,-5.0306,-4.8967,-4.8324,-4.8324,-4.8324,-4.8324,-4.8324,-4.8324,-4.8324,-4.8268,-4.8012,-4.7278,-4.6049,-4.559,-4.4892,-4.3589,-4.3479,-4.3479,-4.3479,-4.3479,-4.3479,-4.3479,-4.3479,-4.3479,-4.3479,-4.3479,-4.3479,-4.3479,-4.3462,-4.3286,-4.2902,-4.2732,-4.2386,-4.1792,-4.1527,-4.1082,-4.057,-4.0403,-4.0172,-3.972,-3.955,-3.9724,-4.0092,-4.033,-4.045,-4.0538,-4.06,-4.0726,-4.0763,-4.0598,-4.0728,-4.1022,-4.104,-4.093,-4.1095,-4.1279,-4.1405,-4.1974,-4.2084,-4.2378,-4.3112,-4.3185,-4.3277,-4.3479,-4.3479,-4.3479,-4.3479,-4.3479,-4.3479,-4.3479,-4.3479,-4.3479,-4.3479,-4.3479,-4.3479,-4.3479,-4.3479,-4.3479,-4.3479,-4.3479,-4.3479,-4.3479,-4.3479,-4.3479,-4.3479,-4.3479,-4.3479,-4.3479,-4.3479,-4.3479,-4.3479,-4.3479,-4.3479,-4.3479,-4.3612,-4.3691,-4.3485,-4.349,-4.3052,-4.3047,-4.3289,-4.2818,-4.2162,-4.2207,-4.2587,-4.2507,-4.25,-4.2902,-4.309,-4.2613,-4.2374,-5.2965,-5.2527,-5.1316,-5.0582,-5.005,-4.8875,-4.8324,-4.8324,-4.8324,-4.8324,-4.8324,-4.8324,-4.8324,-4.8324,-4.8269,-4.759,-4.6489,-4.5608,-4.4672,-4.3681,-4.3479,-4.3479,-4.3479,-4.3479,-4.3479,-4.3479,-4.3479,-4.3479,-4.3479,-4.3479,-4.3479,-4.3479,-4.3479,-4.3214,-4.2693,-4.242,-4.1937,-4.1407,-4.1105,-4.0821,-4.0577,-4.0511,-4.0401,-4.0062,-4.0046,-4.0366,-4.0931,-4.128,-4.1687,-4.2059,-4.2194,-4.2011,-4.1609,-4.1334,-4.146,-4.2084,-4.1827,-4.1937,-4.2084,-4.2249,-4.2433,-4.2782,-4.2855,-4.3057,-4.3369,-4.3479,-4.3479,-4.3479,-4.3479,-4.3479,-4.3479,-4.3479,-4.3479,-4.3479,-4.3479,-4.3479,-4.3479,-4.3479,-4.3479,-4.3479,-4.3479,-4.3479,-4.3479,-4.3479,-4.3479,-4.3479,-4.3479,-4.3479,-4.3479,-4.3479,-4.3479,-4.3479,-4.3479,-4.3479,-4.3479,-4.3479,-4.3479,-4.3479,-4.3531,-4.3563,-4.348,-4.3616,-4.3766,-4.3699,-4.356,-4.3456,-4.2983,-4.3077,-4.3114,-4.325,-4.3352,-4.3481,-4.3445,-4.3221,-4.305,-5.2619,-5.1903,-5.1004,-5.0215,-4.9537,-4.8673,-4.8324,-4.8324,-4.8324,-4.8324,-4.8324,-4.8324,-4.8324,-4.8324,-4.8324,-4.7828,-4.6837,-4.548,-4.4342,-4.3901,-4.3552,-4.3497,-4.3479,-4.3479,-4.3479,-4.3479,-4.3479,-4.3479,-4.3479,-4.3479,-4.3479,-4.3479,-4.3375,-4.2995,-4.2519,-4.1958,-4.138,-4.0821,-4.0466,-4.0254,-4.0171,-4.0154,-4.012,-4.0152,-4.0367,-4.0929,-4.1524,-4.2087,-4.2718,-4.3427,-4.3479,-4.3112,-4.2525,-4.2011,-4.1956,-4.3351,-4.2782,-4.2745,-4.3057,-4.3296,-4.3351,-4.3479,-4.3461,-4.3461,-4.3479,-4.3479,-4.3479,-4.3479,-4.3479,-4.3479,-4.3479,-4.3479,-4.3479,-4.3479,-4.3479,-4.3479,-4.3479,-4.3479,-4.3479,-4.3479,-4.3479,-4.3479,-4.3479,-4.3479,-4.3479,-4.3479,-4.3479,-4.3479,-4.3479,-4.3479,-4.3479,-4.3479,-4.3479,-4.3479,-4.3479,-4.3479,-4.3479,-4.3479,-4.3479,-4.3479,-4.3479,-4.3577,-4.3703,-4.3705,-4.3606,-4.3523,-4.3566,-4.3547,-4.3654,-4.3967,-4.3986,-4.3864,-4.383,-4.3817,-4.3667,-5.2105,-5.1867,-5.0418,-4.9721,-4.9463,-4.8655,-4.8324,-4.8324,-4.8324,-4.8324,-4.8324,-4.8324,-4.8324,-4.8324,-4.8324,-4.7846,-4.6892,-4.5645,-4.4745,-4.4323,-4.3901,-4.3589,-4.3497,-4.3479,-4.3479,-4.3479,-4.3479,-4.3479,-4.3479,-4.3479,-4.3479,-4.3428,-4.3087,-4.2616,-4.2021,-4.1358,-4.0868,-4.0417,-4.0196,-4.0096,-4.0113,-4.0113,-4.0113,-4.0096,-4.0279,-4.0791,-4.1552,-4.1916,-4.2424,-4.3356,-4.3479,-4.3404,-4.3204,-4.302,-4.3166,-4.3313,-4.3314,-4.3259,-4.3442,-4.3479,-4.3479,-4.3479,-4.3479,-4.3479,-4.3479,-4.3479,-4.3479,-4.3479,-4.3479,-4.3479,-4.3479,-4.3479,-4.3479,-4.3479,-4.3479,-4.3479,-4.3479,-4.3479,-4.3479,-4.3479,-4.3479,-4.3479,-4.3479,-4.3479,-4.3479,-4.3479,-4.3479,-4.3479,-4.3479,-4.3479,-4.3479,-4.3479,-4.3479,-4.3479,-4.3479,-4.3479,-4.3479,-4.3479,-4.3479,-4.3479,-4.3479,-4.3479,-4.3531,-4.3563,-4.3662,-4.3687,-4.3749,-4.3818,-4.3849,-4.3881,-4.3986,-4.4102,-4.3978,-4.3853,-4.3999,-5.1756,-5.1261,-5.0088,-4.9335,-4.8893,-4.8508,-4.8324,-4.8324,-4.8324,-4.8324,-4.8324,-4.8324,-4.8324,-4.8324,-4.8324,-4.7846,-4.6984,-4.6415,-4.5498,-4.4837,-4.4305,-4.3846,-4.3571,-4.3497,-4.3479,-4.3479,-4.3479,-4.3479,-4.3479,-4.3479,-4.3479,-4.3375,-4.2976,-4.24,-4.181,-4.1246,-4.0648,-4.0229,-4.0113,-4.0113,-4.0113,-4.0113,-4.0113,-4.0113,-4.0121,-4.0546,-4.1155,-4.1703,-4.2203,-4.294,-4.3339,-4.3462,-4.3479,-4.3479,-4.3479,-4.3479,-4.3479,-4.3479,-4.3479,-4.3479,-4.3479,-4.3479,-4.3479,-4.3479,-4.3479,-4.3479,-4.3479,-4.3479,-4.3479,-4.3479,-4.3479,-4.3479,-4.3479,-4.3479,-4.3497,-4.3516,-4.3516,-4.3516,-4.3571,-4.3608,-4.3552,-4.3552,-4.3479,-4.3479,-4.3479,-4.3479,-4.3479,-4.3479,-4.3479,-4.3479,-4.3479,-4.3479,-4.3479,-4.3479,-4.3479,-4.3479,-4.3479,-4.3479,-4.3479,-4.3479,-4.3479,-4.3479,-4.3479,-4.3513,-4.3614,-4.3712,-4.3662,-4.3646,-4.371,-4.3775,-4.3772,-4.3804,-4.3884,-4.3946,-4.3989,-5.1371,-5.0729,-4.9757,-4.893,-4.8379,-4.8324,-4.8324,-4.8324,-4.8324,-4.8324,-4.8324,-4.8324,-4.8324,-4.8324,-4.8232,-4.792,-4.7314,-4.7186,-4.6305,-4.5461,-4.4783,-4.4305,-4.3901,-4.3552,-4.3479,-4.3479,-4.3479,-4.3479,-4.3479,-4.3479,-4.3479,-4.3286,-4.2884,-4.2322,-4.175,-4.1036,-4.0546,-4.0262,-4.0113,-4.0113,-4.0113,-4.0113,-4.0113,-4.0113,-4.0096,-4.0368,-4.0949,-4.1512,-4.208,-4.2694,-4.3178,-4.3479,-4.3479,-4.3479,-4.3479,-4.3479,-4.3479,-4.3479,-4.3479,-4.3479,-4.3479,-4.3479,-4.3479,-4.3479,-4.3479,-4.3479,-4.3479,-4.3479,-4.3479,-4.3479,-4.3479,-4.3479,-4.3479,-4.357,-4.3662,-4.3808,-4.3992,-4.4084,-4.4158,-4.4066,-4.3828,-4.3681,-4.3663,-4.3479,-4.3479,-4.3479,-4.3479,-4.3479,-4.3479,-4.3479,-4.3479,-4.3479,-4.3479,-4.3479,-4.3479,-4.3479,-4.3479,-4.3479,-4.3479,-4.3479,-4.3479,-4.3479,-4.3479,-4.3479,-4.3496,-4.3563,-4.3496,-4.3479,-4.3563,-4.3597,-4.3531,-4.3548,-4.3662,-4.3679,-4.3695,-5.0894,-5.0674,-4.9114,-4.8398,-4.8324,-4.8324,-4.8324,-4.8324,-4.8324,-4.8324,-4.8324,-4.8324,-4.8324,-4.8324,-4.8324,-4.8251,-4.7957,-4.748,-4.7003,-4.6379,-4.5461,-4.4874,-4.447,-4.3773,-4.3663,-4.3608,-4.3534,-4.3479,-4.3479,-4.3479,-4.3462,-4.3286,-4.2503,-4.1835,-4.1599,-4.0791,-4.0179,-4.0121,-4.0121,-4.0146,-4.0146,-4.0121,-4.0113,-4.0113,-4.0146,-4.0311,-4.0827,-4.1424,-4.2041,-4.2598,-4.3196,-4.3462,-4.3479,-4.3479,-4.3479,-4.3479,-4.3479,-4.3479,-4.3479,-4.3479,-4.3479,-4.3479,-4.3479,-4.3479,-4.3479,-4.3479,-4.3479,-4.3479,-4.3479,-4.3479,-4.3497,-4.3534,-4.3497,-4.3809,-4.4195,-4.4599,-4.4856,-4.4855,-4.4892,-4.4892,-4.4745,-4.4213,-4.3937,-4.3681,-4.3479,-4.3479,-4.3497,-4.3534,-4.3479,-4.3479,-4.3479,-4.3479,-4.3479,-4.3479,-4.3479,-4.3479,-4.3534,-4.3516,-4.3516,-4.3497,-4.3479,-4.3479,-4.3479,-4.3479,-4.3479,-4.3479,-4.3479,-4.3479,-4.3479,-4.3479,-4.3479,-4.3479,-4.3513,-4.3479,-4.3479,-5.0124,-5.0033,-4.882,-4.8324,-4.8324,-4.8324,-4.8324,-4.8324,-4.8324,-4.8324,-4.8324,-4.8324,-4.8324,-4.8324,-4.8324,-4.8306,-4.8213,-4.7901,-4.7498,-4.7168,-4.6342,-4.581,-4.5278,-4.4617,-4.4195,-4.4066,-4.3754,-4.3479,-4.3497,-4.3517,-4.3392,-4.2958,-4.2244,-4.1599,-4.134,-4.0521,-4.0392,-4.0473,-4.057,-4.0552,-4.0473,-4.0262,-4.0113,-4.0113,-4.0113,-4.0254,-4.0594,-4.1375,-4.1853,-4.2362,-4.2977,-4.3479,-4.3479,-4.3479,-4.3479,-4.3479,-4.3479,-4.3479,-4.3479,-4.3479,-4.3479,-4.3479,-4.3479,-4.3479,-4.3479,-4.3497,-4.3497,-4.3479,-4.3479,-4.3516,-4.3681,-4.392,-4.4121,-4.4415,-4.4911,-4.5424,-4.5773,-4.5718,-4.57,-4.5681,-4.5608,-4.5076,-4.4507,-4.4066,-4.3901,-4.3864,-4.3956,-4.4066,-4.3791,-4.3479,-4.3479,-4.3479,-4.3479,-4.3479,-4.3479,-4.3479,-4.3626,-4.3626,-4.3625,-4.3606,-4.3497,-4.3479,-4.3589,-4.3552,-4.3479,-4.3479,-4.3479,-4.3479,-4.3479,-4.3479,-4.3479,-4.3479,-4.3479,-4.3479,-4.3479,-4.9482,-4.9205,-4.8563,-4.8324,-4.8324,-4.8324,-4.8324,-4.8324,-4.8324,-4.8324,-4.8324,-4.8324,-4.8324,-4.8324,-4.8324,-4.8324,-4.8306,-4.8324,-4.7957,-4.7535,-4.7131,-4.6709,-4.6085,-4.5425,-4.5002,-4.5002,-4.4599,-4.4323,-4.4213,-4.4086,-4.3816,-4.2747,-4.2121,-4.1512,-4.0949,-4.0631,-4.0601,-4.1087,-4.0926,-4.0874,-4.0797,-4.036,-4.0171,-4.0113,-4.0113,-4.0113,-4.0279,-4.1213,-4.1789,-4.2021,-4.2922,-4.3479,-4.3479,-4.3479,-4.3479,-4.3479,-4.3479,-4.3479,-4.3479,-4.3479,-4.3479,-4.3479,-4.3479,-4.3479,-4.3479,-4.3497,-4.3699,-4.3846,-4.3883,-4.3956,-4.4176,-4.4727,-4.4892,-4.5259,-4.57,-4.6269,-4.6709,-4.6691,-4.6544,-4.6397,-4.6269,-4.603,-4.5406,-4.469,-4.4378,-4.4287,-4.4378,-4.458,-4.4397,-4.4066,-4.414,-4.4305,-4.4342,-4.436,-4.4305,-4.4195,-4.4085,-4.3956,-4.3974,-4.3901,-4.3975,-4.3938,-4.3992,-4.3828,-4.3608,-4.3479,-4.3479,-4.3479,-4.3479,-4.3479,-4.3479,-4.3479,-4.3479,-4.3479,-4.3479,-4.9114,-4.8398,-4.8343,-4.8324,-4.8324,-4.8324,-4.8324,-4.8324,-4.8324,-4.8324,-4.8324,-4.8324,-4.8324,-4.8324,-4.8324,-4.8324,-4.8324,-4.8324,-4.8214,-4.792,-4.7516,-4.7204,-4.6746,-4.6305,-4.581,-4.581,-4.5443,-4.5443,-4.5608,-4.5296,-4.4327,-4.2928,-4.251,-4.1648,-4.1099,-4.0937,-4.1173,-4.1534,-4.1402,-4.1105,-4.0914,-4.0538,-4.0154,-4.0096,-4.0113,-4.0096,-4.0146,-4.1213,-4.181,-4.1853,-4.2866,-4.3479,-4.3479,-4.3479,-4.3479,-4.3479,-4.3479,-4.3479,-4.3479,-4.3479,-4.3479,-4.3479,-4.3497,-4.3552,-4.3699,-4.3588,-4.3828,-4.4488,-4.4599,-4.4892,-4.5314,-4.5792,-4.5828,-4.6049,-4.6452,-4.6929,-4.7369,-4.77,-4.7535,-4.7186,-4.6947,-4.6801,-4.6654,-4.6012,-4.5278,-4.5149,-4.5112,-4.5296,-4.5535,-4.5333,-4.5388,-4.548,-4.5553,-4.559,-4.5608,-4.5443,-4.5076,-4.5002,-4.5021,-4.4856,-4.4727,-4.4635,-4.4433,-4.414,-4.392,-4.3699,-4.3479,-4.3479,-4.3479,-4.3479,-4.3479,-4.3479,-4.3479,-4.3479,-4.3479,-4.8618,-4.8324,-4.8324,-4.8324,-4.8324,-4.8324,-4.8324,-4.8324,-4.8324,-4.8324,-4.8324,-4.8324,-4.8324,-4.8324,-4.8324,-4.8324,-4.8324,-4.8324,-4.8324,-4.8251,-4.7976,-4.7846,-4.7553,-4.7113,-4.6636,-4.6544,-4.6232,-4.5902,-4.5847,-4.6067,-4.5366,-4.4265,-4.3568,-4.2283,-4.1674,-4.1521,-4.1913,-4.2231,-4.2154,-4.1909,-4.1375,-4.0914,-4.0424,-4.0096,-4.0096,-4.0113,-4.0254,-4.1236,-4.1639,-4.2083,-4.2903,-4.3303,-4.3479,-4.3479,-4.3479,-4.3479,-4.3479,-4.3516,-4.3552,-4.3534,-4.3479,-4.3479,-4.3516,-4.3718,-4.4158,-4.4232,-4.4654,-4.5131,-4.5443,-4.57,-4.581,-4.6324,-4.6672,-4.6856,-4.7168,-4.759,-4.7865,-4.814,-4.8177,-4.7681,-4.7718,-4.7755,-4.7609,-4.7425,-4.6673,-4.6049,-4.6012,-4.6049,-4.6305,-4.6416,-4.6361,-4.6324,-4.6342,-4.625,-4.625,-4.6104,-4.5957,-4.603,-4.6085,-4.581,-4.5535,-4.5057,-4.4819,-4.4525,-4.4305,-4.4158,-4.3938,-4.3608,-4.3497,-4.3515,-4.3497,-4.3479,-4.3479,-4.3479,-4.3479,-4.8324,-4.8324,-4.8324,-4.8324,-4.8324,-4.8324,-4.8324,-4.8324,-4.8324,-4.8324,-4.8324,-4.8324,-4.8324,-4.8324,-4.8324,-4.8324,-4.8324,-4.8324,-4.8324,-4.8288,-4.8269,-4.8324,-4.8122,-4.781,-4.7443,-4.7333,-4.7021,-4.6691,-4.6783,-4.6654,-4.6314,-4.5841,-4.5255,-4.402,-4.273,-4.2572,-4.3064,-4.3494,-4.3436,-4.3298,-4.2771,-4.1821,-4.1201,-4.0709,-4.0441,-4.0113,-4.0385,-4.1127,-4.1725,-4.2165,-4.2754,-4.3374,-4.3479,-4.3479,-4.3479,-4.3497,-4.3516,-4.3589,-4.3791,-4.3846,-4.3846,-4.3956,-4.4287,-4.458,-4.4892,-4.5094,-4.5424,-4.6104,-4.6269,-4.6324,-4.6471,-4.7186,-4.7443,-4.759,-4.7755,-4.8085,-4.8103,-4.8288,-4.8306,-4.8159,-4.8233,-4.8177,-4.8104,-4.7921,-4.7627,-4.7095,-4.715,-4.715,-4.726,-4.726,-4.704,-4.7003,-4.6985,-4.6838,-4.6673,-4.6856,-4.704,-4.7095,-4.7058,-4.6691,-4.6324,-4.5902,-4.5351,-4.4929,-4.4745,-4.4672,-4.4342,-4.392,-4.3681,-4.3551,-4.3533,-4.3479,-4.3479,-4.3479,-4.3479,-4.8324,-4.8324,-4.8324,-4.8324,-4.8324,-4.8324,-4.8324,-4.8324,-4.8324,-4.8324,-4.8324,-4.8324,-4.8324,-4.8324,-4.8324,-4.8324,-4.8324,-4.8324,-4.8324,-4.8324,-4.8324,-4.8324,-4.8288,-4.8177,-4.803,-4.8251,-4.7976,-4.7829,-4.8031,-4.7847,-4.7611,-4.735,-4.6829,-4.6022,-4.4334,-4.4662,-4.5246,-4.5608,-4.5119,-4.4853,-4.4309,-4.3049,-4.2305,-4.1785,-4.1017,-4.0553,-4.0796,-4.1666,-4.2241,-4.2462,-4.3175,-4.3665,-4.3699,-4.3681,-4.3663,-4.3626,-4.3681,-4.4011,-4.458,-4.4672,-4.4764,-4.4745,-4.5057,-4.5553,-4.5792,-4.5957,-4.6214,-4.6947,-4.7076,-4.7425,-4.7847,-4.8177,-4.8122,-4.8141,-4.8269,-4.8324,-4.8324,-4.8324,-4.8324,-4.8324,-4.8324,-4.8306,-4.8306,-4.8269,-4.8251,-4.8141,-4.8233,-4.8233,-4.8086,-4.7939,-4.7645,-4.759,-4.7553,-4.7572,-4.7535,-4.7902,-4.8104,-4.8159,-4.7957,-4.7498,-4.7388,-4.7278,-4.6581,-4.5663,-4.5516,-4.5681,-4.4966,-4.4176,-4.3938,-4.3681,-4.3551,-4.3479,-4.3479,-4.3479,-4.3479,-4.8324,-4.8324,-4.8324,-4.8324,-4.8324,-4.8324,-4.8324,-4.8324,-4.8324,-4.8324,-4.8324,-4.8324,-4.8324,-4.8324,-4.8324,-4.8324,-4.8324,-4.8324,-4.8324,-4.8324,-4.8324,-4.8324,-4.8324,-4.8324,-4.8324,-4.8324,-4.8324,-4.8324,-4.8251,-4.8324,-4.8248,-4.8017,-4.7804,-4.7093,-4.5822,-4.5438,-4.5338,-4.5773,-4.5644,-4.5435,-4.5041,-4.4072,-4.3279,-4.2916,-4.1946,-4.145,-4.1477,-4.2504,-4.3072,-4.3198,-4.3954,-4.427,-4.4305,-4.4305,-4.4287,-4.4433,-4.4617,-4.5168,-4.5645,-4.5828,-4.5975,-4.5865,-4.5828,-4.6287,-4.6581,-4.6691,-4.7149,-4.7608,-4.7755,-4.8049,-4.8195,-4.8288,-4.8269,-4.8251,-4.8324,-4.8324,-4.8324,-4.8324,-4.8324,-4.8324,-4.8324,-4.8471,-4.8526,-4.882,-4.8875,-4.8655,-4.8636,-4.8416,-4.8233,-4.8233,-4.8067,-4.8104,-4.8104,-4.8196,-4.8324,-4.8324,-4.8324,-4.8251,-4.8233,-4.8104,-4.8122,-4.8141,-4.7884,-4.7003,-4.6856,-4.6672,-4.5865,-4.5039,-4.425,-4.3846,-4.3809,-4.3608,-4.3479,-4.3479,-4.3479,-4.8324,-4.8324,-4.8324,-4.8324,-4.8324,-4.8324,-4.8324,-4.8324,-4.8324,-4.8324,-4.8324,-4.8324,-4.8324,-4.8324,-4.8324,-4.8324,-4.8324,-4.8324,-4.8324,-4.8324,-4.8324,-4.8324,-4.8324,-4.8324,-4.8324,-4.8324,-4.8324,-4.8324,-4.8324,-4.8324,-4.8267,-4.8267,-4.8287,-4.7763,-4.6979,-4.6637,-4.6534,-4.6855,-4.6836,-4.659,-4.5928,-4.508,-4.4237,-4.3586,-4.2843,-4.2219,-4.2595,-4.328,-4.4129,-4.4296,-4.4666,-4.5095,-4.5131,-4.5131,-4.5112,-4.5333,-4.581,-4.6232,-4.647,-4.7058,-4.7094,-4.6911,-4.6728,-4.6985,-4.7388,-4.7498,-4.7718,-4.8067,-4.8306,-4.8343,-4.8361,-4.8398,-4.8746,-4.8765,-4.9003,-4.904,-4.8948,-4.8985,-4.9315,-4.9205,-4.9058,-4.9077,-4.9058,-4.9279,-4.9536,-4.926,-4.8985,-4.8728,-4.8453,-4.8343,-4.8324,-4.8324,-4.8324,-4.8324,-4.8324,-4.8324,-4.8324,-4.8324,-4.8324,-4.8324,-4.8306,-4.8251,-4.8288,-4.8306,-4.7847,-4.7333,-4.6728,-4.5993,-4.5149,-4.4562,-4.4305,-4.4011,-4.3589,-4.3479,-4.3479,-4.8324,-4.8324,-4.8324,-4.8324,-4.8324,-4.8324,-4.8324,-4.8324,-4.8324,-4.8324,-4.8324,-4.8324,-4.8324,-4.8324,-4.8324,-4.8324,-4.8324,-4.8324,-4.8324,-4.8324,-4.8324,-4.8324,-4.8324,-4.8324,-4.8324,-4.8324,-4.8324,-4.8324,-4.8324,-4.8324,-4.8324,-4.8324,-4.8324,-4.8101,-4.7952,-4.786,-4.7807,-4.781,-4.7772,-4.7465,-4.681,-4.5922,-4.5088,-4.4314,-4.3467,-4.2891,-4.3116,-4.3819,-4.4283,-4.4735,-4.5311,-4.5735,-4.5938,-4.5938,-4.5938,-4.6195,-4.6801,-4.7021,-4.7223,-4.7865,-4.8049,-4.7865,-4.8031,-4.8213,-4.8158,-4.8067,-4.814,-4.8306,-4.8471,-4.8453,-4.8453,-4.904,-4.9629,-4.9866,-5.0215,-5.0178,-5.0031,-5.0233,-5.0655,-5.0692,-5.0508,-5.0417,-5.027,-5.0362,-5.0215,-5.0031,-4.9756,-4.9462,-4.9095,-4.8379,-4.8361,-4.8324,-4.8324,-4.8324,-4.8324,-4.8324,-4.8324,-4.8324,-4.8324,-4.8324,-4.8324,-4.8324,-4.8324,-4.8324,-4.8324,-4.7884,-4.7076,-4.6526,-4.6012,-4.5498,-4.4966,-4.4488,-4.4103,-4.3589,-4.3479,-4.8324,-4.8324,-4.8324,-4.8324,-4.8324,-4.8324,-4.8324,-4.8324,-4.8324,-4.8324,-4.8324,-4.8324,-4.8324,-4.8324,-4.8324,-4.8324,-4.8324,-4.8324,-4.8324,-4.8324,-4.8324,-4.8324,-4.8324,-4.8324,-4.8324,-4.8324,-4.8324,-4.8324,-4.8324,-4.8324,-4.8324,-4.8324,-4.8324,-4.8324,-4.8324,-4.8324,-4.8324,-4.8324,-4.8324,-4.7937,-4.7428,-4.652,-4.5745,-4.4973,-4.4314,-4.3837,-4.4009,-4.4878,-4.5394,-4.5818,-4.6348,-4.6727,-4.6746,-4.6782,-4.6856,-4.7553,-4.7865,-4.7938,-4.7994,-4.8177,-4.8361,-4.8398,-4.8379,-4.8324,-4.8306,-4.8434,-4.8471,-4.8691,-4.9003,-4.915,-4.9389,-4.9884,-5.0325,-5.0637,-5.0967,-5.1041,-5.093,-5.1041,-5.1444,-5.1426,-5.1279,-5.1279,-5.1187,-5.1077,-5.0912,-5.0784,-5.0582,-5.0288,-4.9848,-4.9187,-4.8618,-4.8581,-4.8508,-4.8563,-4.8361,-4.8324,-4.8324,-4.8324,-4.8324,-4.8324,-4.8324,-4.8324,-4.8324,-4.8324,-4.8324,-4.7883,-4.7223,-4.6837,-4.6709,-4.6122,-4.559,-4.5094,-4.4617,-4.4232,-4.3846,-4.8324,-4.8324,-4.8324,-4.8324,-4.8324,-4.8324,-4.8324,-4.8324,-4.8324,-4.8324,-4.8324,-4.8324,-4.8324,-4.8324,-4.8324,-4.8324,-4.8324,-4.8324,-4.8324,-4.8324,-4.8324,-4.8324,-4.8324,-4.8324,-4.8324,-4.8324,-4.8324,-4.8324,-4.8324,-4.8324,-4.8324,-4.8324,-4.8324,-4.8324,-4.8324,-4.8324,-4.8324,-4.8324,-4.8229,-4.7917,-4.7449,-4.6955,-4.6377,-4.5622,-4.5089,-4.4879,-4.4748,-4.5673,-4.6063,-4.643,-4.6894,-4.7204,-4.7108,-4.7007,-4.7102,-4.7632,-4.7806,-4.7982,-4.8155,-4.825,-4.8508,-4.8728,-4.882,-4.9077,-4.9114,-4.9224,-4.9297,-4.9462,-4.9811,-5.0123,-5.0417,-5.0729,-5.1004,-5.1298,-5.1555,-5.1793,-5.1811,-5.1793,-5.1848,-5.1828,-5.1846,-5.1864,-5.183,-5.172,-5.1738,-5.1811,-5.1646,-5.1261,-5.082,-5.0251,-4.9536,-4.9114,-4.8967,-4.8857,-4.8618,-4.8379,-4.8324,-4.8324,-4.8324,-4.8324,-4.8324,-4.8324,-4.8324,-4.8324,-4.8324,-4.7901,-4.7571,-4.7608,-4.7443,-4.6893,-4.6471,-4.614,-4.5736,-4.5259,-4.4911,-4.8324,-4.8324,-4.8324,-4.8324,-4.8324,-4.8324,-4.8324,-4.8324,-4.8324,-4.8324,-4.8324,-4.8324,-4.8324,-4.8324,-4.8324,-4.8324,-4.8324,-4.8324,-4.8324,-4.8324,-4.8324,-4.8324,-4.8324,-4.8324,-4.8324,-4.8324,-4.8324,-4.8324,-4.8324,-4.8324,-4.8324,-4.8324,-4.8324,-4.8324,-4.8324,-4.8324,-4.8324,-4.8343,-4.8395,-4.8273,-4.7609,-4.7216,-4.6842,-4.5833,-4.5459,-4.5267,-4.5015,-4.5258,-4.5757,-4.6336,-4.6851,-4.7191,-4.7042,-4.6807,-4.6923,-4.7223,-4.7512,-4.8059,-4.8408,-4.8636,-4.9058,-4.9408,-4.9721,-5.0068,-5.0196,-4.9958,-4.9976,-5.0215,-5.0545,-5.082,-5.1096,-5.161,-5.1995,-5.216,-5.2325,-5.2509,-5.2525,-5.2525,-5.2525,-5.2543,-5.2543,-5.2561,-5.2561,-5.247,-5.2415,-5.269,-5.2619,-5.216,-5.183,-5.1316,-5.06,-4.9866,-4.9445,-4.9187,-4.882,-4.8581,-4.8361,-4.8324,-4.8361,-4.8324,-4.8324,-4.8324,-4.8324,-4.8324,-4.8324,-4.8324,-4.8122,-4.8067,-4.7993,-4.7846,-4.748,-4.7259,-4.6874,-4.6379,-4.581,-4.8324,-4.8324,-4.8324,-4.8324,-4.8324,-4.8324,-4.8324,-4.8324,-4.8324,-4.8324,-4.8324,-4.8324,-4.8324,-4.8324,-4.8324,-4.8324,-4.8324,-4.8324,-4.8324,-4.8324,-4.8324,-4.8324,-4.8324,-4.8324,-4.8324,-4.8324,-4.8324,-4.8343,-4.8453,-4.8416,-4.8361,-4.8379,-4.8471,-4.8581,-4.8563,-4.8563,-4.8581,-4.8673,-4.8964,-4.8713,-4.7901,-4.7414,-4.6955,-4.631,-4.5945,-4.5658,-4.5457,-4.545,-4.5597,-4.5808,-4.6336,-4.6594,-4.6618,-4.6495,-4.6791,-4.7255,-4.7605,-4.8265,-4.8937,-4.9315,-4.9719,-5.0196,-5.06,-5.1041,-5.1151,-5.0765,-5.071,-5.1004,-5.1261,-5.1536,-5.1848,-5.2417,-5.2839,-5.2949,-5.3041,-5.3093,-5.3185,-5.3185,-5.3185,-5.3185,-5.3185,-5.3185,-5.3185,-5.3185,-5.3185,-5.3148,-5.3075,-5.2894,-5.2821,-5.2396,-5.1701,-5.0912,-4.9978,-4.9574,-4.9224,-4.8985,-4.8875,-4.8581,-4.8526,-4.8453,-4.8343,-4.8324,-4.8324,-4.8324,-4.8324,-4.8324,-4.8324,-4.8288,-4.8232,-4.8213,-4.8158,-4.7791,-4.781,-4.748,-4.6801,-4.8324,-4.8324,-4.8324,-4.8324,-4.8324,-4.8324,-4.8324,-4.8324,-4.8324,-4.8324,-4.8324,-4.8324,-4.8324,-4.8324,-4.8324,-4.8324,-4.8324,-4.8324,-4.8324,-4.8324,-4.8324,-4.8324,-4.8324,-4.8324,-4.8324,-4.8324,-4.8343,-4.8416,-4.8783,-4.893,-4.8985,-4.926,-4.9352,-4.9315,-4.9352,-4.937,-4.9334,-4.9481,-4.9903,-4.9576,-4.8813,-4.8732,-4.8321,-4.7666,-4.7139,-4.6682,-4.6148,-4.611,-4.6284,-4.6427,-4.6933,-4.7343,-4.7428,-4.7297,-4.7624,-4.8236,-4.8699,-4.8965,-4.9779,-5.0253,-5.0527,-5.1041,-5.1334,-5.1701,-5.2344,-5.205,-5.2032,-5.227,-5.2307,-5.2527,-5.2546,-5.2968,-5.3041,-5.3093,-5.3112,-5.3167,-5.3185,-5.3185,-5.3185,-5.3185,-5.3185,-5.3185,-5.3185,-5.3185,-5.3185,-5.3185,-5.3167,-5.3167,-5.3185,-5.3185,-5.2543,-5.2032,-5.1114,-5.0417,-5.0123,-4.9829,-4.9572,-4.9224,-4.8875,-4.8618,-4.8526,-4.8398,-4.8324,-4.8324,-4.8324,-4.8324,-4.8324,-4.8324,-4.8324,-4.8288,-4.8288,-4.8233,-4.8324,-4.8324,-4.7719,-4.8324,-4.8324,-4.8324,-4.8324,-4.8324,-4.8324,-4.8324,-4.8324,-4.8324,-4.8324,-4.8324,-4.8324,-4.8324,-4.8324,-4.8324,-4.8324,-4.8324,-4.8324,-4.8324,-4.8324,-4.8324,-4.8324,-4.8324,-4.8324,-4.8434,-4.8563,-4.8655,-4.915,-4.9701,-4.9774,-5.005,-5.0692,-5.082,-5.0784,-5.082,-5.0765,-5.0563,-5.0545,-5.0747,-5.093,-5.0874,-5.0819,-4.9858,-4.9209,-4.8717,-4.8137,-4.7317,-4.691,-4.7147,-4.7232,-4.732,-4.7665,-4.791,-4.7831,-4.854,-4.9046,-4.9432,-4.9992,-5.0714,-5.0986,-5.1444,-5.1885,-5.205,-5.2399,-5.3002,-5.3112,-5.3093,-5.3093,-5.313,-5.313,-5.3148,-5.3167,-5.3185,-5.3185,-5.3185,-5.3185,-5.3185,-5.3185,-5.3185,-5.3185,-5.3185,-5.3185,-5.3185,-5.3185,-5.3185,-5.3185,-5.3185,-5.3185,-5.3185,-5.3185,-5.291,-5.2745,-5.238,-5.1756,-5.1096,-5.06,-5.0251,-5.0013,-4.9646,-4.9132,-4.8746,-4.8728,-4.86,-4.8324,-4.8324,-4.8324,-4.8324,-4.8324,-4.8324,-4.8324,-4.8324,-4.8324,-4.8324,-4.8324,-4.8324,-4.8324,-4.8324,-4.8324,-4.8324,-4.8324,-4.8324,-4.8324,-4.8324,-4.8324,-4.8324,-4.8324,-4.8324,-4.8324,-4.8324,-4.8324,-4.8324,-4.8324,-4.8324,-4.8324,-4.8324,-4.8453,-4.8398,-4.8471,-4.8765,-4.882,-4.9077,-4.9407,-4.9848,-5.0453,-5.0582,-5.0655,-5.0967,-5.093,-5.0912,-5.0894,-5.093,-5.1096,-5.1224,-5.1555,-5.1775,-5.1534,-5.1174,-5.0375,-4.9699,-4.9054,-4.8355,-4.7644,-4.7055,-4.6944,-4.6944,-4.7174,-4.7629,-4.8033,-4.839,-4.9018,-4.9869,-5.0218,-5.0838,-5.1428,-5.1736,-5.2215,-5.2656,-5.2784,-5.2839,-5.3167,-5.3167,-5.3148,-5.3148,-5.3167,-5.3167,-5.3185,-5.3185,-5.3185,-5.3185,-5.3185,-5.3185,-5.3185,-5.3185,-5.3185,-5.3185,-5.3185,-5.3185,-5.3185,-5.3185,-5.3185,-5.3185,-5.3185,-5.3185,-5.3185,-5.3185,-5.3185,-5.306,-5.2999,-5.2692,-5.1885,-5.1279,-5.0894,-5.0692,-5.038,-4.9793,-4.9389,-4.9224,-4.9022,-4.8728,-4.8416,-4.8324,-4.8324,-4.8324,-4.8324,-4.8324,-4.8324,-4.8324,-4.8324,-4.8324,-4.8324]},{"header":{"parameterUnit":"m.s-1","parameterCategory":1,"la1":31.0,"la2":29.5877,"lo1":-88.7671,"lo2":-86.6584,"dy":0.0162,"dx":0.0185,"nx":115,"ny":88,"refTime":"2026-04-23T12:00:00:Z","depth":0,"parameterNumber":3,"parameterNumberName":"V-component_of_WINDS"},"data":[0.0,0.0,0.0,0.0,0.0,0.0,0.0,0.0,0.0,0.0,0.0,0.0,0.0,0.0,0.0,0.0,0.0,0.0,0.0,0.0,0.0,0.0,0.0,0.0,0.0,0.0,0.0,0.0,0.0,0.0,0.0,0.0,0.0,0.0,0.0,0.0,0.0,0.0,0.0,0.0,0.0,0.0,0.0,0.0,0.0,0.0,0.0,0.0,0.0,0.0,0.0,0.0,0.0,0.0,0.0,0.0,0.0,0.0,0.0,0.0,0.0,0.0,0.0,0.0,0.0,0.0,0.0,0.0,0.0,0.0,0.0,0.0,0.0,0.0,0.0,0.0,0.0,0.0,0.0,0.0,0.0,0.0,0.0,0.0,0.0,0.0,0.0,0.0,0.0,0.0,0.0,0.0,0.0,0.0,0.0,0.0,0.0,0.0,0.0,0.0,0.0,0.0,0.0,0.0,0.0,0.0,0.0,0.0,0.0,0.0,0.0,0.0,0.0,0.0,0.0,0.0,0.0,0.0,0.0,0.0,0.0,0.0,0.0,0.0,0.0,0.0,0.0,0.0,0.0,0.0,0.0,0.0,0.0,0.0,0.0,0.0,0.0,0.0,0.0,0.0,0.0,0.0,0.0,0.0,0.0,0.0,0.0,0.0,0.0,0.0,0.0,0.0,0.0,0.0,0.0,0.0,0.0,0.0,0.0,0.0,0.0,0.0,0.0,0.0,0.0,0.0,0.0,0.0,0.0,0.0,0.0,0.0,0.0,0.0,0.0,0.0,0.0,0.0,0.0,0.0,0.0,0.0,0.0,0.0,0.0,0.0,0.0,0.0,0.0,0.0,0.0,0.0,0.0,0.0,0.0,0.0,0.0,0.0,0.0,0.0,0.0,0.0,0.0,0.0,0.0,0.0,0.0,0.0,0.0,0.0,0.0,0.0,0.0,0.0,0.0,0.0,0.0,0.0,0.0,0.0,0.0,0.0,0.0,0.0,0.0,0.0,0.0,0.0,0.0,0.0,0.0,0.0,0.0,0.0,0.0,0.0,0.0,0.0,0.0,0.0,0.0,0.0,0.0,0.0,0.0,0.0,0.0,0.0,0.0,0.0,0.0,0.0,0.0,0.0,0.0,0.0,0.0,0.0,0.0,0.0,0.0,0.0,0.0,0.0,0.0,0.0,0.0,0.0,0.0,0.0,0.0,0.0,0.0,0.0,0.0,0.0,0.0,0.0,0.0,0.0,0.0,0.0,0.0,0.0,0.0,0.0,0.0,0.0,0.0,0.0,0.0,0.0,0.0,0.0,0.0,0.0,0.0,0.0,0.0,0.0,0.0,0.0,0.0,0.0,0.0,0.0,0.0,0.0,0.0,0.0,0.0,0.0,0.0,0.0,0.0,0.0,0.0,0.0,0.0,0.0,0.0,0.0,0.0,0.0,0.0,0.0,0.0,0.0,0.0,0.0,0.0,0.0,0.0,0.0,0.0,0.0,0.0,0.0,0.0,0.0,0.0,0.0,0.0,0.0,0.0,0.0,0.0,0.0,0.0,0.0,0.0,0.0,0.0,0.0,0.0,0.0,0.0,0.0,0.0,0.0,0.0,0.0,0.0,0.0,0.0,0.0,0.0,0.0,0.0,0.0,0.0,0.0,0.0,0.0,0.0,0.0,0.0,0.0,0.0,0.0,0.0,0.0,0.0,0.0,0.0,0.0,0.0,0.0,0.0,0.0,0.0,0.0,0.0,0.0,0.0,0.0,0.0,0.0,0.0,0.0,0.0,0.0,0.0,0.0,0.0,0.0,0.0,0.0,0.0,0.0,0.0,0.0,0.0,0.0,0.0,0.0,0.0,0.0,0.0,0.0,0.0,0.0,0.0,0.0,0.0,0.0,0.0,0.0,0.0,0.0,0.0,0.0,0.0,0.0,0.0,0.0,0.0,0.0,0.0,0.0,0.0,0.0,0.0,0.0,0.0,0.0,0.0,0.0,0.0,0.0,0.0,0.0,0.0,0.0,0.0,0.0,0.0,0.0,0.0,0.0,0.0,0.0,0.0,0.0,0.0,0.0,0.0,0.0,0.0,0.0,0.0,0.0,0.0,0.0,0.0,0.0,0.0,0.0,0.0,0.0,0.0,0.0,0.0,0.0,0.0,0.0,0.0,0.0,0.0,0.0,0.0,0.0,0.0,0.0,0.0,0.0,0.0,0.0,0.0,0.0,0.0,0.0,0.0,0.0,0.0,0.0,0.0,0.0,0.0,0.0,0.0,0.0,0.0,0.0,0.0,0.0,0.0,0.0,0.0,0.0,0.0,0.0,0.0,0.0,0.0,0.0,0.0,0.0,0.0,0.0,0.0,0.0,0.0,0.0,0.0,0.0,0.0,0.0,0.0,0.0,0.0,0.0,0.0,0.0,0.0,0.0,0.0,0.0,0.0,0.0,0.0,0.0,0.0,0.0,0.0,0.0,0.0,0.0,0.0,0.0,0.0,0.0,0.0,0.0,0.0,0.0,0.0,0.0,0.0,0.0,0.0,0.0,0.0,0.0,0.0,0.0,0.0,0.0,0.0,0.0,0.0,0.0,0.0,0.0,0.0,0.0,0.0,0.0,0.0,0.0,0.0,0.0,0.0,0.0,0.0,0.0,0.0,0.0,0.0,0.0,0.0,0.0,0.0,0.0,0.0,0.0,0.0,0.0,0.0,0.0,0.0,0.0,0.0,0.0,0.0,0.0,0.0,0.0,0.0,0.0,0.0,0.0,0.0,0.0,0.0,0.0,0.0,0.0,0.0,0.0,0.0,0.0,0.0,0.0,0.0,0.0,0.0,0.0,0.0,0.0,0.0,0.0,0.0,0.0,0.0,0.0,0.0,0.0,0.0,0.0,0.0,0.0,0.0,0.0,0.0,0.0,0.0,0.0,0.0,0.0,0.0,0.0,0.0,0.0,0.0,0.0,0.0,0.0,0.0,0.0,0.0,0.0,0.0,0.0,0.0,0.0,0.0,0.0,0.0,0.0,0.0,0.0,0.0,0.0,0.0,0.0,0.0,0.0,0.0,0.0,0.0,0.0,0.0,0.0,0.0,0.0,0.0,0.0,0.0,0.0,0.0,0.0,0.0,0.0,0.0,0.0,0.0,0.0,0.0,0.0,0.0,0.0,0.0,0.0,0.0,0.0,0.0,0.0,0.0,0.0,0.0,0.0,0.0,0.0,0.0,0.0,0.0,0.0,0.0,0.0,0.0,0.0,0.0,0.0,0.0,0.0,0.0,0.0,0.0,0.0,0.0,0.0,0.0,0.0,0.0,0.0,0.0,0.0,0.0,0.0,0.0,0.0,0.0,0.0,0.0,0.0,0.0,0.0,0.0,0.0,0.0,0.0,0.0,0.0,0.0,0.0,0.0,0.0,0.0,0.0,0.0,0.0,0.0,0.0,0.0,0.0,0.0,0.0,0.0,0.0,0.0,0.0,0.0,0.0,0.0,0.0,0.0,0.0,0.0,0.0,0.0,0.0,0.0,0.0,0.0,0.0,0.0,0.0,0.0,0.0,0.0,0.0,0.0,0.0,0.0,0.0,0.0,0.0,0.0,0.0,0.0,0.0,0.0,0.0,0.0,0.0,0.0,0.0,0.0,0.0,0.0,0.0,0.0,0.0,0.0,0.0,0.0,0.0,0.0,0.0,0.0,0.0,0.0,0.0,0.0,0.0,0.0,0.0,0.0,0.0,0.0,0.0,0.0,0.0,0.0,0.0,0.0,0.0,0.0,0.0,0.0,0.0,0.0,0.0,0.0,0.0,0.0,0.0,0.0,0.0,0.0,0.0,0.0,0.0,0.0,0.0,0.0,0.0,0.0,0.0,0.0,0.0,0.0,0.0,0.0,0.0,0.0,0.0,0.0,0.0,0.0,0.0,0.0,0.0,0.0,0.0,0.0,0.0,0.0,0.0,0.0,0.0,0.0,0.0,0.0,0.0,0.0,0.0,0.0,0.0,0.0,0.0,0.0,0.0,0.0,0.0,0.0,0.0,0.0,0.0,0.0,0.0,0.0,0.0,0.0,0.0,0.0,0.0,0.0,0.0,0.0,0.0,0.0,0.0,0.0,0.0,0.0,0.0,0.0,0.0,0.0,0.0,0.0,0.0,0.0,0.0,0.0,0.0,0.0,0.0,0.0,0.0,0.0,0.0,0.0,0.0,0.0,0.0,0.0,0.0,0.0,0.0,0.0,0.0,0.0,0.0,0.0,0.0,0.0,0.0,0.0,0.0,0.0,0.0,0.0,0.0,0.8335,0.0,0.0,0.0,0.0,0.0,0.0,0.0,0.0,0.0,0.0,0.0,0.0,0.0,0.0,0.0,0.0,0.0,0.0,0.0,0.0,0.0,0.0,0.0,0.0,0.0,0.0,0.0,0.0,0.0,0.0,0.0,0.0,0.0,0.0,0.0,0.0,0.0,0.0,0.0,0.0,0.0,0.0,0.0,0.0,0.0,0.0,0.0,0.0,0.0,0.0,0.0,0.0,0.0,0.0,0.0,0.0,0.0,0.0,0.0,0.0,0.0,0.0,0.0,0.0,0.0,0.0,0.0,0.0,0.0,0.0,0.0,0.0,0.0,0.0,0.0,0.0,0.0,0.0,0.0,0.0,0.0,0.0,0.0,0.0,0.0,0.0,0.0,0.0,0.0,0.0,0.0,0.0,0.0,0.0,0.0,0.0,0.0,0.0,0.0,0.0,0.0,0.0,0.0,0.0,0.0,0.0,0.0,0.0,0.0,0.0,0.9893,0.988,0.939,0.8934,0.8621,0.0,0.0,0.0,0.0,0.0,0.0,0.0,0.0,0.0,0.0,0.0,0.0,0.0,0.0,0.0,0.0,0.0,0.0,0.0,0.0,0.0,0.0,0.0,0.0,0.0,0.0,0.0,0.0,0.0,0.0,0.0,0.0,0.0,0.0,0.0,0.0,0.0,0.0,0.0,0.0,0.0,0.0,0.0,0.0,0.0,0.0,0.0,0.0,0.0,0.0,0.0,0.0,0.0,0.0,0.0,0.0,0.0,0.0,0.0,0.0,0.0,0.0,0.0,0.0,0.0,0.0,0.0,0.0,0.0,0.0,0.0,0.0,0.0,0.0,0.0,0.0,0.0,0.0,0.0,0.0,0.0,0.0,0.0,0.0,0.0,0.0,0.0,0.0,0.0,0.0,0.0,0.0,0.0,0.0,0.0,0.0,0.0,0.0,0.0,0.0,0.0,0.0,0.0,0.0,0.0,0.0,0.0,0.0,0.0,0.0,0.0,0.0,0.9881,0.9566,0.9351,0.0,0.0,0.0,0.0,0.0,0.0,0.0,0.0,0.0,0.0,0.0,0.0,0.0,0.0,0.0,0.0,0.0,0.0,0.0,0.0,0.0,0.0,0.0,0.0,0.0,0.0,0.0,0.0,0.0,0.0,0.0,0.0,0.0,0.0,0.0,0.0,0.0,0.0,0.0,0.0,0.0,0.0,0.0,0.0,0.0,0.0,0.0,0.0,0.0,0.0,0.0,0.0,0.0,0.0,0.0,0.0,0.0,0.0,0.0,0.0,0.0,0.0,0.0,0.0,0.0,0.0,0.0,0.0,0.0,0.0,0.0,0.0,0.0,0.0,0.0,0.0,0.0,0.0,0.0,0.0,0.0,0.0,0.0,0.0,0.0,0.0,0.0,0.0,0.0,0.0,0.0,0.0,0.0,0.0,0.0,0.0,0.0,0.0,0.0,0.0,0.0,0.0,0.0,0.0,0.0,0.0,0.0,0.0,0.0,0.0,1.0395,1.1414,1.1377,0.0,1.128,0.0,0.0,0.0,0.0,0.0,0.0,0.0,0.0,0.0,0.0,0.0,0.0,0.0,0.0,0.0,0.0,0.0,0.0,0.0,0.0,0.0,0.0,0.0,0.0,0.0,0.0,0.0,0.0,0.0,0.0,0.0,0.0,0.0,0.0,0.0,0.0,0.0,0.0,0.0,0.0,0.0,0.0,0.0,0.0,0.0,0.0,0.0,0.0,0.0,0.0,0.0,0.0,0.0,0.0,0.0,0.0,0.0,0.0,0.0,0.0,0.0,0.0,0.0,0.0,0.0,0.0,0.0,0.0,0.0,0.0,0.0,0.0,0.0,0.0,0.0,0.0,0.0,0.0,0.0,0.0,0.0,0.0,0.0,0.0,0.0,0.0,0.0,0.0,0.0,0.0,0.0,0.0,0.0,0.0,0.0,0.0,0.0,0.0,0.0,0.0,0.0,0.0,0.0,0.0,0.0,0.0,0.0,0.0,0.0,0.0,0.0,1.159,1.1261,1.1059,0.0,0.0,0.0,0.0,0.0,0.0,0.0,0.0,0.0,0.0,0.0,0.0,0.0,0.0,0.0,0.0,0.0,0.0,0.0,0.0,0.0,0.0,0.0,0.0,0.0,0.0,0.0,0.0,0.0,0.0,0.0,0.0,0.0,0.0,0.0,0.0,0.0,0.0,0.0,0.0,0.0,0.0,0.0,0.0,0.0,0.0,0.0,0.0,0.0,0.0,0.0,0.0,0.0,0.0,0.0,0.0,0.0,0.0,0.0,0.0,0.0,0.0,0.0,0.0,0.0,0.0,0.0,0.0,0.0,0.0,0.0,0.0,0.0,0.0,0.0,0.0,0.0,0.0,0.0,0.0,0.0,0.0,0.0,0.0,0.0,0.0,0.0,0.0,0.0,0.0,0.0,0.0,0.0,0.0,0.0,0.0,0.0,0.0,0.0,0.0,0.0,0.0,0.0,0.0,0.0,0.0,0.0,0.0,0.0,0.0,1.1221,0.0,1.2002,1.1638,1.1169,1.0706,0.0,0.0,0.0,0.0,0.0,0.0,0.0,0.0,0.0,0.0,0.0,0.0,0.0,0.0,0.0,0.0,0.0,0.0,0.0,0.0,0.0,0.0,0.0,0.0,0.0,0.0,0.0,0.0,0.0,0.0,0.0,0.0,0.0,0.0,0.0,0.0,0.0,0.0,0.0,0.0,0.0,0.0,0.0,0.0,0.0,0.0,0.0,0.0,0.0,0.0,0.0,0.0,0.0,0.0,0.0,0.0,0.0,0.0,0.0,0.0,0.0,0.0,0.0,0.0,0.0,0.0,0.0,0.0,0.0,0.0,0.0,0.0,0.0,0.0,0.0,0.0,0.0,0.0,0.0,0.0,0.0,0.0,0.0,0.0,0.0,0.0,0.0,0.0,0.0,0.0,0.0,0.0,0.0,0.0,0.0,0.0,0.0,0.0,0.0,0.0,0.0,0.0,0.0,0.0,0.0,0.0,0.0,0.0,0.0,1.1692,1.17,1.3051,1.3085,1.2334,0.0,0.0,0.0,0.0,0.0,0.0,0.0,0.0,0.0,0.0,0.0,0.0,0.0,0.0,0.0,0.0,0.0,0.0,0.0,0.0,0.0,0.0,0.0,0.0,0.0,0.0,0.0,0.0,0.0,0.0,0.0,0.0,0.0,0.0,0.0,0.0,0.0,0.0,0.0,0.0,0.0,0.0,0.0,0.0,0.0,0.0,0.0,0.0,0.0,0.0,0.0,0.0,0.0,0.0,0.0,0.0,0.0,0.0,0.0,0.0,0.0,0.0,0.0,0.0,0.0,0.0,0.0,0.0,0.0,0.0,0.0,0.0,0.0,0.0,0.0,0.0,0.0,0.0,0.0,0.0,0.0,0.0,0.0,0.0,0.0,0.0,0.0,0.0,0.0,0.0,0.0,0.0,0.0,0.0,0.0,0.0,0.0,0.0,0.0,0.0,0.0,0.0,0.0,0.0,0.0,0.0,0.0,0.0,0.0,1.0293,1.0572,1.1709,1.3716,1.1879,1.0929,0.0,0.0,0.0,0.0,0.0,0.0,0.0,0.0,0.0,0.0,0.0,0.0,0.0,0.0,0.0,0.0,0.0,0.0,0.0,0.0,0.0,0.0,0.0,0.0,0.0,0.0,0.0,0.0,0.0,0.0,0.0,0.0,0.0,0.0,0.0,0.0,0.0,0.0,0.0,0.0,0.0,0.0,0.0,0.0,0.0,0.0,0.0,0.0,0.0,0.0,0.0,0.0,0.0,0.0,0.0,0.0,0.0,0.0,0.0,0.0,0.0,0.0,0.0,0.0,0.0,0.0,0.0,0.0,0.0,0.0,0.0,0.0,0.0,0.0,0.0,0.0,0.0,0.0,0.0,0.0,0.0,0.0,0.0,0.0,0.0,0.0,0.0,0.0,0.0,0.0,0.0,0.0,0.0,0.0,0.0,0.0,0.0,0.0,0.0,0.0,0.0,0.0,0.0,0.0,0.0,0.0,0.0,0.0,0.0,0.9363,0.0,1.2002,0.0,1.1202,1.0016,0.0,0.0,0.0,0.0,0.0,0.0,0.0,0.0,0.0,0.0,0.0,0.0,0.0,0.0,0.0,0.0,0.0,0.0,0.0,0.0,0.0,0.0,0.0,0.0,0.0,0.0,0.0,0.0,0.0,0.0,0.0,0.0,0.0,0.0,0.0,0.0,0.0,0.0,0.0,0.0,0.0,0.0,0.0,0.0,0.0,0.0,0.0,0.0,0.0,0.0,0.0,0.0,0.0,0.0,0.0,0.0,0.0,0.0,0.0,0.0,0.0,0.0,0.0,0.0,0.0,0.0,0.0,0.0,0.0,0.0,0.0,0.0,0.0,0.0,0.0,0.0,0.0,0.0,0.0,0.0,0.0,0.0,0.0,0.0,0.0,0.0,0.0,0.0,0.0,0.0,0.0,0.0,0.0,0.0,0.0,0.0,0.0,0.0,0.0,0.0,0.0,0.0,0.0,0.0,0.0,0.0,0.0,0.0,0.7855,1.045,1.2017,1.2441,1.183,1.1254,0.9904,0.0,0.0,0.0,0.0,0.0,0.0,0.0,0.0,0.0,0.0,0.0,0.0,0.0,0.0,0.0,0.0,0.0,0.0,0.0,0.0,0.0,0.0,0.0,0.0,0.0,0.0,0.0,0.0,0.0,0.0,0.0,0.0,0.0,0.0,0.0,0.0,0.0,0.0,0.0,0.0,0.0,0.0,0.0,0.0,0.0,0.0,0.0,0.0,0.0,0.0,0.0,0.0,0.0,0.0,0.0,0.0,0.0,0.0,0.0,0.0,0.0,0.0,0.0,0.0,0.0,0.0,0.0,0.0,0.0,0.0,0.0,0.0,0.0,0.0,0.0,0.0,0.0,0.0,0.0,0.0,0.0,0.0,0.0,0.0,0.0,0.0,0.0,0.0,0.0,0.0,0.0,0.0,0.0,0.0,0.0,0.0,0.0,0.0,0.0,0.0,0.0,0.0,0.0,0.0,0.0,0.0,0.0,0.0,0.0,0.8384,0.9749,1.0822,1.1511,1.0193,0.9547,0.0,0.0,0.0,0.0,0.0,0.0,0.0,0.0,0.0,0.0,0.0,0.0,0.0,0.0,0.0,0.0,0.0,0.0,0.0,0.0,0.0,0.0,0.0,0.0,0.0,0.0,0.0,0.0,0.0,0.0,0.0,0.0,0.0,0.0,0.0,0.0,0.0,0.0,0.0,0.0,0.0,0.0,0.0,0.0,0.0,0.0,0.0,0.0,0.0,0.0,0.0,0.0,0.0,0.0,0.0,0.0,0.0,0.0,0.0,0.0,0.0,0.0,0.0,0.0,0.0,0.0,0.0,0.0,0.0,0.0,0.0,0.0,0.0,0.0,0.0,0.0,0.0,0.0,0.0,0.0,0.0,0.0,0.0,0.0,0.0,0.0,0.0,0.0,0.0,0.0,0.0,0.0,0.0,0.0,0.0,0.0,0.0,0.0,0.0,0.0,0.0,0.0,0.0,0.0,0.0,0.0,0.0,0.0,0.0,0.7984,0.9447,1.0582,1.1305,0.999,0.9497,0.9914,0.0,0.0,0.0,0.0,0.0,0.0,0.0,0.0,0.0,0.0,0.0,0.0,0.0,0.0,0.0,0.0,0.0,0.0,0.0,0.0,0.0,0.0,0.0,0.0,0.0,0.0,0.0,0.0,0.0,0.0,0.0,0.0,0.0,0.0,0.0,0.0,0.0,0.0,0.0,0.0,0.0,0.0,0.0,0.0,0.0,0.0,0.0,0.0,0.0,0.0,0.0,0.0,0.0,0.0,0.0,0.0,0.0,0.0,0.0,0.0,0.0,0.0,0.0,0.0,0.0,0.0,0.0,0.0,0.0,0.0,0.0,0.0,0.0,0.0,0.0,0.0,0.0,0.0,0.0,0.0,0.0,0.0,0.0,0.0,0.0,0.0,0.0,0.0,0.0,0.0,0.0,0.0,0.0,0.0,0.0,0.0,0.0,0.0,0.0,0.0,0.0,0.0,0.0,0.0,0.0,0.0,0.0,0.0,0.8844,1.0767,1.1529,1.105,1.0597,0.9774,0.0,0.0,0.0,0.0,0.0,0.0,0.0,0.0,0.0,0.0,0.0,0.0,0.0,0.0,0.0,0.0,0.0,0.0,0.0,0.0,0.0,0.0,0.0,0.0,0.0,0.0,0.0,0.0,0.0,0.0,0.0,0.0,0.0,0.0,0.0,0.0,0.0,0.0,0.0,0.0,0.0,0.0,0.0,0.0,0.0,0.0,0.0,0.0,0.0,0.0,0.0,0.0,0.0,0.0,0.0,0.0,0.0,0.0,0.0,0.0,0.0,0.0,0.0,0.0,0.0,0.0,0.0,0.0,0.0,0.0,0.0,0.0,0.0,0.0,0.0,0.0,0.0,0.0,0.0,0.0,0.0,0.0,0.0,0.0,0.0,0.0,0.0,0.0,0.0,0.0,0.0,0.0,0.0,0.0,0.0,0.0,0.0,0.0,0.0,0.0,0.0,0.0,0.0,0.0,0.0,0.0,0.0,0.0,0.0,0.9475,1.0664,1.1344,1.1519,1.1343,1.0924,0.0,0.0,0.0,0.0,0.0,0.0,0.0,0.0,0.0,0.0,0.0,0.0,0.0,0.0,0.0,0.0,0.0,0.0,0.0,0.0,0.0,0.0,0.0,0.0,0.0,0.0,0.0,0.0,0.0,0.0,0.0,0.0,0.0,0.0,0.0,0.0,0.0,0.0,0.0,0.0,0.0,0.0,0.0,0.0,0.0,0.0,0.0,0.0,0.0,0.0,0.0,0.0,0.0,0.0,0.0,0.0,0.0,0.0,0.0,0.0,0.0,0.0,0.0,0.0,0.0,0.0,0.0,0.0,0.0,0.0,0.0,0.0,0.0,0.0,0.0,0.0,0.0,0.0,0.0,0.0,0.0,0.0,0.0,0.0,0.0,0.0,0.0,0.0,0.0,0.0,0.0,0.0,0.0,0.0,0.0,0.0,0.0,0.0,0.0,0.0,0.0,0.0,0.0,0.0,0.0,0.0,0.0,0.0,0.932,1.007,1.1188,1.1958,1.2338,1.2058,1.1666,0.0,0.0,0.0,0.0,0.0,0.0,0.0,0.0,0.0,0.0,0.0,0.0,0.0,0.0,0.0,0.0,0.0,0.0,0.0,0.0,0.0,0.0,0.0,0.0,0.0,0.0,0.0,0.0,0.0,0.0,0.0,0.0,0.0,0.0,0.0,0.0,0.0,0.0,0.0,0.0,0.0,0.0,0.0,0.0,0.0,0.0,0.0,0.0,0.0,0.0,0.0,0.0,0.0,0.0,0.0,0.0,0.0,0.0,0.0,0.0,0.0,0.0,0.0,0.0,0.0,0.0,0.0,0.0,0.0,0.0,0.0,0.0,0.0,0.0,0.0,0.0,0.0,0.0,0.0,0.0,0.0,0.0,0.0,0.0,0.0,0.0,0.0,0.0,0.0,0.0,0.0,0.0,0.0,0.0,0.0,0.0,0.0,0.0,0.0,0.0,0.0,0.0,0.0,0.0,0.0,0.0,0.0,0.0,1.0013,1.0626,1.1935,1.282,1.318,1.2629,1.2168,0.0,0.0,0.0,0.0,0.0,0.0,0.0,0.0,0.0,0.0,0.0,0.0,0.0,0.0,0.0,0.0,0.0,0.0,0.0,0.0,0.0,0.0,0.0,0.0,0.0,0.0,0.0,0.0,0.0,0.0,0.0,0.0,0.0,0.0,0.0,0.0,0.0,0.0,0.0,0.0,0.0,0.0,0.0,0.0,0.0,0.0,0.0,0.0,0.0,0.0,0.0,0.0,0.0,0.0,0.0,0.0,0.0,0.0,0.0,0.0,0.0,0.0,0.0,0.0,0.0,0.0,0.0,0.0,0.0,0.0,0.0,0.0,0.0,0.0,0.0,0.0,0.0,0.0,0.0,0.0,0.0,0.0,0.0,0.0,0.0,0.0,0.0,0.0,0.0,0.0,0.0,0.0,0.0,0.0,0.0,0.0,0.0,0.0,0.0,0.0,0.0,0.0,0.0,0.0,0.0,0.0,0.0,0.0,1.0307,1.0928,1.1676,1.2436,1.3172,1.2828,1.262,0.0,0.0,0.0,0.0,0.0,0.0,0.0,0.0,0.0,0.0,0.0,0.0,0.0,0.0,0.0,0.0,0.0,0.0,0.0,0.0,0.0,0.0,0.0,0.0,0.0,0.0,0.0,0.0,0.0,0.0,0.0,0.0,0.0,0.0,0.0,0.0,0.0,0.0,0.0,0.0,0.0,0.0,0.0,0.0,0.0,0.0,0.0,0.0,0.6348,0.0,0.0,0.0,0.0,0.0,0.0,0.0,0.0,0.0,0.0,0.0,0.0,0.0,0.0,0.0,0.0,0.0,0.0,0.0,0.0,0.0,0.0,0.0,0.0,0.0,0.0,0.0,0.0,0.0,0.0,0.0,0.0,0.0,0.0,0.0,0.0,0.0,0.0,0.0,0.0,0.0,0.0,0.0,0.0,0.0,0.0,0.0,0.0,0.0,0.0,0.0,0.0,0.0,0.0,0.0,0.0,0.0,0.0,0.0,1.0608,1.1182,1.1764,1.2382,1.2906,1.2767,1.2752,0.0,0.0,0.0,0.0,0.0,0.0,0.0,0.0,0.0,0.0,0.0,0.0,0.0,0.0,0.0,0.0,0.0,0.0,0.0,0.0,0.0,0.0,0.0,0.0,0.0,0.0,0.0,0.0,0.0,0.0,0.0,0.0,0.0,0.0,0.0,0.0,0.0,0.0,0.0,0.0,0.0,0.0,0.0,0.0,0.0,0.0,0.0,0.0,0.0,0.0,0.0,0.0,0.0,0.0,0.0,0.0,0.0,0.0,0.0,0.0,0.0,0.0,0.0,0.0,0.0,0.0,0.0,0.0,0.0,0.0,0.0,0.0,0.0,0.0,0.0,0.0,0.0,0.0,0.0,0.0,0.0,0.0,0.0,0.0,0.0,0.0,0.0,0.0,0.0,0.0,0.0,0.0,0.0,0.0,0.0,0.0,0.0,0.0,0.0,0.0,0.0,0.0,0.0,0.0,0.0,0.0,0.0,0.9869,1.0822,1.1476,1.2024,1.242,1.2702,1.2695,1.2757,1.2899,0.0,0.0,0.0,0.0,0.0,0.0,0.0,0.0,0.0,0.0,0.0,0.0,0.0,0.0,0.0,0.0,0.0,0.0,0.0,0.0,0.0,0.0,0.0,0.0,0.0,0.0,0.0,0.0,0.0,0.0,0.0,0.0,0.0,0.0,0.0,0.0,0.0,0.0,0.4041,0.4713,0.0,0.0,0.0,0.0,0.0,0.0,0.0,0.0,0.532,0.0,0.0,0.0,0.0,0.0,0.0,0.0,0.0,0.0,0.0,0.0,0.0,0.0,0.0,0.0,0.0,0.0,0.0,0.0,0.0,0.0,0.0,0.0,0.0,0.0,0.0,0.0,0.0,0.0,0.0,0.0,0.0,0.0,0.0,0.0,0.0,0.0,0.0,0.0,0.0,0.0,0.0,0.0,0.0,0.0,0.0,0.0,0.0,0.0,0.0,0.0,0.0,0.0,0.0,0.0,0.0,0.9467,0.9947,1.0715,1.1806,1.2124,1.2456,1.2668,1.2977,1.2902,1.2478,0.0,0.0,0.0,0.0,0.0,0.0,0.0,0.0,0.0,0.0,0.0,0.0,0.0,0.0,0.0,0.0,0.0,0.0,0.0,0.0,0.0,0.0,0.0,0.0,0.0,0.0,0.0,0.0,0.0,0.0,0.0,0.0,0.0,0.0,0.0,0.0,0.0,0.0,0.0,0.4269,0.4491,0.0,0.0,0.0,0.0,0.0,0.0,0.0,0.0,0.4758,0.0,0.0,0.0,0.0,0.0,0.0,0.0,0.0,0.0,0.0,0.0,0.0,0.0,0.0,0.0,0.0,0.0,0.0,0.0,0.0,0.0,0.0,0.0,0.0,0.0,0.0,0.0,0.0,0.0,0.0,0.0,0.0,0.0,0.0,0.0,0.0,0.0,0.0,0.0,0.0,0.0,0.0,0.0,0.0,0.0,0.0,0.0,0.0,0.0,0.0,0.0,0.0,0.0,0.0,0.0,0.9613,1.0274,1.1062,1.2094,1.2231,1.2204,1.2051,1.2355,1.2274,0.0,0.0,0.0,0.0,0.0,0.0,0.0,0.0,0.0,0.0,0.0,0.0,0.0,0.0,0.0,0.0,0.0,0.0,0.0,0.0,0.0,0.0,0.0,0.0,0.0,0.0,0.0,0.0,0.0,0.0,0.0,0.0,0.0,0.0,0.0,0.0,0.0,0.0,0.0,0.0,0.4236,0.4419,0.5017,0.0,0.0,0.0,0.0,0.0,0.0,0.4358,0.4332,0.0,0.0,0.0,0.0,0.0,0.0,0.0,0.0,0.0,0.0,0.0,0.0,0.0,0.0,0.0,0.0,0.0,0.0,0.0,0.0,0.0,0.0,0.0,0.0,0.0,0.0,0.0,0.0,0.0,0.0,0.0,0.0,0.0,0.0,0.0,0.0,0.0,0.0,0.0,0.0,0.0,0.0,0.0,0.0,0.0,0.0,0.0,0.0,0.0,0.0,0.0,0.0,0.0,0.0,0.0,0.9646,1.0526,1.1397,1.2251,1.2305,1.2024,1.1436,1.1883,1.189,0.0,0.0,0.0,0.0,0.0,0.0,0.0,0.0,0.0,0.0,0.0,0.0,0.0,0.0,0.0,0.0,0.0,0.0,0.0,0.0,0.0,0.0,0.0,0.0,0.0,0.0,0.0,0.0,0.0,0.0,0.0,0.0,0.0,0.0,0.0,0.0,0.0,0.0,0.0,0.0,0.0,0.4443,0.4743,0.4379,0.0,0.0,0.0,0.0,0.4072,0.4172,0.0,0.0,0.0,0.0,0.0,0.0,0.0,0.0,0.0,0.0,0.0,0.0,0.0,0.0,0.0,0.0,0.0,0.0,0.0,0.0,0.0,0.0,0.0,0.0,0.0,0.0,0.0,0.0,0.0,0.0,0.0,0.0,0.0,0.0,0.0,0.0,0.0,0.0,0.0,0.0,0.0,0.0,0.0,0.0,0.0,0.0,0.0,0.0,0.0,0.0,0.0,0.0,0.0,0.0,0.0,0.0,0.9626,1.0325,1.1196,1.2238,1.2305,1.2017,1.1443,1.246,1.2651,0.0,0.0,0.0,0.0,0.0,0.0,0.0,0.0,0.0,0.0,0.0,0.0,0.0,0.0,0.0,0.0,0.0,0.0,0.0,0.0,0.0,0.0,0.0,0.0,0.0,0.0,0.0,0.0,0.0,0.0,0.0,0.0,0.0,0.0,0.0,0.0,0.0,0.0,0.0,0.0,0.0,0.4149,0.4425,0.4307,0.4301,0.0,0.0,0.4082,0.4536,0.4719,0.0,0.0,0.0,0.0,0.0,0.0,0.0,0.0,0.0,0.0,0.0,0.0,0.0,0.0,0.0,0.0,0.0,0.0,0.0,0.0,0.0,0.0,0.0,0.0,0.0,0.0,0.0,0.0,0.0,0.0,0.0,0.0,0.0,0.0,0.0,0.0,0.0,0.0,0.0,0.0,0.0,0.0,0.0,0.0,0.0,0.0,0.0,0.0,0.0,0.0,0.0,0.0,0.0,0.0,0.0,0.8218,0.9682,1.0581,1.1456,1.2265,1.2305,1.2024,1.1402,1.2095,1.2011,0.0,0.0,0.0,0.0,0.0,0.0,0.0,0.0,0.0,0.0,0.0,0.0,0.0,0.0,0.0,0.0,0.0,0.0,0.0,0.0,0.0,0.0,0.0,0.0,0.0,0.0,0.0,0.0,0.0,0.0,0.0,0.0,0.0,0.0,0.0,0.0,0.0,0.0,0.0,0.0,0.0,0.0,0.4088,0.4064,0.0,0.0,0.0,0.4028,0.4275,0.0,0.0,0.0,0.0,0.0,0.0,0.0,0.0,0.0,0.0,0.0,0.0,0.0,0.0,0.0,0.0,0.0,0.0,0.0,0.0,0.0,0.0,0.0,0.0,0.0,0.0,0.0,0.0,0.0,0.0,0.0,0.0,0.0,0.0,0.0,0.0,0.0,0.0,0.0,0.0,0.0,0.0,0.0,0.0,0.0,0.0,0.0,0.0,0.0,0.0,0.0,0.0,0.0,0.0,0.0,0.0,0.0,0.9673,1.0835,1.1717,1.2278,1.2305,1.2017,1.1436,1.1681,0.0,0.0,0.0,0.0,0.0,0.0,0.0,0.0,0.0,0.0,0.0,0.0,0.0,0.0,0.0,0.0,0.0,0.0,0.0,0.0,0.0,0.0,0.0,0.0,0.0,0.0,0.0,0.3294,0.0,0.0,0.0,0.0,0.0,0.0,0.0,0.0,0.0,0.0,0.0,0.0,0.0,0.0,0.3782,0.389,0.3945,0.3993,0.0,0.0,0.4017,0.4114,0.4739,0.5038,0.0,0.0,0.0,0.0,0.0,0.0,0.0,0.0,0.0,0.0,0.0,0.0,0.0,0.0,0.0,0.0,0.0,0.0,0.0,0.0,0.0,0.0,0.0,0.0,0.0,0.0,0.0,0.0,0.0,0.0,0.0,0.0,0.0,0.0,0.0,0.0,0.0,0.0,0.0,0.0,0.0,0.0,0.0,0.0,0.0,0.0,0.0,0.0,0.0,0.0,0.0,0.0,0.0,0.0,0.0,0.9679,1.0835,1.171,1.2278,1.2305,1.2024,1.1436,1.1525,1.1202,0.0,0.0,0.0,0.0,0.0,0.0,0.0,0.0,0.0,0.0,0.0,0.0,0.0,0.0,0.0,0.0,0.0,0.0,0.0,0.0,0.0,0.0,0.0,0.0,0.0,0.0,0.0,0.0,0.0,0.0,0.0,0.0,0.0,0.0,0.0,0.0,0.0,0.0,0.0,0.0,0.0,0.4099,0.391,0.4054,0.4261,0.0,0.0,0.4238,0.4426,0.5027,0.5203,0.4357,0.0,0.0,0.0,0.0,0.0,0.0,0.0,0.0,0.0,0.0,0.0,0.0,0.0,0.0,0.0,0.0,0.0,0.0,0.0,0.0,0.0,0.0,0.0,0.0,0.0,0.0,0.0,0.0,0.0,0.0,0.0,0.0,0.0,0.0,0.0,0.0,0.0,0.0,0.0,0.0,0.0,0.0,0.0,0.0,0.0,0.0,0.0,0.0,0.0,0.0,0.0,0.0,0.0,0.8485,0.9679,1.0835,1.1703,1.2278,1.2305,1.1981,1.1409,1.1546,1.116,0.0,0.0,0.0,0.0,0.0,0.0,0.0,0.0,0.0,0.0,0.0,0.0,0.0,0.0,0.0,0.0,0.0,0.0,0.0,0.0,0.0,0.0,0.0,0.0,0.0,0.0,0.0,0.0,0.3874,0.3914,0.3826,0.0,0.0,0.0,0.0,0.0,0.0,0.0,0.0,0.0,0.0,0.4112,0.4252,0.4354,0.0,0.0,0.4423,0.4399,0.4477,0.4862,0.4948,0.4407,0.4641,0.0,0.0,0.0,0.0,0.0,0.0,0.0,0.0,0.0,0.0,0.0,0.0,0.0,0.0,0.0,0.0,0.0,0.0,0.0,0.0,0.0,0.0,0.0,0.0,0.0,0.0,0.0,0.0,0.0,0.0,0.0,0.0,0.0,0.0,0.0,0.0,0.0,0.0,0.0,0.0,0.0,0.0,0.0,0.0,0.0,0.0,0.0,0.0,0.0,0.0,0.0,0.0,0.8525,0.98,1.0875,1.171,1.2285,1.2305,1.2064,1.157,1.1467,1.0988,0.0,0.0,0.0,0.0,0.0,0.0,0.0,0.0,0.0,0.0,0.0,0.0,0.0,0.0,0.0,0.0,0.0,0.0,0.0,0.0,0.0,0.0,0.0,0.0,0.0,0.0,0.0,0.0,0.4214,0.4174,0.3886,0.0,0.0,0.0,0.0,0.0,0.0,0.0,0.0,0.0,0.0,0.4153,0.4453,0.4491,0.4491,0.4491,0.4491,0.4491,0.4491,0.4658,0.4663,0.4323,0.0,0.0,0.0,0.0,0.0,0.0,0.0,0.0,0.0,0.0,0.0,0.0,0.0,0.0,0.0,0.0,0.0,0.0,0.0,0.0,0.0,0.0,0.0,0.0,0.0,0.0,0.0,0.0,0.0,0.0,0.8931,0.0,0.0,0.0,0.0,0.0,0.0,0.0,0.0,0.0,0.0,0.0,0.0,0.0,0.0,0.0,0.0,0.0,0.0,0.0,0.0,0.0,0.0,0.8625,1.0057,1.0936,1.171,1.2278,1.2305,1.2158,1.1886,1.1323,1.06,0.9724,0.0,0.0,0.0,0.0,0.0,0.0,0.0,0.0,0.0,0.0,0.0,0.0,0.0,0.0,0.0,0.0,0.0,0.0,0.0,0.0,0.0,0.0,0.0,0.0,0.0,0.0,0.4356,0.4161,0.3881,0.0,0.0,0.0,0.0,0.0,0.0,0.0,0.0,0.0,0.0,0.4122,0.4267,0.447,0.4491,0.4501,0.4498,0.4501,0.4494,0.4494,0.4512,0.4378,0.0,0.0,0.0,0.0,0.0,0.0,0.0,0.0,0.0,0.0,0.0,0.0,0.0,0.0,0.0,0.0,0.0,0.0,0.0,0.0,0.0,0.0,0.0,0.0,0.0,0.0,0.0,1.014,0.9941,0.0,0.0,0.0,0.0,0.0,0.0,0.0,0.0,0.0,0.0,0.0,1.0503,1.0354,0.0,0.0,0.0,0.0,0.0,0.0,0.0,0.0,0.0,0.0,0.0,0.0,0.8851,1.0087,1.0949,1.171,1.2285,1.2305,1.2158,1.1913,1.133,1.0307,0.8884,0.0,0.0,0.0,0.0,0.0,0.0,0.0,0.0,0.0,0.0,0.0,0.0,0.0,0.0,0.0,0.0,0.0,0.0,0.0,0.0,0.0,0.0,0.0,0.0,0.0,0.4389,0.0,0.0,0.0,0.0,0.0,0.0,0.0,0.0,0.0,0.0,0.0,0.3839,0.4086,0.4271,0.4446,0.4592,0.4672,0.4713,0.0,0.0,0.0,0.0,0.0,0.0,0.0,0.0,0.0,0.0,0.0,0.0,0.0,0.0,0.4247,0.402,0.3765,0.3596,0.3649,0.0,0.0,0.0,0.0,0.0,0.0,0.0,0.0,0.0,0.0,0.0,0.0,0.0,0.0,1.1079,0.0,1.0384,0.0,0.0,0.0,0.0,0.0,0.0,0.0,0.0,1.0661,1.1085,1.143,1.129,1.1149,0.0,1.0528,0.9634,0.0,0.0,0.0,0.0,0.0,0.0,0.0,0.0,0.9252,1.0394,1.1182,1.181,1.2278,1.2305,1.2211,1.2017,1.1349,1.0307,0.8904,0.8614,0.8166,0.0,0.0,0.0,0.0,0.0,0.0,0.0,0.0,0.0,0.0,0.0,0.0,0.0,0.0,0.0,0.0,0.0,0.0,0.0,0.0,0.0,0.0,0.0,0.4882,0.0,0.0,0.0,0.0,0.0,0.0,0.0,0.0,0.0,0.3665,0.3971,0.4229,0.4355,0.4531,0.4685,0.4758,0.0,0.0,0.0,0.0,0.0,0.0,0.0,0.4648,0.4619,0.4545,0.4466,0.4563,0.4614,0.46,0.4399,0.0,0.0,0.4237,0.3932,0.3744,0.3803,0.3556,0.3347,0.3401,0.3414,0.3411,0.0,0.0,0.0,0.0,0.0,0.0,0.0,0.0,1.2084,1.2176,0.0,1.2158,0.0,0.0,0.0,0.0,0.0,0.0,0.0,0.0,1.2106,1.2311,1.2345,1.2325,1.2184,1.1951,1.2158,1.1697,1.0604,0.8623,0.0,0.0,0.0,0.0,0.0,0.0,0.981,1.0969,1.1605,1.2004,1.2291,1.2305,1.2291,1.2258,1.1456,1.0595,0.9775,0.9145,0.8556,0.7946,0.7855,0.0,0.0,0.0,0.0,0.0,0.0,0.0,0.0,0.0,0.0,0.0,0.0,0.0,0.0,0.0,0.0,0.0,0.0,0.0,0.0,0.5345,0.0,0.0,0.0,0.0,0.0,0.0,0.0,0.0,0.0,0.0,0.3849,0.4225,0.4552,0.4677,0.0,0.0,0.0,0.0,0.4931,0.4948,0.4942,0.4918,0.4945,0.4911,0.4908,0.4931,0.0,0.0,0.4731,0.4826,0.487,0.4724,0.4806,0.4823,0.4573,0.4268,0.4077,0.4169,0.3995,0.3877,0.3964,0.3977,0.3984,1.3741,0.0,0.0,0.0,0.0,1.2442,1.2995,1.4163,1.359,1.3306,1.3188,1.2694,0.0,0.0,0.0,0.0,0.0,0.0,1.1512,1.2167,1.2264,1.2639,1.3207,1.3046,1.3013,1.312,1.2824,1.2482,1.2107,1.0889,0.9552,0.8167,0.0,0.0,0.0,0.0,1.0341,1.1229,1.1712,1.2011,1.2291,1.2305,1.2204,1.1997,1.1543,1.0989,1.0358,0.9746,0.9152,0.8584,0.8388,0.0,0.0,0.0,0.0,0.0,0.0,0.0,0.0,0.0,0.0,0.0,0.0,0.0,0.0,0.0,0.0,0.0,0.0,0.0,0.5358,0.525,0.5336,0.0,0.0,0.0,0.0,0.0,0.0,0.0,0.0,0.0,0.4406,0.4541,0.468,0.0,0.0,0.4928,0.5026,0.5039,0.5117,0.5365,0.0,0.0,0.0,0.5396,0.5359,0.5286,0.5269,0.5182,0.4999,0.5009,0.4992,0.488,0.4887,0.4887,0.4802,0.4633,0.4484,0.4412,0.4351,0.4307,0.4324,0.4361,0.4358,1.5531,1.4144,1.3615,1.3634,1.4041,1.3795,1.4144,1.4836,1.4429,1.4188,1.4048,1.3634,1.2931,1.1966,1.1396,0.0,0.0,0.0,1.2581,1.3186,1.3186,1.3534,1.4122,1.3826,1.3821,1.3919,1.3387,1.3106,1.3093,1.2452,1.1396,0.9967,0.0,0.0,0.9693,1.0283,1.0955,1.1583,1.1891,1.2131,1.2298,1.2305,1.2104,1.1703,1.1489,1.1156,1.0613,1.0107,0.9639,0.9172,0.9013,0.8306,0.0,0.0,0.0,0.0,0.0,0.0,0.0,0.0,0.0,0.0,0.0,0.4574,0.4069,0.0,0.0,0.0,0.503,0.5515,0.6154,0.6041,0.0,0.0,0.0,0.0,0.0,0.0,0.0,0.4856,0.4651,0.4597,0.4914,0.4958,0.5023,0.5081,0.5192,0.5301,0.5382,0.0,0.5464,0.5647,0.5674,0.5674,0.5674,0.5674,0.5675,0.5552,0.5518,0.546,0.5332,0.5267,0.5192,0.5118,0.5094,0.5074,0.5013,0.4894,0.4819,0.4674,0.4672,0.4655,0.4597,0.4583,0.4563,1.6918,1.6313,1.5551,1.5271,1.5404,1.5189,1.5229,1.5384,1.4856,1.491,1.5344,1.483,1.4416,1.4068,1.3293,0.0,1.3327,1.358,1.3986,1.4549,1.4556,1.4703,1.4988,1.4676,1.4543,1.4509,1.3926,1.366,1.362,1.334,1.2959,1.2392,1.135,1.0901,1.1069,1.1349,1.163,1.1933,1.2164,1.2305,1.2305,1.2305,1.1995,1.1449,1.1402,1.1156,1.062,1.0254,0.9917,0.9682,0.958,0.8904,0.7553,0.0,0.0,0.0,0.0,0.0,0.0,0.0,0.0,0.0,0.0,0.0,0.0,0.0,0.0,0.0,0.6293,0.0,0.704,0.7293,0.0,0.0,0.0,0.5804,0.6853,0.5486,0.4653,0.5145,0.0,0.0,0.5524,0.0,0.545,0.545,0.564,0.58,0.58,0.5786,0.5803,0.5817,0.5817,0.5823,0.5847,0.5837,0.582,0.5803,0.5701,0.5603,0.5572,0.5504,0.5423,0.5375,0.5392,0.5347,0.514,0.511,0.5111,0.4945,0.4897,0.487,0.4741,0.4707,0.4667,1.7402,1.7255,1.7048,1.6486,1.5732,1.5651,1.5665,1.5718,1.5531,1.5478,1.5384,1.5251,1.4903,1.4402,1.4195,1.4142,1.4229,1.4516,1.473,1.4856,1.4863,1.4941,1.5001,1.4934,1.4736,1.4522,1.4332,1.4202,1.3975,1.364,1.3427,1.3267,1.2826,1.2271,1.1732,1.1951,1.2124,1.2191,1.2265,1.2305,1.2305,1.2305,1.2131,1.177,1.1543,1.1156,1.0613,1.009,0.9653,0.9331,0.9106,0.8622,0.7842,0.7641,0.0,0.0,0.0,0.0,0.0,0.0,0.0,0.0,0.0,0.5989,0.4894,0.0,0.6306,0.0,0.6713,0.7113,0.7609,0.7152,0.0,0.0,0.7158,0.6401,0.6663,0.6793,0.713,0.7788,0.71,0.663,0.6812,0.6254,0.5834,0.5831,0.5827,0.58,0.58,0.58,0.5844,0.5915,0.5976,0.6017,0.6108,0.6051,0.5976,0.5976,0.585,0.5715,0.561,0.56,0.5501,0.5423,0.5395,0.5378,0.5341,0.5304,0.5327,0.5283,0.5081,0.4877,0.484,0.4863,0.4819,1.7561,1.744,1.7395,1.6941,1.6213,1.6171,1.6226,1.6199,1.5945,1.5691,1.5591,1.5591,1.5404,1.511,1.5058,1.5058,1.5117,1.5857,1.5888,1.5397,1.5933,1.5895,1.5344,1.5217,1.5372,1.5669,1.4899,1.4681,1.5,1.4226,1.38,1.38,1.3674,1.3287,1.2692,1.2692,1.2639,1.2536,1.2371,1.2305,1.2305,1.2305,1.2104,1.169,1.151,1.1056,1.0388,1.0047,0.9686,0.9231,0.9058,0.8711,0.815,0.7888,0.7529,0.0,0.0,0.0,0.0,0.0,0.0,0.0,0.0,0.0,0.0,0.0,0.7055,0.0,0.7546,0.7985,0.8413,0.8165,0.8319,0.9124,0.8283,0.7643,0.7576,0.7488,0.7925,0.9182,0.8069,0.7412,0.796,0.7249,0.6719,0.6757,0.6357,0.6006,0.6003,0.6044,0.6037,0.6118,0.6132,0.6159,0.6289,0.6228,0.6132,0.6118,0.6003,0.5874,0.58,0.5728,0.5633,0.5532,0.5498,0.5474,0.5409,0.5395,0.5395,0.5375,0.5233,0.5104,0.4995,0.4982,0.4938,1.7435,1.7259,1.7253,1.7054,1.6814,1.6774,1.6727,1.6613,1.6066,1.5825,1.5825,1.5825,1.5825,1.5825,1.5825,1.5879,1.6109,1.7178,1.7178,1.6379,1.7264,1.7084,1.6048,1.5611,1.6056,1.7078,1.5392,1.5187,1.6209,1.4838,1.4088,1.4088,1.4088,1.3961,1.366,1.3407,1.3133,1.279,1.2492,1.2338,1.2305,1.2305,1.2024,1.1429,1.1355,1.0922,1.0114,1.0053,0.9806,0.9216,0.9176,0.8984,0.8536,0.8178,0.7843,0.0,0.7024,0.0,0.0,0.0,0.0,0.0,0.0,0.0,0.0,0.7685,0.7849,0.8052,0.8571,0.9038,0.9269,0.9586,0.9773,0.9846,0.94,0.9105,0.9068,0.8211,0.8136,0.973,0.8638,0.8171,0.9114,0.8374,0.7788,0.7664,0.7042,0.65,0.6331,0.6279,0.6279,0.63,0.63,0.6286,0.6296,0.6296,0.6289,0.6279,0.6149,0.6054,0.5979,0.5908,0.5776,0.5689,0.5603,0.5583,0.5446,0.5426,0.5419,0.5402,0.5378,0.533,0.5196,0.513,0.5111,1.7549,1.7495,1.7502,1.7468,1.7395,1.7219,1.6844,1.6333,1.5985,1.5825,1.5825,1.5825,1.5825,1.5825,1.5825,1.6332,1.7318,1.7598,1.8095,1.8764,1.8048,1.7598,1.7264,1.6236,1.6251,1.7056,1.5645,1.539,1.6259,1.4838,1.4088,1.4088,1.4088,1.4055,1.4001,0.0,0.0,0.0,1.273,1.2583,1.2318,1.2305,1.2024,1.1415,1.1202,0.0,0.9826,0.9766,0.9606,0.9231,0.9176,0.0,0.0,0.0,0.0,0.0,0.0,0.0,0.0,0.0,0.0,0.0,0.8685,0.8465,0.7905,0.8717,0.9185,0.8998,0.9312,0.9633,0.992,1.0,1.0227,1.0649,1.0029,0.9907,1.075,1.0282,0.9843,0.9436,0.9808,1.0205,1.0356,0.96,0.868,0.8037,0.7629,0.7176,0.6416,0.6342,0.63,0.63,0.63,0.63,0.63,0.63,0.63,0.6293,0.6282,0.6169,0.6061,0.5989,0.5934,0.5779,0.5701,0.5672,0.5593,0.5549,0.5535,0.5419,0.5395,0.5388,0.5358,0.5347,0.5306,1.7722,0.0,1.7589,1.7589,0.0,1.732,1.7032,1.6723,1.6239,1.5965,1.5825,1.5825,1.5825,1.5825,1.5825,1.615,1.681,1.8048,1.8596,1.8634,1.9222,1.8864,1.7684,1.7669,1.7579,1.7408,1.6552,1.6234,1.6464,1.5026,1.4229,1.4088,1.4088,1.4088,1.4088,1.4088,1.3794,1.3193,1.2938,1.271,1.2563,1.2378,1.2098,1.1663,0.0,0.0,0.0,0.0,0.0,0.0,0.0,0.0,0.0,0.0,0.0,0.9066,0.8809,0.8749,0.9065,0.8896,0.8964,0.9426,0.9733,0.9586,0.8858,0.9479,0.9893,0.99,1.016,1.0448,1.0696,1.0729,1.0882,1.1136,1.0962,1.1015,1.1403,1.1036,1.0728,1.0765,1.0789,1.0975,1.1465,1.0677,0.989,0.9296,0.8467,0.7758,0.7207,0.6652,0.63,0.63,0.63,0.63,0.63,0.63,0.63,0.63,0.63,0.6265,0.6159,0.6166,0.6102,0.5925,0.5955,0.5962,0.5825,0.5681,0.5566,0.5521,0.5446,0.5399,0.5395,0.5395,0.5375,1.7896,1.7662,1.7609,1.7589,1.7569,1.738,1.7219,1.7085,0.0,0.0,0.0,1.5825,1.5825,1.5825,1.5825,1.5927,1.6292,1.8488,1.9093,1.8411,2.0395,2.0124,1.8095,1.9039,1.8864,1.7716,1.7371,1.7109,1.6838,1.5283,1.4396,1.4182,1.4108,1.4088,1.4088,1.4088,1.3968,1.3673,1.3186,1.2891,1.2784,1.2543,1.2218,1.1913,1.1583,1.1182,1.0687,1.0401,1.016,0.9956,0.9866,0.9889,0.9936,0.982,0.9809,0.984,0.9863,0.9889,0.9913,0.9913,0.997,0.9987,1.0472,1.0519,0.9983,1.018,1.0448,1.072,1.0929,1.1182,1.1442,1.1503,1.1523,1.1535,1.1797,1.1911,1.1779,1.1387,1.1385,1.204,1.1583,1.1354,1.2114,1.1633,1.1041,1.0738,0.9655,0.8409,0.7999,0.7094,0.6392,0.6358,0.6358,0.6337,0.6303,0.63,0.63,0.63,0.63,0.63,0.63,0.63,0.6231,0.6091,0.6197,0.6201,0.6074,0.5837,0.5657,0.5599,0.5525,0.5426,0.5399,0.5395,0.5392,1.7969,1.7902,1.7695,1.7589,1.7635,1.7535,1.7235,1.6747,1.6413,1.6106,1.5825,1.5825,1.5825,1.5825,1.5825,1.6393,1.7498,1.891,1.9951,0.0,2.1159,2.0567,1.9268,1.9397,1.8864,1.7755,1.7378,1.7184,1.6937,1.5337,1.4496,1.4429,1.4208,1.413,1.4088,1.4088,1.4068,1.4021,1.3687,1.3267,1.2804,1.2744,1.2455,1.1926,1.159,1.1276,1.0949,1.0889,1.0848,1.0808,1.0606,1.0586,1.0775,1.0334,1.0167,1.0445,1.0472,1.0579,1.0788,1.0808,1.0915,1.1122,1.1229,1.1162,1.0855,1.1076,1.1229,1.1275,1.1349,1.1483,1.1799,1.1846,1.1897,1.2124,1.2204,1.2238,1.2218,1.2117,1.2146,1.2321,1.2194,1.2096,1.2297,1.2388,1.2101,1.1402,1.0959,1.0477,0.8742,0.7379,0.6661,0.6518,0.6484,0.6433,0.6361,0.6306,0.632,0.63,0.631,0.631,0.63,0.63,0.6282,0.6255,0.6272,0.6276,0.6238,0.6088,0.5841,0.5677,0.5586,0.5559,0.5453,0.5419,0.5405,1.8142,1.7962,1.7716,1.7589,1.7589,1.7589,1.7341,1.6927,1.6633,1.6246,1.5845,1.5825,1.5825,1.5825,1.5825,1.6109,1.6716,1.7948,1.9177,2.026,2.035,2.0395,2.0477,2.0486,1.9497,1.7809,1.8247,1.7705,1.626,1.5375,1.514,1.5354,1.5085,1.4699,1.4124,1.4088,1.4088,1.4082,1.3794,1.3467,1.324,1.2958,1.265,1.2388,1.1911,1.1603,1.147,1.1309,1.1229,1.1223,1.1102,1.1089,1.1209,1.0936,1.0889,1.1022,1.1035,1.1089,1.1216,1.1229,1.1349,1.1637,1.1663,1.1683,1.1703,1.1677,1.1663,1.167,1.1804,1.1957,1.2091,1.2141,1.2158,1.2285,1.2305,1.2398,1.2585,1.2579,1.2652,1.2886,1.2859,1.2799,1.2792,1.2913,1.2876,1.2348,1.2071,1.1232,0.9816,0.9165,0.8233,0.6973,0.6597,0.6573,0.6549,0.6498,0.6504,0.6433,0.6416,0.6381,0.6323,0.63,0.63,0.63,0.63,0.63,0.6296,0.6135,0.5979,0.5851,0.5752,0.5677,0.5644,0.5579,0.5494,1.8357,1.8062,1.7742,1.7589,1.7589,1.7589,1.7474,1.7186,1.6958,1.6473,1.5965,1.5865,1.5825,1.5825,1.5825,1.5825,1.5967,1.7131,1.818,1.9039,1.9351,1.9988,2.089,2.1159,2.0169,1.8411,1.9085,1.8271,1.6146,1.557,1.5663,1.6005,1.5568,1.5054,1.4489,1.4208,1.4088,1.4075,1.3861,1.3666,1.3586,1.318,1.2924,1.2757,1.2342,1.2074,1.1964,1.1744,1.1588,1.1588,1.1563,1.1522,1.161,1.1557,1.1557,1.1617,1.1582,1.1588,1.1588,1.1588,1.1717,1.198,1.2,1.2064,1.2251,1.2098,1.2,1.2027,1.2158,1.2311,1.2385,1.2442,1.2425,1.2492,1.2505,1.2652,1.2913,1.2899,1.3025,1.3353,1.33,1.3193,1.322,1.3267,1.33,1.3272,1.2798,1.2074,1.1219,1.0999,0.998,0.8341,0.7351,0.7013,0.6836,0.6688,0.6637,0.6576,0.6566,0.6504,0.6402,0.6334,0.63,0.63,0.63,0.63,0.6289,0.6173,0.6078,0.5973,0.5918,0.584,0.5779,0.5705,0.5569,1.8477,1.8364,1.7829,1.7589,1.7589,1.7589,1.7422,1.7226,1.7172,1.6831,1.6233,1.5952,1.5832,1.5825,1.5825,1.5825,1.592,1.7131,1.7777,1.8056,1.9001,1.9579,1.9898,2.0792,2.0621,1.9451,1.9443,1.8794,1.7377,1.6107,1.5656,1.592,1.4881,1.4783,1.5296,1.4573,1.4088,1.4088,1.4062,1.3915,1.362,1.3553,1.33,1.2797,1.2737,1.2569,1.2271,1.2238,1.2218,1.2198,1.1957,1.198,1.2151,1.1971,1.1944,1.2184,1.2211,1.2218,1.2211,1.2225,1.2218,1.2258,1.2258,1.2278,1.2311,1.2291,1.2265,1.2291,1.2298,1.2469,1.2703,1.2744,1.2837,1.3013,1.306,1.3146,1.3173,1.3173,1.3193,1.3227,1.33,1.3213,1.33,1.3427,1.366,1.3888,1.3767,1.3309,1.2359,1.198,1.1541,1.0248,0.9289,0.8068,0.7177,0.6747,0.684,0.6771,0.6678,0.6614,0.6491,0.6388,0.6303,0.6337,0.63,0.63,0.63,0.6276,0.6186,0.6095,0.6023,0.5969,0.585,0.5793,0.5684,1.8644,1.8457,1.8036,1.7749,1.7595,1.7589,1.7515,1.7447,1.7273,1.6965,1.652,1.6219,1.5999,1.5832,1.5825,1.5825,1.5825,1.6339,1.699,1.7684,1.8234,1.9185,2.0531,2.1025,2.1025,2.0531,1.9852,1.8864,1.7856,1.747,1.7063,1.6488,1.6329,1.6198,1.5684,1.4657,1.4088,1.4088,1.4088,1.4021,1.3901,1.3693,1.3493,1.3273,1.2978,1.2737,1.2596,1.2398,1.2305,1.2298,1.2191,1.2178,1.2291,1.2191,1.2178,1.2298,1.2305,1.2305,1.2305,1.2305,1.2305,1.2305,1.2502,1.2603,1.261,1.2732,1.2839,1.2819,1.2672,1.2723,1.2973,1.3019,1.3073,1.3186,1.3206,1.328,1.3413,1.342,1.352,1.3687,1.3734,1.3721,1.3741,1.3828,1.3948,1.4068,1.4088,1.3822,1.3379,1.2766,1.1858,1.0854,1.0138,0.9395,0.8239,0.7986,0.7684,0.707,0.6792,0.6783,0.6668,0.6439,0.6323,0.6409,0.6368,0.6323,0.63,0.63,0.6269,0.6162,0.6159,0.6118,0.5966,0.5899,0.5837,1.8751,1.8457,1.8083,1.7796,1.7589,1.7589,1.7589,1.7562,1.7407,1.7054,1.67,1.6486,1.6179,1.5858,1.5825,1.5825,1.5825,1.5825,1.648,1.7591,1.7684,1.8993,2.1114,2.1293,2.1293,2.1114,2.0079,1.8726,1.7461,1.7962,1.7888,1.7244,1.7679,1.7365,1.6147,1.5061,1.4412,1.413,1.4088,1.4088,1.4055,1.3874,1.3686,1.3573,1.3227,1.2991,1.2911,1.2585,1.2425,1.2425,1.2351,1.2305,1.2305,1.2305,1.2338,1.2418,1.2425,1.2425,1.2462,1.2505,1.2518,1.2496,1.2737,1.2911,1.2951,1.308,1.324,1.33,1.312,1.3113,1.3273,1.3287,1.3353,1.3434,1.3454,1.3547,1.3693,1.3726,1.3841,1.4048,1.4035,1.4088,1.4082,1.4075,1.4075,1.4082,1.4088,1.4088,1.4039,1.3343,1.2425,1.13,1.108,1.0433,0.9279,0.9161,0.8723,0.8284,0.7881,0.7528,0.7186,0.6905,0.6474,0.658,0.6451,0.6405,0.6395,0.6371,0.6327,0.6306,0.6289,0.6259,0.6118,0.6098,0.6051,1.8758,1.8424,1.7849,1.7661,1.7589,1.7589,1.7589,1.7635,1.7608,1.7241,1.676,1.6687,1.6366,1.5811,1.5838,1.5825,1.5825,1.5825,1.6433,1.7505,1.7731,1.9001,2.1203,2.1293,2.1337,2.1203,2.0079,1.8349,1.6224,1.6936,1.7569,1.8173,1.8093,1.7763,1.7082,1.6008,1.5095,1.4208,1.4088,1.4088,1.4088,1.4068,1.3921,1.3646,1.3567,1.34,1.3193,1.2931,1.2764,1.277,1.2522,1.2331,1.2318,1.2331,1.2496,1.273,1.277,1.2764,1.2804,1.2966,1.3013,1.2857,1.3006,1.3193,1.3186,1.3253,1.3394,1.356,1.3553,1.3553,1.3573,1.3586,1.3686,1.3948,1.4015,1.4021,1.4041,1.4021,1.4062,1.4082,1.4088,1.4088,1.4088,1.4088,1.4122,1.4122,1.4108,1.4142,1.4126,1.4008,1.3283,1.2485,1.1955,1.1466,0.9579,0.9623,1.0216,0.9871,0.9057,0.8675,0.8324,0.7901,0.7246,0.6773,0.6664,0.6573,0.6538,0.647,0.6409,0.6364,0.631,0.6265,0.62,0.6272,0.6235,1.8918,1.8437,1.7836,1.7589,1.7589,1.7589,1.7589,1.7589,1.7589,1.7361,1.7001,1.6794,1.6486,1.6099,1.5912,1.5825,1.5825,1.5825,1.6062,1.6662,1.8087,1.9314,2.0215,2.1676,2.1987,2.1203,2.0079,1.8672,1.7343,1.8133,1.9064,1.9505,1.8828,1.817,1.7456,1.5698,1.4454,1.4173,1.4088,1.4088,1.4088,1.4088,1.4035,1.3921,1.3693,1.356,1.3447,1.32,1.3046,1.3039,1.2939,1.2886,1.2886,1.2886,1.2926,1.3026,1.3046,1.3039,1.3053,1.3146,1.3166,1.3086,1.328,1.3447,1.348,1.3654,1.3821,1.3901,1.3921,1.3928,1.3928,1.3928,1.3968,1.4055,1.4088,1.4088,1.4088,1.4088,1.4088,1.4088,1.4088,1.4088,1.4135,1.4249,1.4362,1.4382,1.4516,1.4609,1.4515,1.3954,1.3194,1.2724,1.239,1.1766,1.0313,1.0269,1.0567,1.0524,1.0077,0.9461,0.8992,0.7857,0.7083,0.6888,0.681,0.6725,0.663,0.6566,0.6501,0.6395,0.634,0.6361,0.6296,0.633,0.632,1.8938,1.8444,1.7936,1.7662,1.7589,1.7589,1.7589,1.7589,1.7582,1.7422,1.7186,1.6834,1.6547,1.6253,1.5965,1.5825,1.5825,1.5825,1.6015,1.652,1.8126,1.9131,1.9724,2.1177,2.1311,2.0079,1.8894,1.8041,1.7909,1.8902,1.9883,2.0576,1.9626,1.8744,1.7753,1.5757,1.4496,1.4208,1.4088,1.4088,1.4088,1.4088,1.4088,1.4062,1.3888,1.3746,1.3781,1.3467,1.3307,1.334,1.3267,1.3206,1.3206,1.3206,1.326,1.334,1.3307,1.3307,1.3327,1.3434,1.3454,1.3327,1.3573,1.3746,1.376,1.3975,1.4068,1.4088,1.4088,1.4088,1.4088,1.4082,1.4088,1.4088,1.4088,1.4088,1.4088,1.4088,1.4088,1.4088,1.4088,1.4122,1.4222,1.4402,1.4543,1.4643,1.4901,1.5001,1.484,1.4154,1.3246,1.3043,1.315,1.2685,1.1805,1.1592,1.1429,1.1348,1.0875,1.0269,0.9488,0.8185,0.7325,0.709,0.6922,0.6841,0.6746,0.6637,0.6569,0.6417,0.6434,0.6474,0.641,0.6381,0.6375,1.8758,1.8464,1.815,1.7829,1.7602,1.7589,1.7589,1.7589,1.7589,1.7435,1.7233,1.6867,1.66,1.6286,1.6019,1.5845,1.5825,1.5825,1.6339,1.7318,1.7684,1.8411,1.9306,1.9679,1.9222,1.8048,1.6567,1.6615,1.7738,1.8894,1.99,2.0464,2.0202,1.9177,1.797,1.6286,1.5041,1.4362,1.4115,1.4088,1.4088,1.4088,1.4088,1.4088,1.4062,1.4048,1.4055,1.3794,1.36,1.3573,1.34,1.3233,1.3287,1.3293,1.3373,1.3567,1.3606,1.3606,1.3633,1.3874,1.3868,1.3693,1.3908,1.4041,1.4035,1.4068,1.4088,1.4088,1.4088,1.4088,1.4115,1.4135,1.4135,1.4095,1.4135,1.4142,1.4155,1.4122,1.4108,1.4155,1.4182,1.4242,1.4436,1.4603,1.473,1.4917,1.5082,1.5135,1.5129,1.4718,1.4257,1.3801,1.3817,1.3799,1.3361,1.2942,1.2601,1.2273,1.1645,1.1004,1.0265,0.9183,0.8317,0.7926,0.7149,0.7023,0.6841,0.6739,0.6695,0.6617,0.6637,0.6607,0.6539,0.6511,0.646,1.8751,1.8464,1.8163,1.7856,1.7602,1.7589,1.7589,1.7589,1.7589,1.7581,1.7454,1.7192,1.6847,1.6553,1.6266,1.6019,1.5791,1.5825,1.6015,1.6527,1.7279,1.787,1.8319,1.9085,1.8864,1.7684,1.6386,1.648,1.7677,1.891,1.9649,1.9768,1.9579,1.8737,1.7471,1.5792,1.4634,1.4398,1.4182,1.4088,1.4088,1.4088,1.4088,1.4088,1.4088,1.4088,1.4082,1.4001,1.3948,1.3941,1.3861,1.3814,1.3814,1.3808,1.3861,1.3935,1.3948,1.3948,1.3955,1.4021,1.4055,1.3981,1.4041,1.4075,1.4088,1.4095,1.4102,1.4102,1.4088,1.4155,1.4329,1.4389,1.4389,1.4389,1.4382,1.4462,1.4653,1.4713,1.4689,1.4733,1.4733,1.4743,1.483,1.4943,1.5117,1.5251,1.5404,1.5518,1.5498,1.5251,1.5178,1.5027,1.5074,1.4721,1.4055,1.3553,1.3288,1.2845,1.2228,1.1456,1.0725,1.0004,0.9218,0.8536,0.7705,0.726,0.7075,0.6995,0.7038,0.6801,0.6719,0.6681,0.6644,0.6607,0.6573,1.8851,1.8484,1.829,1.7963,1.7602,1.7589,1.7589,1.7589,1.7589,1.7589,1.7581,1.7326,1.7105,1.6814,1.646,1.6179,1.5985,1.5885,1.5825,1.5872,1.6527,1.699,1.703,1.7716,1.7809,1.7037,1.6197,1.648,1.7692,1.8457,1.9039,1.9348,1.8775,1.8045,1.7116,1.5578,1.4643,1.4509,1.4342,1.4202,1.4108,1.4088,1.4088,1.4088,1.4088,1.4088,1.4088,1.4088,1.4088,1.4088,1.4088,1.4088,1.4088,1.4075,1.4088,1.4088,1.4082,1.4082,1.4088,1.4075,1.4088,1.4088,1.4088,1.4148,1.4208,1.4249,1.4275,1.4389,1.4472,1.4526,1.4649,1.4689,1.4723,1.4843,1.4743,1.4776,1.4981,1.5015,1.5001,1.4975,1.4988,1.5055,1.5144,1.5244,1.5451,1.5551,1.5712,1.5825,1.5785,1.5571,1.5644,1.5684,1.5551,1.5054,1.4423,1.4111,1.3887,1.3381,1.2798,1.1838,1.096,1.0264,0.95,0.8964,0.8233,0.8141,0.7966,0.7876,0.7838,0.7406,0.6954,0.6837,0.6834,0.6793,0.6749,1.9032,1.8544,1.849,1.8143,1.7662,1.7602,1.7589,1.7589,1.7589,1.7589,1.7574,1.738,1.7219,1.7072,1.667,1.6409,1.6226,1.6005,1.5865,1.5838,1.5967,1.6015,1.6062,1.6197,1.6197,1.5967,1.5879,1.6433,1.7365,1.7731,1.8234,1.877,1.7925,1.7198,1.6813,1.5652,1.4863,1.4683,1.4583,1.4465,1.4408,1.4381,1.4353,1.4347,1.4389,1.4333,1.413,1.4088,1.4088,1.4088,1.4088,1.4088,1.4088,1.4088,1.4088,1.4088,1.4088,1.4088,1.4088,1.4088,1.4115,1.4148,1.4168,1.4235,1.4489,1.4549,1.4629,1.4881,1.4921,1.4968,1.5008,1.5028,1.5104,1.5324,1.5197,1.509,1.503,1.5109,1.5162,1.5135,1.5082,1.511,1.5391,1.5444,1.5565,1.5718,1.5812,1.5818,1.5818,1.5765,1.5805,1.5792,1.5698,1.5557,1.4978,1.4933,1.471,1.4316,1.3521,1.2342,1.121,1.0383,0.9687,0.9141,0.8813,0.8788,0.8655,0.8368,0.8186,0.7827,0.7454,0.7175,0.697,0.6916,0.6883,1.9152,1.8798,1.8584,1.8277,1.7856,1.7689,1.7589,1.7589,1.7589,1.7589,1.7555,1.7508,1.7393,1.7192,1.7045,1.6744,1.6346,1.6186,1.6019,1.5852,1.5825,1.5825,1.5825,1.5825,1.5825,1.5825,1.5825,1.5967,1.6386,1.7178,1.7365,1.6796,1.7348,1.7025,1.6213,1.5642,1.531,1.5144,1.4975,1.5364,1.5995,1.6052,1.5957,1.5738,1.5731,1.5163,1.4284,1.4088,1.4088,1.4088,1.4088,1.4088,1.4102,1.4095,1.4102,1.4135,1.4108,1.4102,1.4108,1.4115,1.4195,1.4382,1.4409,1.4536,1.4816,1.4894,1.4934,1.5015,1.5015,1.5109,1.5231,1.5284,1.5424,1.5645,1.5591,1.5551,1.5558,1.5598,1.5598,1.5605,1.5571,1.5611,1.5645,1.5691,1.5725,1.5798,1.5825,1.5825,1.5825,1.5825,1.5825,1.5825,1.5805,1.5812,1.569,1.5657,1.5523,1.5227,1.4315,1.2896,1.1585,1.0356,0.9663,0.9054,0.8898,0.8873,0.8533,0.8233,0.8109,0.8347,0.7834,0.7517,0.7177,0.7045,0.7041,1.9192,1.8905,1.8617,1.8323,1.7969,1.7709,1.7589,1.7589,1.7589,1.7589,1.7589,1.7589,1.7541,1.7387,1.7253,1.6951,1.6486,1.6326,1.6106,1.5865,1.5825,1.5825,1.5825,1.5825,1.5825,1.5825,1.5825,1.5825,1.592,1.6574,1.6433,1.6103,1.6527,1.6487,1.5988,1.6234,1.6271,1.6274,1.6451,1.7061,1.7514,1.7541,1.749,1.7309,1.7235,1.6621,1.5433,1.4795,1.4398,1.4162,1.4088,1.4135,1.4249,1.4148,1.4244,1.4402,1.4349,1.4315,1.4436,1.4456,1.4529,1.4669,1.4703,1.4856,1.507,1.5189,1.5209,1.5331,1.5324,1.5411,1.5524,1.5578,1.5658,1.5778,1.5825,1.5825,1.5825,1.5805,1.5825,1.5825,1.5825,1.5825,1.5825,1.5825,1.5825,1.5825,1.5825,1.5825,1.5825,1.5825,1.5825,1.5825,1.5825,1.5825,1.5825,1.5751,1.5738,1.5561,1.4899,1.3542,1.2308,1.0957,1.0692,1.0177,0.9474,0.9109,0.94,0.9429,0.9238,0.9178,0.8448,0.7851,0.7576,0.7503,0.7458,1.9212,1.8938,1.8624,1.8337,1.8015,1.7729,1.7589,1.7589,1.7589,1.7589,1.7589,1.7589,1.7621,1.7562,1.738,1.7072,1.668,1.646,1.6139,1.5925,1.5825,1.5825,1.5825,1.5825,1.5825,1.5825,1.5825,1.5825,1.5825,1.5872,1.5872,1.5825,1.5872,1.6015,1.6292,1.7109,1.7512,1.7659,1.8282,1.8761,1.8958,1.8995,1.8944,1.8826,1.8357,1.7738,1.6644,1.5788,1.4967,1.4208,1.4182,1.4349,1.4509,1.4309,1.4472,1.4807,1.4696,1.4669,1.4921,1.4921,1.5001,1.499,1.5055,1.5182,1.5364,1.5444,1.5518,1.5705,1.5818,1.5765,1.5772,1.5805,1.5805,1.5825,1.5825,1.5825,1.5825,1.5825,1.5825,1.5825,1.5825,1.5825,1.5825,1.5825,1.5825,1.5825,1.5825,1.5825,1.5825,1.5825,1.5825,1.5825,1.5825,1.5825,1.5825,1.5825,1.5818,1.5676,1.5134,1.4165,1.3271,1.2359,1.2213,1.1702,1.0301,1.0583,1.1919,1.1692,1.0678,1.0007,0.9329,0.8613,0.802,0.8116,0.8151,1.9332,1.9232,1.8711,1.8457,1.831,1.7822,1.7589,1.7589,1.7589,1.7589,1.7589,1.7589,1.7589,1.7628,1.7534,1.7208,1.676,1.6593,1.6339,1.5865,1.5825,1.5825,1.5825,1.5825,1.5825,1.5825,1.5825,1.5825,1.5825,1.5825,1.5825,1.5825,1.5872,1.6292,1.7225,1.7591,1.8211,1.8881,1.9364,1.9982,2.0616,2.0642,2.0579,2.0348,1.929,1.8051,1.707,1.6551,1.5883,1.5106,1.4827,1.4823,1.4836,1.4776,1.4874,1.4981,1.4988,1.4948,1.5008,1.5075,1.507,1.5277,1.5317,1.5424,1.5691,1.5718,1.5752,1.5825,1.5825,1.5825,1.5825,1.5825,1.5825,1.5825,1.5825,1.5825,1.5825,1.5825,1.5825,1.5825,1.5825,1.5825,1.5825,1.5825,1.5825,1.5825,1.5825,1.5825,1.5825,1.5825,1.5825,1.5825,1.5825,1.5825,1.5825,1.5825,1.5825,1.5825,1.5337,1.4991,1.4129,1.34,1.3162,1.2141,1.0693,1.1724,1.3395,1.1953,1.052,1.0352,1.0301,0.9609,0.911,0.9009,0.9007,1.9343,1.9118,1.8677,1.841,1.8217,1.7789,1.7589,1.7589,1.7589,1.7589,1.7589,1.7589,1.7589,1.7589,1.7569,1.7321,1.6921,1.66,1.6259,1.5899,1.5825,1.5825,1.5825,1.5825,1.5825,1.5825,1.5825,1.5825,1.5825,1.5825,1.5825,1.5825,1.5825,1.648,1.7684,1.828,1.9222,2.0251,2.0944,2.1534,2.2031,2.211,2.2108,2.1752,2.057,1.9308,1.8224,1.7469,1.6579,1.5725,1.5357,1.5291,1.5196,1.5095,1.509,1.5317,1.5224,1.5264,1.5317,1.5378,1.5444,1.5571,1.5598,1.5671,1.5785,1.5825,1.5825,1.5825,1.5825,1.5825,1.5825,1.5825,1.5825,1.5825,1.5825,1.5825,1.5825,1.5825,1.5825,1.5825,1.5825,1.5825,1.5825,1.5825,1.5825,1.5825,1.5825,1.5825,1.5825,1.5825,1.5825,1.5825,1.5825,1.5825,1.5825,1.5825,1.5825,1.5825,1.5683,1.5534,1.5184,1.4541,1.3957,1.3048,1.2337,1.2975,1.3966,1.225,1.1452,1.1994,1.1921,1.0891,1.038,1.0476,1.0435,1.9152,1.8891,1.8564,1.8277,1.7969,1.7716,1.7589,1.7589,1.7589,1.7589,1.7589,1.7589,1.7589,1.7589,1.7589,1.7467,1.7105,1.661,1.6139,1.5979,1.5852,1.5832,1.5825,1.5825,1.5825,1.5825,1.5825,1.5825,1.5825,1.5825,1.5825,1.5825,1.6109,1.6936,1.8048,1.9177,2.035,2.1534,2.2315,2.2775,2.296,2.295,2.2931,2.2717,2.2089,2.0686,1.9418,1.8409,1.7314,1.5967,1.5825,1.5691,1.5478,1.5291,1.5271,1.5778,1.5571,1.5558,1.5671,1.5758,1.5778,1.5825,1.5818,1.5818,1.5825,1.5825,1.5825,1.5825,1.5825,1.5825,1.5825,1.5825,1.5825,1.5825,1.5825,1.5825,1.5825,1.5825,1.5825,1.5825,1.5825,1.5825,1.5825,1.5825,1.5825,1.5825,1.5825,1.5825,1.5825,1.5825,1.5825,1.5825,1.5825,1.5825,1.5825,1.5825,1.5825,1.5825,1.5825,1.5825,1.5825,1.5378,1.4835,1.4889,1.4696,1.488,1.463,1.3678,1.3398,1.3968,1.3448,1.2268,1.1949,1.1997,1.1803,1.8965,1.8878,1.8288,1.8035,1.7942,1.7709,1.7589,1.7589,1.7589,1.7589,1.7589,1.7589,1.7589,1.7589,1.7589,1.7474,1.7125,1.667,1.6286,1.6132,1.5979,1.5865,1.5832,1.5825,1.5825,1.5825,1.5825,1.5825,1.5825,1.5825,1.5825,1.6021,1.681,1.787,1.9039,2.0395,2.1445,2.2403,2.2916,2.3091,2.3101,2.3101,2.3101,2.3091,2.2731,2.1632,2.0042,1.9268,1.8172,1.6103,1.5825,1.5744,1.5725,1.5658,1.5658,1.5711,1.5765,1.5745,1.5812,1.5825,1.5825,1.5825,1.5825,1.5825,1.5825,1.5825,1.5825,1.5825,1.5825,1.5825,1.5825,1.5825,1.5825,1.5825,1.5825,1.5825,1.5825,1.5825,1.5825,1.5825,1.5825,1.5825,1.5825,1.5825,1.5825,1.5825,1.5825,1.5825,1.5825,1.5825,1.5825,1.5825,1.5825,1.5825,1.5825,1.5825,1.5825,1.5825,1.5825,1.5825,1.5825,1.5825,1.5683,1.5534,1.5194,1.4883,1.4638,1.4555,1.4459,1.4364,1.3974,1.3536,1.3341,1.3146,1.2929,1.8838,1.8657,1.8169,1.7896,1.7796,1.7655,1.7589,1.7589,1.7589,1.7589,1.7589,1.7589,1.7589,1.7589,1.7589,1.7474,1.7159,1.6951,1.6616,1.6319,1.6126,1.5959,1.5858,1.5832,1.5825,1.5825,1.5825,1.5825,1.5825,1.5825,1.5825,1.6109,1.7091,1.8326,1.9497,2.0621,2.1898,2.2818,2.3101,2.3101,2.3101,2.3101,2.3101,2.3101,2.3047,2.2129,2.08,1.9724,1.868,1.7077,1.615,1.5872,1.5825,1.5825,1.5825,1.5825,1.5825,1.5825,1.5825,1.5825,1.5825,1.5825,1.5825,1.5825,1.5825,1.5825,1.5825,1.5825,1.5825,1.5825,1.5825,1.5825,1.5825,1.5825,1.5832,1.5838,1.5838,1.5838,1.5858,1.5872,1.5852,1.5852,1.5825,1.5825,1.5825,1.5825,1.5825,1.5825,1.5825,1.5825,1.5825,1.5825,1.5825,1.5825,1.5825,1.5825,1.5825,1.5825,1.5825,1.5825,1.5825,1.5825,1.5825,1.573,1.5391,1.5051,1.5194,1.5242,1.4997,1.4806,1.4752,1.4657,1.4418,1.4226,1.4028,1.8698,1.8464,1.8049,1.7809,1.7609,1.7589,1.7589,1.7589,1.7589,1.7589,1.7589,1.7589,1.7589,1.7589,1.7615,1.7501,1.728,1.7233,1.6911,1.6603,1.6355,1.6126,1.5979,1.5852,1.5825,1.5825,1.5825,1.5825,1.5825,1.5825,1.5825,1.6292,1.7217,1.8457,1.9579,2.1078,2.2129,2.2721,2.3101,2.3101,2.3101,2.3101,2.3101,2.3101,2.3091,2.2492,2.1203,2.0079,1.8956,1.763,1.6574,1.5825,1.5825,1.5825,1.5825,1.5825,1.5825,1.5825,1.5825,1.5825,1.5825,1.5825,1.5825,1.5825,1.5825,1.5825,1.5825,1.5825,1.5825,1.5825,1.5825,1.5825,1.5825,1.5804,1.5838,1.5891,1.5957,1.5991,1.6072,1.6039,1.5952,1.5899,1.5892,1.5825,1.5825,1.5825,1.5825,1.5825,1.5825,1.5825,1.5825,1.5825,1.5825,1.5825,1.5825,1.5825,1.5825,1.5825,1.5825,1.5825,1.5825,1.5825,1.5825,1.5825,1.5778,1.5534,1.5778,1.5825,1.5534,1.5439,1.5683,1.5635,1.5194,1.5146,1.5099,1.8524,1.8444,1.7876,1.7615,1.7589,1.7589,1.7589,1.7589,1.7589,1.7589,1.7589,1.7589,1.7589,1.7589,1.7589,1.7562,1.7514,1.734,1.7166,1.6938,1.6603,1.6333,1.6186,1.5932,1.5892,1.5872,1.5845,1.5825,1.5825,1.5825,1.5872,1.6292,1.7987,1.9397,1.9898,2.1632,2.2906,2.3047,2.3047,2.3003,2.3003,2.3047,2.3101,2.3101,2.3003,2.2633,2.148,2.026,1.8993,1.7863,1.6527,1.5872,1.5825,1.5825,1.5825,1.5825,1.5825,1.5825,1.5825,1.5825,1.5825,1.5825,1.5825,1.5825,1.5825,1.5825,1.5825,1.5825,1.5825,1.5825,1.5832,1.5845,1.5832,1.5945,1.6086,1.6233,1.6326,1.627,1.6339,1.6339,1.6286,1.6092,1.5937,1.5899,1.5825,1.5825,1.5832,1.5845,1.5825,1.5825,1.5825,1.5825,1.5825,1.5825,1.5825,1.5825,1.5845,1.5838,1.5838,1.5832,1.5825,1.5825,1.5825,1.5825,1.5825,1.5825,1.5825,1.5825,1.5825,1.5825,1.5825,1.5825,1.573,1.5825,1.5825,1.8182,1.8149,1.7769,1.7589,1.7589,1.7589,1.7589,1.7589,1.7589,1.7589,1.7589,1.7589,1.7589,1.7589,1.7589,1.7582,1.7608,1.7494,1.7347,1.7226,1.6924,1.6673,1.648,1.6239,1.6086,1.6039,1.5925,1.5825,1.5832,1.5893,1.6062,1.7084,1.8588,1.9898,2.0387,2.2173,2.2448,2.2262,2.2085,2.2076,2.2262,2.2721,2.3101,2.3101,2.3101,2.2775,2.2041,2.0404,1.9405,1.8365,1.6983,1.5825,1.5825,1.5825,1.5825,1.5825,1.5825,1.5825,1.5825,1.5825,1.5825,1.5825,1.5825,1.5825,1.5825,1.5832,1.5832,1.5825,1.5825,1.5838,1.5899,1.5985,1.6059,1.6166,1.6346,1.6533,1.666,1.664,1.6633,1.6627,1.66,1.6406,1.6199,1.6039,1.5979,1.5965,1.5999,1.6039,1.5939,1.5825,1.5825,1.5825,1.5825,1.5825,1.5825,1.5825,1.5879,1.5879,1.5824,1.5818,1.5832,1.5825,1.5865,1.5852,1.5825,1.5825,1.5825,1.5825,1.5825,1.5825,1.5825,1.5825,1.5825,1.5825,1.5825,1.7949,1.7909,1.7675,1.7589,1.7589,1.7589,1.7589,1.7589,1.7589,1.7589,1.7589,1.7589,1.7589,1.7589,1.7589,1.7589,1.7582,1.7589,1.7514,1.736,1.7213,1.7058,1.6831,1.6589,1.638,1.638,1.6233,1.6132,1.6092,1.6155,1.6655,1.7707,1.8864,2.0079,2.1203,2.1889,2.1987,2.0935,2.1248,2.1391,2.1578,2.2545,2.296,2.3101,2.3101,2.3101,2.2731,2.0773,1.9542,1.9039,1.707,1.5825,1.5825,1.5825,1.5825,1.5825,1.5825,1.5825,1.5825,1.5825,1.5825,1.5825,1.5825,1.5825,1.5825,1.5832,1.5905,1.5959,1.5972,1.5999,1.6079,1.6279,1.6339,1.6473,1.6633,1.684,1.7001,1.6994,1.6941,1.6887,1.684,1.6754,1.6526,1.6266,1.6152,1.6119,1.6152,1.6226,1.6159,1.6039,1.6066,1.6126,1.6139,1.6146,1.6126,1.6086,1.6046,1.5999,1.5951,1.5979,1.6005,1.5992,1.5957,1.5952,1.5872,1.5825,1.5825,1.5825,1.5825,1.5825,1.5825,1.5825,1.5825,1.5825,1.5825,1.7876,1.7615,1.7595,1.7589,1.7589,1.7589,1.7589,1.7589,1.7589,1.7589,1.7589,1.7589,1.7589,1.7589,1.7589,1.7589,1.7589,1.7589,1.7549,1.7501,1.7353,1.7239,1.7072,1.6854,1.6673,1.6673,1.654,1.654,1.66,1.6486,1.7015,1.7781,1.9094,2.0201,2.0998,2.1481,2.0809,2.0034,2.0305,2.0944,2.1355,2.2183,2.295,2.3091,2.3101,2.3091,2.3003,2.0773,1.9497,1.9405,1.7156,1.5825,1.5825,1.5825,1.5825,1.5825,1.5825,1.5825,1.5825,1.5825,1.5825,1.5825,1.5832,1.5852,1.5905,1.5811,1.5952,1.6192,1.6233,1.6339,1.6493,1.6667,1.668,1.676,1.6907,1.7081,1.73,1.7361,1.7301,1.7233,1.7146,1.7034,1.6981,1.6747,1.648,1.6433,1.642,1.6486,1.6573,1.65,1.652,1.6553,1.658,1.6593,1.66,1.654,1.6406,1.638,1.6386,1.6326,1.6279,1.6246,1.6117,1.6066,1.5985,1.5905,1.5825,1.5825,1.5825,1.5825,1.5825,1.5825,1.5825,1.5825,1.5825,1.7695,1.7589,1.7589,1.7589,1.7589,1.7589,1.7589,1.7589,1.7589,1.7589,1.7589,1.7589,1.7589,1.7589,1.7589,1.7589,1.7589,1.7589,1.7589,1.7562,1.7462,1.7474,1.7367,1.7206,1.7032,1.6941,1.6827,1.6707,1.6687,1.6767,1.7414,1.8279,1.9455,2.1254,2.1926,2.0985,1.96,1.8858,1.8934,1.9376,2.0404,2.1355,2.235,2.3091,2.3091,2.3101,2.2775,2.0728,1.9861,1.8902,1.7063,1.619,1.5825,1.5825,1.5825,1.5825,1.5825,1.5838,1.5852,1.5845,1.5825,1.5825,1.5838,1.5912,1.6072,1.6099,1.6253,1.6426,1.654,1.6633,1.6673,1.686,1.7045,1.7054,1.7168,1.738,1.7481,1.7581,1.7535,1.7414,1.7427,1.7382,1.7328,1.7261,1.6987,1.676,1.6747,1.676,1.6854,1.6894,1.6874,1.686,1.6867,1.6834,1.6834,1.678,1.6727,1.6754,1.6774,1.6673,1.6573,1.64,1.6313,1.6206,1.6126,1.6072,1.5992,1.5872,1.5832,1.5784,1.5832,1.5825,1.5825,1.5825,1.5825,1.7589,1.7589,1.7589,1.7589,1.7589,1.7589,1.7589,1.7589,1.7589,1.7589,1.7589,1.7589,1.7589,1.7589,1.7589,1.7589,1.7589,1.7589,1.7589,1.7575,1.7569,1.7589,1.7515,1.746,1.7326,1.7228,1.7114,1.6994,1.7027,1.6981,1.7778,1.8812,1.9795,2.1174,2.1538,2.0534,1.8613,1.7739,1.7881,1.8212,1.9323,2.0737,2.1734,2.2682,2.288,2.3101,2.2501,2.0899,1.9679,1.8718,1.7382,1.6055,1.5825,1.5825,1.5825,1.5832,1.5838,1.5865,1.5939,1.5959,1.5959,1.5999,1.6119,1.6226,1.6339,1.6413,1.6533,1.6837,1.684,1.686,1.6914,1.7174,1.7326,1.7321,1.7382,1.7561,1.7568,1.7575,1.7582,1.7528,1.7555,1.7535,1.7508,1.7442,1.7335,1.7141,1.7161,1.7161,1.7201,1.7201,1.7121,1.7108,1.7101,1.7048,1.6987,1.7054,1.7121,1.7141,1.7128,1.6994,1.686,1.6707,1.6506,1.6353,1.6286,1.6259,1.6139,1.5985,1.5899,1.5798,1.5791,1.5825,1.5825,1.5825,1.5825,1.7589,1.7589,1.7589,1.7589,1.7589,1.7589,1.7589,1.7589,1.7589,1.7589,1.7589,1.7589,1.7589,1.7589,1.7589,1.7589,1.7589,1.7589,1.7589,1.7589,1.7589,1.7589,1.7575,1.7535,1.7541,1.7562,1.7462,1.7408,1.7482,1.7415,1.8216,1.8831,1.9337,1.9892,2.0321,1.9246,1.7937,1.7052,1.7887,1.8236,1.898,2.0533,2.1556,2.2217,2.2971,2.3354,2.2847,2.1002,1.9866,1.9295,1.7225,1.6055,1.5905,1.5899,1.5892,1.5879,1.5899,1.6019,1.6226,1.6259,1.6293,1.6286,1.64,1.658,1.6667,1.6727,1.682,1.7146,1.7192,1.7261,1.7415,1.7535,1.7515,1.7522,1.7569,1.7589,1.7589,1.7589,1.7589,1.7589,1.7589,1.7582,1.7582,1.7569,1.7562,1.7522,1.7555,1.7555,1.7502,1.7448,1.7341,1.7321,1.7308,1.7315,1.7301,1.7435,1.7508,1.7528,1.7455,1.7288,1.7248,1.7208,1.6954,1.662,1.6567,1.6627,1.6366,1.6079,1.5992,1.5899,1.5798,1.5825,1.5825,1.5825,1.5825,1.7589,1.7589,1.7589,1.7589,1.7589,1.7589,1.7589,1.7589,1.7589,1.7589,1.7589,1.7589,1.7589,1.7589,1.7589,1.7589,1.7589,1.7589,1.7589,1.7589,1.7589,1.7589,1.7589,1.7589,1.7589,1.7589,1.7589,1.7589,1.7562,1.7589,1.774,1.8192,1.853,1.8788,1.9215,1.8763,1.7916,1.6943,1.7179,1.7669,1.8599,2.0143,2.1401,2.2162,2.3311,2.3871,2.3706,2.1424,2.0257,1.98,1.7591,1.6222,1.6126,1.6126,1.6119,1.6172,1.6239,1.644,1.6613,1.6737,1.679,1.6693,1.668,1.6847,1.6954,1.7052,1.7219,1.7387,1.744,1.7488,1.7601,1.7575,1.7569,1.7562,1.7589,1.7589,1.7589,1.7589,1.7589,1.7589,1.7589,1.7642,1.7662,1.7769,1.7789,1.7709,1.7702,1.7622,1.7555,1.7555,1.7495,1.7508,1.7508,1.7542,1.7589,1.7589,1.7589,1.7562,1.7555,1.7508,1.7515,1.7522,1.7428,1.7108,1.7054,1.7045,1.6693,1.6393,1.6106,1.5959,1.5945,1.5872,1.5825,1.5825,1.5825,1.7589,1.7589,1.7589,1.7589,1.7589,1.7589,1.7589,1.7589,1.7589,1.7589,1.7589,1.7589,1.7589,1.7589,1.7589,1.7589,1.7589,1.7589,1.7589,1.7589,1.7589,1.7589,1.7589,1.7589,1.7589,1.7589,1.7589,1.7589,1.7589,1.7589,1.7687,1.7687,1.7635,1.8036,1.8387,1.8136,1.7805,1.717,1.7337,1.7768,1.8907,2.0189,2.1397,2.2568,2.3626,2.4375,2.3671,2.2351,2.0578,1.9838,1.833,1.6525,1.6426,1.6426,1.642,1.65,1.6673,1.6827,1.6971,1.7128,1.7199,1.7074,1.7007,1.7101,1.7306,1.7347,1.7427,1.7554,1.7582,1.7595,1.7602,1.7615,1.7742,1.7749,1.7836,1.7849,1.7816,1.7829,1.7949,1.7909,1.7856,1.7862,1.7856,1.7936,1.8029,1.7929,1.7829,1.7736,1.7635,1.7595,1.7589,1.7589,1.7589,1.7589,1.7589,1.7589,1.7589,1.7589,1.7589,1.7589,1.7582,1.7562,1.7575,1.7582,1.7415,1.7228,1.7007,1.674,1.6433,1.6219,1.6126,1.6019,1.5865,1.5825,1.5825,1.7589,1.7589,1.7589,1.7589,1.7589,1.7589,1.7589,1.7589,1.7589,1.7589,1.7589,1.7589,1.7589,1.7589,1.7589,1.7589,1.7589,1.7589,1.7589,1.7589,1.7589,1.7589,1.7589,1.7589,1.7589,1.7589,1.7589,1.7589,1.7589,1.7589,1.7589,1.7589,1.7589,1.7745,1.7809,1.7775,1.7637,1.746,1.7506,1.8161,1.933,2.0506,2.1748,2.2946,2.4032,2.4577,2.39,2.2327,2.1122,1.9859,1.8249,1.7213,1.672,1.672,1.672,1.6814,1.7092,1.7172,1.7246,1.7422,1.7488,1.7422,1.7482,1.7608,1.7588,1.7554,1.7581,1.7582,1.7642,1.7635,1.7635,1.7849,1.8002,1.815,1.8277,1.8263,1.821,1.8283,1.8437,1.845,1.8384,1.835,1.8297,1.833,1.8277,1.821,1.811,1.8003,1.7869,1.7609,1.7602,1.7589,1.7589,1.7589,1.7589,1.7589,1.7589,1.7589,1.7589,1.7589,1.7589,1.7589,1.7589,1.7589,1.7589,1.7428,1.7134,1.6934,1.6747,1.656,1.6366,1.6192,1.6052,1.5865,1.5825,1.7589,1.7589,1.7589,1.7589,1.7589,1.7589,1.7589,1.7589,1.7589,1.7589,1.7589,1.7589,1.7589,1.7589,1.7589,1.7589,1.7589,1.7589,1.7589,1.7589,1.7589,1.7589,1.7589,1.7589,1.7589,1.7589,1.7589,1.7589,1.7589,1.7589,1.7589,1.7589,1.7589,1.7589,1.7589,1.7589,1.7589,1.7589,1.7589,1.8401,1.9524,2.0651,2.2003,2.3287,2.4437,2.4928,2.4583,2.2743,2.1652,2.088,1.8549,1.718,1.7072,1.7085,1.7112,1.7308,1.7422,1.7507,1.7468,1.7535,1.7602,1.7615,1.7609,1.7589,1.7582,1.7629,1.7642,1.7722,1.7836,1.7889,1.7976,1.8156,1.8317,1.843,1.8551,1.8577,1.8537,1.8577,1.8724,1.8718,1.8664,1.8664,1.8631,1.8591,1.8531,1.8484,1.841,1.8303,1.8143,1.7903,1.7695,1.7682,1.7655,1.7675,1.7602,1.7589,1.7589,1.7589,1.7589,1.7589,1.7589,1.7589,1.7589,1.7589,1.7589,1.7487,1.7246,1.7105,1.7001,1.6787,1.6593,1.6413,1.6239,1.6099,1.5959,1.7589,1.7589,1.7589,1.7589,1.7589,1.7589,1.7589,1.7589,1.7589,1.7589,1.7589,1.7589,1.7589,1.7589,1.7589,1.7589,1.7589,1.7589,1.7589,1.7589,1.7589,1.7589,1.7589,1.7589,1.7589,1.7589,1.7589,1.7589,1.7589,1.7589,1.7589,1.7589,1.7589,1.7589,1.7589,1.7589,1.7589,1.7589,1.7793,1.8454,1.9472,2.0538,2.1811,2.3434,2.4609,2.5069,2.5382,2.3335,2.2466,2.1651,1.9125,1.8238,1.8379,1.8635,1.8554,1.8703,1.8471,1.8119,1.7765,1.7621,1.7655,1.7736,1.7769,1.7862,1.7876,1.7916,1.7943,1.8003,1.813,1.8243,1.835,1.8464,1.8564,1.8671,1.8764,1.8851,1.8858,1.8851,1.8871,1.8928,1.8934,1.8941,1.8865,1.8824,1.8831,1.8858,1.8798,1.8657,1.8497,1.829,1.8029,1.7876,1.7822,1.7782,1.7695,1.7609,1.7589,1.7589,1.7589,1.7589,1.7589,1.7589,1.7589,1.7589,1.7589,1.7494,1.7373,1.7387,1.7326,1.7068,1.6914,1.6794,1.6647,1.6473,1.6346,1.7589,1.7589,1.7589,1.7589,1.7589,1.7589,1.7589,1.7589,1.7589,1.7589,1.7589,1.7589,1.7589,1.7589,1.7589,1.7589,1.7589,1.7589,1.7589,1.7589,1.7589,1.7589,1.7589,1.7589,1.7589,1.7589,1.7589,1.7589,1.7589,1.7589,1.7589,1.7589,1.7589,1.7589,1.7589,1.7589,1.7589,1.7595,1.7794,1.8289,1.9235,1.9981,2.0794,2.2976,2.3791,2.4196,2.4824,2.4254,2.3126,2.1853,2.0676,1.9789,2.0089,2.0535,2.0464,1.9863,1.9317,1.8629,1.8039,1.7702,1.7856,1.7922,1.8035,1.8223,1.827,1.8183,1.819,1.8277,1.8397,1.8497,1.8597,1.8784,1.8925,1.8985,1.9045,1.9112,1.9182,1.9182,1.9182,1.9189,1.9189,1.9196,1.9196,1.9162,1.9142,1.9243,1.9152,1.8985,1.8865,1.8677,1.8417,1.815,1.7935,1.7903,1.7769,1.7682,1.7602,1.7589,1.7602,1.7589,1.7589,1.7589,1.7589,1.7589,1.7589,1.7589,1.7574,1.7554,1.7527,1.7474,1.7281,1.7259,1.7061,1.6881,1.6673,1.7589,1.7589,1.7589,1.7589,1.7589,1.7589,1.7589,1.7589,1.7589,1.7589,1.7589,1.7589,1.7589,1.7589,1.7589,1.7589,1.7589,1.7589,1.7589,1.7589,1.7589,1.7589,1.7589,1.7589,1.7589,1.7589,1.7589,1.7595,1.7635,1.7622,1.7602,1.7609,1.7642,1.7682,1.7675,1.7675,1.7682,1.7716,1.7943,1.8395,1.9293,1.9761,2.0538,2.2089,2.297,2.3832,2.4297,2.4102,2.361,2.3026,2.1853,2.1296,2.1245,2.1558,2.0955,1.9937,1.9658,1.9012,1.8297,1.7949,1.8096,1.827,1.8417,1.8577,1.8617,1.8477,1.8457,1.8564,1.8657,1.8758,1.8871,1.9078,1.9232,1.9272,1.9305,1.939,1.9424,1.9424,1.9424,1.9424,1.9424,1.9424,1.9424,1.9424,1.9424,1.941,1.9383,1.9252,1.9225,1.9135,1.8818,1.8531,1.8129,1.7982,1.7916,1.7829,1.7789,1.7682,1.7662,1.7635,1.7595,1.7589,1.7589,1.7589,1.7589,1.7589,1.7589,1.7575,1.7615,1.7608,1.7588,1.7454,1.746,1.7281,1.7034,1.7589,1.7589,1.7589,1.7589,1.7589,1.7589,1.7589,1.7589,1.7589,1.7589,1.7589,1.7589,1.7589,1.7589,1.7589,1.7589,1.7589,1.7589,1.7589,1.7589,1.7589,1.7589,1.7589,1.7589,1.7589,1.7589,1.7595,1.7622,1.7756,1.7809,1.7829,1.7929,1.7963,1.7949,1.7963,1.7969,1.7956,1.8009,1.8163,1.8597,1.9167,1.9319,2.0325,2.1723,2.28,2.3721,2.4991,2.5101,2.4739,2.4427,2.3528,2.2645,2.2558,2.2877,2.1955,2.0724,1.9923,1.9473,1.8612,1.8229,1.839,1.8577,1.8684,1.8818,1.9052,1.8945,1.8938,1.9025,1.9038,1.9118,1.9125,1.9279,1.9305,1.939,1.9397,1.9417,1.9424,1.9424,1.9424,1.9424,1.9424,1.9424,1.9424,1.9424,1.9424,1.9424,1.9417,1.9417,1.9424,1.9424,1.9189,1.8938,1.8604,1.835,1.8243,1.8136,1.8043,1.7916,1.7789,1.7695,1.7662,1.7615,1.7589,1.7589,1.7589,1.7589,1.7589,1.7589,1.7589,1.7575,1.7575,1.7555,1.7589,1.7589,1.7368,1.7589,1.7589,1.7589,1.7589,1.7589,1.7589,1.7589,1.7589,1.7589,1.7589,1.7589,1.7589,1.7589,1.7589,1.7589,1.7589,1.7589,1.7589,1.7589,1.7589,1.7589,1.7589,1.7589,1.7589,1.7629,1.7675,1.7709,1.7889,1.809,1.8116,1.8217,1.845,1.8497,1.8484,1.8497,1.8477,1.8404,1.8397,1.847,1.8537,1.8579,1.8559,2.0081,2.1525,2.2847,2.4132,2.5825,2.6676,2.6134,2.5778,2.5161,2.4287,2.3757,2.3783,2.2441,2.1262,2.0349,1.9692,1.8898,1.8557,1.8724,1.8885,1.8945,1.9072,1.9357,1.9397,1.939,1.939,1.9403,1.9403,1.941,1.9417,1.9424,1.9424,1.9424,1.9424,1.9424,1.9424,1.9424,1.9424,1.9424,1.9424,1.9424,1.9424,1.9424,1.9424,1.9424,1.9424,1.9424,1.9424,1.9323,1.9263,1.9065,1.8838,1.8597,1.8417,1.829,1.8203,1.807,1.7883,1.7742,1.7736,1.7689,1.7589,1.7589,1.7589,1.7589,1.7589,1.7589,1.7589,1.7589,1.7589,1.7589,1.7589,1.7589,1.7589,1.7589,1.7589,1.7589,1.7589,1.7589,1.7589,1.7589,1.7589,1.7589,1.7589,1.7589,1.7589,1.7589,1.7589,1.7589,1.7589,1.7589,1.7589,1.7589,1.7635,1.7615,1.7642,1.7749,1.7769,1.7862,1.7983,1.8143,1.8364,1.841,1.8437,1.8551,1.8537,1.8531,1.8524,1.8537,1.8597,1.8644,1.8764,1.8844,1.8821,1.9006,1.9463,2.0777,2.2162,2.3649,2.5133,2.642,2.6695,2.6695,2.6487,2.5659,2.4938,2.4325,2.2988,2.1426,2.0545,1.9834,1.9164,1.8894,1.9005,1.9165,1.9212,1.9232,1.9417,1.9417,1.941,1.941,1.9417,1.9417,1.9424,1.9424,1.9424,1.9424,1.9424,1.9424,1.9424,1.9424,1.9424,1.9424,1.9424,1.9424,1.9424,1.9424,1.9424,1.9424,1.9424,1.9424,1.9424,1.9424,1.9424,1.9707,1.9815,1.9178,1.8885,1.8664,1.8524,1.845,1.8337,1.8123,1.7976,1.7916,1.7842,1.7736,1.7622,1.7589,1.7589,1.7589,1.7589,1.7589,1.7589,1.7589,1.7589,1.7589,1.7589]}]]